[[{"header":{"parameterUnit":"m.s-1","parameterCategory":1,"la1":31.0,"la2":29.5877,"lo1":-88.7671,"lo2":-86.6584,"dy":0.0162,"dx":0.0185,"nx":115,"ny":88,"refTime":"2024-03-30T06:00:00:Z","depth":0,"parameterNumber":2,"parameterNumberName":"U-component_of_WINDS"},"data":[0.0,0.0,0.0,0.0,0.0,0.0,0.0,0.0,0.0,0.0,0.0,0.0,0.0,0.0,0.0,0.0,0.0,0.0,0.0,0.0,0.0,0.0,0.0,0.0,0.0,0.0,0.0,0.0,0.0,0.0,0.0,0.0,0.0,0.0,0.0,0.0,0.0,0.0,0.0,0.0,0.0,0.0,0.0,0.0,0.0,0.0,0.0,0.0,0.0,0.0,0.0,0.0,0.0,0.0,0.0,0.0,0.0,0.0,0.0,0.0,0.0,0.0,0.0,0.0,0.0,0.0,0.0,0.0,0.0,0.0,0.0,0.0,0.0,0.0,0.0,0.0,0.0,0.0,0.0,0.0,0.0,0.0,0.0,0.0,0.0,0.0,0.0,0.0,0.0,0.0,0.0,0.0,0.0,0.0,0.0,0.0,0.0,0.0,0.0,0.0,0.0,0.0,0.0,0.0,0.0,0.0,0.0,0.0,0.0,0.0,0.0,0.0,0.0,0.0,0.0,0.0,0.0,0.0,0.0,0.0,0.0,0.0,0.0,0.0,0.0,0.0,0.0,0.0,0.0,0.0,0.0,0.0,0.0,0.0,0.0,0.0,0.0,0.0,0.0,0.0,0.0,0.0,0.0,0.0,0.0,0.0,0.0,0.0,0.0,0.0,0.0,0.0,0.0,0.0,0.0,0.0,0.0,0.0,0.0,0.0,0.0,0.0,0.0,0.0,0.0,0.0,0.0,0.0,0.0,0.0,0.0,0.0,0.0,0.0,0.0,0.0,0.0,0.0,0.0,0.0,0.0,0.0,0.0,0.0,0.0,0.0,0.0,0.0,0.0,0.0,0.0,0.0,0.0,0.0,0.0,0.0,0.0,0.0,0.0,0.0,0.0,0.0,0.0,0.0,0.0,0.0,0.0,0.0,0.0,0.0,0.0,0.0,0.0,0.0,0.0,0.0,0.0,0.0,0.0,0.0,0.0,0.0,0.0,0.0,0.0,0.0,0.0,0.0,0.0,0.0,0.0,0.0,0.0,0.0,0.0,0.0,0.0,0.0,0.0,0.0,0.0,0.0,0.0,0.0,0.0,0.0,0.0,0.0,0.0,0.0,0.0,0.0,0.0,0.0,0.0,0.0,0.0,0.0,0.0,0.0,0.0,0.0,0.0,0.0,0.0,0.0,0.0,0.0,0.0,0.0,0.0,0.0,0.0,0.0,0.0,0.0,0.0,0.0,0.0,0.0,0.0,0.0,0.0,0.0,0.0,0.0,0.0,0.0,0.0,0.0,0.0,0.0,0.0,0.0,0.0,0.0,0.0,0.0,0.0,0.0,0.0,0.0,0.0,0.0,0.0,0.0,0.0,0.0,0.0,0.0,0.0,0.0,0.0,0.0,0.0,0.0,0.0,0.0,0.0,0.0,0.0,0.0,0.0,0.0,0.0,0.0,0.0,0.0,0.0,0.0,0.0,0.0,0.0,0.0,0.0,0.0,0.0,0.0,0.0,0.0,0.0,0.0,0.0,0.0,0.0,0.0,0.0,0.0,0.0,0.0,0.0,0.0,0.0,0.0,0.0,0.0,0.0,0.0,0.0,0.0,0.0,0.0,0.0,0.0,0.0,0.0,0.0,0.0,0.0,0.0,0.0,0.0,0.0,0.0,0.0,0.0,0.0,0.0,0.0,0.0,0.0,0.0,0.0,0.0,0.0,0.0,0.0,0.0,0.0,0.0,0.0,0.0,0.0,0.0,0.0,0.0,0.0,0.0,0.0,0.0,0.0,0.0,0.0,0.0,0.0,0.0,0.0,0.0,0.0,0.0,0.0,0.0,0.0,0.0,0.0,0.0,0.0,0.0,0.0,0.0,0.0,0.0,0.0,0.0,0.0,0.0,0.0,0.0,0.0,0.0,0.0,0.0,0.0,0.0,0.0,0.0,0.0,0.0,0.0,0.0,0.0,0.0,0.0,0.0,0.0,0.0,0.0,0.0,0.0,0.0,0.0,0.0,0.0,0.0,0.0,0.0,0.0,0.0,0.0,0.0,0.0,0.0,0.0,0.0,0.0,0.0,0.0,0.0,0.0,0.0,0.0,0.0,0.0,0.0,0.0,0.0,0.0,0.0,0.0,0.0,0.0,0.0,0.0,0.0,0.0,0.0,0.0,0.0,0.0,0.0,0.0,0.0,0.0,0.0,0.0,0.0,0.0,0.0,0.0,0.0,0.0,0.0,0.0,0.0,0.0,0.0,0.0,0.0,0.0,0.0,0.0,0.0,0.0,0.0,0.0,0.0,0.0,0.0,0.0,0.0,0.0,0.0,0.0,0.0,0.0,0.0,0.0,0.0,0.0,0.0,0.0,0.0,0.0,0.0,0.0,0.0,0.0,0.0,0.0,0.0,0.0,0.0,0.0,0.0,0.0,0.0,0.0,0.0,0.0,0.0,0.0,0.0,0.0,0.0,0.0,0.0,0.0,0.0,0.0,0.0,0.0,0.0,0.0,0.0,0.0,0.0,0.0,0.0,0.0,0.0,0.0,0.0,0.0,0.0,0.0,0.0,0.0,0.0,0.0,0.0,0.0,0.0,0.0,0.0,0.0,0.0,0.0,0.0,0.0,0.0,0.0,0.0,0.0,0.0,0.0,0.0,0.0,0.0,0.0,0.0,0.0,0.0,0.0,0.0,0.0,0.0,0.0,0.0,0.0,0.0,0.0,0.0,0.0,0.0,0.0,0.0,0.0,0.0,0.0,0.0,0.0,0.0,0.0,0.0,0.0,0.0,0.0,0.0,0.0,0.0,0.0,0.0,0.0,0.0,0.0,0.0,0.0,0.0,0.0,0.0,0.0,0.0,0.0,0.0,0.0,0.0,0.0,0.0,0.0,0.0,0.0,0.0,0.0,0.0,0.0,0.0,0.0,0.0,0.0,0.0,0.0,0.0,0.0,0.0,0.0,0.0,0.0,0.0,0.0,0.0,0.0,0.0,0.0,0.0,0.0,0.0,0.0,0.0,0.0,0.0,0.0,0.0,0.0,0.0,0.0,0.0,0.0,0.0,0.0,0.0,0.0,0.0,0.0,0.0,0.0,0.0,0.0,0.0,0.0,0.0,0.0,0.0,0.0,0.0,0.0,0.0,0.0,0.0,0.0,0.0,0.0,0.0,0.0,0.0,0.0,0.0,0.0,0.0,0.0,0.0,0.0,0.0,0.0,0.0,0.0,0.0,0.0,0.0,0.0,0.0,0.0,0.0,0.0,0.0,0.0,0.0,0.0,0.0,0.0,0.0,0.0,0.0,0.0,0.0,0.0,0.0,0.0,0.0,0.0,0.0,0.0,0.0,0.0,0.0,0.0,0.0,0.0,0.0,0.0,0.0,0.0,0.0,0.0,0.0,0.0,0.0,0.0,0.0,0.0,0.0,0.0,0.0,0.0,0.0,0.0,0.0,0.0,0.0,0.0,0.0,0.0,0.0,0.0,0.0,0.0,0.0,0.0,0.0,0.0,0.0,0.0,0.0,0.0,0.0,0.0,0.0,0.0,0.0,0.0,0.0,0.0,0.0,0.0,0.0,0.0,0.0,0.0,0.0,0.0,0.0,0.0,0.0,0.0,0.0,0.0,0.0,0.0,0.0,0.0,0.0,0.0,0.0,0.0,0.0,0.0,0.0,0.0,0.0,0.0,0.0,0.0,0.0,0.0,0.0,0.0,0.0,0.0,0.0,0.0,0.0,0.0,0.0,0.0,0.0,0.0,0.0,0.0,0.0,0.0,0.0,0.0,0.0,0.0,0.0,0.0,0.0,0.0,0.0,0.0,0.0,0.0,0.0,0.0,0.0,0.0,0.0,0.0,0.0,0.0,0.0,0.0,0.0,0.0,0.0,0.0,0.0,0.0,0.0,0.0,0.0,0.0,0.0,0.0,0.0,0.0,0.0,0.0,0.0,0.0,0.0,0.0,0.0,0.0,0.0,0.0,0.0,0.0,0.0,0.0,0.0,0.0,0.0,0.0,0.0,0.0,0.0,0.0,0.0,0.0,0.0,0.0,0.0,0.0,0.0,0.0,0.0,0.0,0.0,0.0,0.0,0.0,0.0,0.0,0.0,0.0,0.0,0.0,0.0,0.0,0.0,0.0,0.0,0.0,0.0,0.0,0.0,0.0,0.0,0.0,0.0,0.0,0.0,0.0,0.0,0.0,0.0,0.0,0.0,0.0,0.0,0.0,0.0,0.0,0.0,0.0,0.0,0.0,0.0,0.0,0.0,0.0,0.0,0.0,0.0,0.0,0.0,4.0949,0.0,0.0,0.0,0.0,0.0,0.0,0.0,0.0,0.0,0.0,0.0,0.0,0.0,0.0,0.0,0.0,0.0,0.0,0.0,0.0,0.0,0.0,0.0,0.0,0.0,0.0,0.0,0.0,0.0,0.0,0.0,0.0,0.0,0.0,0.0,0.0,0.0,0.0,0.0,0.0,0.0,0.0,0.0,0.0,0.0,0.0,0.0,0.0,0.0,0.0,0.0,0.0,0.0,0.0,0.0,0.0,0.0,0.0,0.0,0.0,0.0,0.0,0.0,0.0,0.0,0.0,0.0,0.0,0.0,0.0,0.0,0.0,0.0,0.0,0.0,0.0,0.0,0.0,0.0,0.0,0.0,0.0,0.0,0.0,0.0,0.0,0.0,0.0,0.0,0.0,0.0,0.0,0.0,0.0,0.0,0.0,0.0,0.0,0.0,0.0,0.0,0.0,0.0,0.0,0.0,0.0,0.0,0.0,0.0,0.0,4.2139,4.2305,4.2287,4.1912,4.1109,0.0,0.0,0.0,0.0,0.0,0.0,0.0,0.0,0.0,0.0,0.0,0.0,0.0,0.0,0.0,0.0,0.0,0.0,0.0,0.0,0.0,0.0,0.0,0.0,0.0,0.0,0.0,0.0,0.0,0.0,0.0,0.0,0.0,0.0,0.0,0.0,0.0,0.0,0.0,0.0,0.0,0.0,0.0,0.0,0.0,0.0,0.0,0.0,0.0,0.0,0.0,0.0,0.0,0.0,0.0,0.0,0.0,0.0,0.0,0.0,0.0,0.0,0.0,0.0,0.0,0.0,0.0,0.0,0.0,0.0,0.0,0.0,0.0,0.0,0.0,0.0,0.0,0.0,0.0,0.0,0.0,0.0,0.0,0.0,0.0,0.0,0.0,0.0,0.0,0.0,0.0,0.0,0.0,0.0,0.0,0.0,0.0,0.0,0.0,0.0,0.0,0.0,0.0,0.0,0.0,0.0,0.0,0.0,0.0,0.0,0.0,0.0,4.2287,4.1823,4.0762,0.0,0.0,0.0,0.0,0.0,0.0,0.0,0.0,0.0,0.0,0.0,0.0,0.0,0.0,0.0,0.0,0.0,0.0,0.0,0.0,0.0,0.0,0.0,0.0,0.0,0.0,0.0,0.0,0.0,0.0,0.0,0.0,0.0,0.0,0.0,0.0,0.0,0.0,0.0,0.0,0.0,0.0,0.0,0.0,0.0,0.0,0.0,0.0,0.0,0.0,0.0,0.0,0.0,0.0,0.0,0.0,0.0,0.0,0.0,0.0,0.0,0.0,0.0,0.0,0.0,0.0,0.0,0.0,0.0,0.0,0.0,0.0,0.0,0.0,0.0,0.0,0.0,0.0,0.0,0.0,0.0,0.0,0.0,0.0,0.0,0.0,0.0,0.0,0.0,0.0,0.0,0.0,0.0,0.0,0.0,0.0,0.0,0.0,0.0,0.0,0.0,0.0,0.0,0.0,0.0,0.0,0.0,0.0,0.0,0.0,4.2163,4.2287,4.2287,0.0,3.9891,0.0,0.0,0.0,0.0,0.0,0.0,0.0,0.0,0.0,0.0,0.0,0.0,0.0,0.0,0.0,0.0,0.0,0.0,0.0,0.0,0.0,0.0,0.0,0.0,0.0,0.0,0.0,0.0,0.0,0.0,0.0,0.0,0.0,0.0,0.0,0.0,0.0,0.0,0.0,0.0,0.0,0.0,0.0,0.0,0.0,0.0,0.0,0.0,0.0,0.0,0.0,0.0,0.0,0.0,0.0,0.0,0.0,0.0,0.0,0.0,0.0,0.0,0.0,0.0,0.0,0.0,0.0,0.0,0.0,0.0,0.0,0.0,0.0,0.0,0.0,0.0,0.0,0.0,0.0,0.0,0.0,0.0,0.0,0.0,0.0,0.0,0.0,0.0,0.0,0.0,0.0,0.0,0.0,0.0,0.0,0.0,0.0,0.0,0.0,0.0,0.0,0.0,0.0,0.0,0.0,0.0,0.0,0.0,0.0,0.0,4.2139,4.2287,4.2246,4.1357,0.0,0.0,0.0,0.0,0.0,0.0,0.0,0.0,0.0,0.0,0.0,0.0,0.0,0.0,0.0,0.0,0.0,0.0,0.0,0.0,0.0,0.0,0.0,0.0,0.0,0.0,0.0,0.0,0.0,0.0,0.0,0.0,0.0,0.0,0.0,0.0,0.0,0.0,0.0,0.0,0.0,0.0,0.0,0.0,0.0,0.0,0.0,0.0,0.0,0.0,0.0,0.0,0.0,0.0,0.0,0.0,0.0,0.0,0.0,0.0,0.0,0.0,0.0,0.0,0.0,0.0,0.0,0.0,0.0,0.0,0.0,0.0,0.0,0.0,0.0,0.0,0.0,0.0,0.0,0.0,0.0,0.0,0.0,0.0,0.0,0.0,0.0,0.0,0.0,0.0,0.0,0.0,0.0,0.0,0.0,0.0,0.0,0.0,0.0,0.0,0.0,0.0,0.0,0.0,0.0,0.0,0.0,0.0,0.0,0.0,4.1906,4.2097,4.2287,4.2009,4.1103,3.9673,0.0,0.0,0.0,0.0,0.0,0.0,0.0,0.0,0.0,0.0,0.0,0.0,0.0,0.0,0.0,0.0,0.0,0.0,0.0,0.0,0.0,0.0,0.0,0.0,0.0,0.0,0.0,0.0,0.0,0.0,0.0,0.0,0.0,0.0,0.0,0.0,0.0,0.0,0.0,0.0,0.0,0.0,0.0,0.0,0.0,0.0,0.0,0.0,0.0,0.0,0.0,0.0,0.0,0.0,0.0,0.0,0.0,0.0,0.0,0.0,0.0,0.0,0.0,0.0,0.0,0.0,0.0,0.0,0.0,0.0,0.0,0.0,0.0,0.0,0.0,0.0,0.0,0.0,0.0,0.0,0.0,0.0,0.0,0.0,0.0,0.0,0.0,0.0,0.0,0.0,0.0,0.0,0.0,0.0,0.0,0.0,0.0,0.0,0.0,0.0,0.0,0.0,0.0,0.0,0.0,0.0,0.0,0.0,4.089,4.1671,4.2145,4.2216,4.1492,4.0606,0.0,0.0,0.0,0.0,0.0,0.0,0.0,0.0,0.0,0.0,0.0,0.0,0.0,0.0,0.0,0.0,0.0,0.0,0.0,0.0,0.0,0.0,0.0,0.0,0.0,0.0,0.0,0.0,0.0,0.0,0.0,0.0,0.0,0.0,0.0,0.0,0.0,0.0,0.0,0.0,0.0,0.0,0.0,0.0,0.0,0.0,0.0,0.0,0.0,0.0,0.0,0.0,0.0,0.0,0.0,0.0,0.0,0.0,0.0,0.0,0.0,0.0,0.0,0.0,0.0,0.0,0.0,0.0,0.0,0.0,0.0,0.0,0.0,0.0,0.0,0.0,0.0,0.0,0.0,0.0,0.0,0.0,0.0,0.0,0.0,0.0,0.0,0.0,0.0,0.0,0.0,0.0,0.0,0.0,0.0,0.0,0.0,0.0,0.0,0.0,0.0,0.0,0.0,0.0,0.0,0.0,0.0,0.0,0.0,4.0175,4.0566,4.0828,4.0867,4.0521,3.9868,0.0,0.0,0.0,0.0,0.0,0.0,0.0,0.0,0.0,0.0,0.0,0.0,0.0,0.0,0.0,0.0,0.0,0.0,0.0,0.0,0.0,0.0,0.0,0.0,0.0,0.0,0.0,0.0,0.0,0.0,0.0,0.0,0.0,0.0,0.0,0.0,0.0,0.0,0.0,0.0,0.0,0.0,0.0,0.0,0.0,0.0,0.0,0.0,0.0,0.0,0.0,0.0,0.0,0.0,0.0,0.0,0.0,0.0,0.0,0.0,0.0,0.0,0.0,0.0,0.0,0.0,0.0,0.0,0.0,0.0,0.0,0.0,0.0,0.0,0.0,0.0,0.0,0.0,0.0,0.0,0.0,0.0,0.0,0.0,0.0,0.0,0.0,0.0,0.0,0.0,0.0,0.0,0.0,0.0,0.0,0.0,0.0,0.0,0.0,0.0,0.0,0.0,0.0,0.0,0.0,0.0,0.0,0.0,0.0,3.9929,0.0,4.0141,4.0141,3.9759,3.9269,0.0,0.0,0.0,0.0,0.0,0.0,0.0,0.0,0.0,0.0,0.0,0.0,0.0,0.0,0.0,0.0,0.0,0.0,0.0,0.0,0.0,0.0,0.0,0.0,0.0,0.0,0.0,0.0,0.0,0.0,0.0,0.0,0.0,0.0,0.0,0.0,0.0,0.0,0.0,0.0,0.0,0.0,0.0,0.0,0.0,0.0,0.0,0.0,0.0,0.0,0.0,0.0,0.0,0.0,0.0,0.0,0.0,0.0,0.0,0.0,0.0,0.0,0.0,0.0,0.0,0.0,0.0,0.0,0.0,0.0,0.0,0.0,0.0,0.0,0.0,0.0,0.0,0.0,0.0,0.0,0.0,0.0,0.0,0.0,0.0,0.0,0.0,0.0,0.0,0.0,0.0,0.0,0.0,0.0,0.0,0.0,0.0,0.0,0.0,0.0,0.0,0.0,0.0,0.0,0.0,0.0,0.0,0.0,3.9938,4.0127,4.0146,4.0092,4.0146,3.9336,3.8866,0.0,0.0,0.0,0.0,0.0,0.0,0.0,0.0,0.0,0.0,0.0,0.0,0.0,0.0,0.0,0.0,0.0,0.0,0.0,0.0,0.0,0.0,0.0,0.0,0.0,0.0,0.0,0.0,0.0,0.0,0.0,0.0,0.0,0.0,0.0,0.0,0.0,0.0,0.0,0.0,0.0,0.0,0.0,0.0,0.0,0.0,0.0,0.0,0.0,0.0,0.0,0.0,0.0,0.0,0.0,0.0,0.0,0.0,0.0,0.0,0.0,0.0,0.0,0.0,0.0,0.0,0.0,0.0,0.0,0.0,0.0,0.0,0.0,0.0,0.0,0.0,0.0,0.0,0.0,0.0,0.0,0.0,0.0,0.0,0.0,0.0,0.0,0.0,0.0,0.0,0.0,0.0,0.0,0.0,0.0,0.0,0.0,0.0,0.0,0.0,0.0,0.0,0.0,0.0,0.0,0.0,0.0,0.0,0.0,3.8758,3.8865,3.8847,3.874,3.8506,3.8222,0.0,0.0,0.0,0.0,0.0,0.0,0.0,0.0,0.0,0.0,0.0,0.0,0.0,0.0,0.0,0.0,0.0,0.0,0.0,0.0,0.0,0.0,0.0,0.0,0.0,0.0,0.0,0.0,0.0,0.0,0.0,0.0,0.0,0.0,0.0,0.0,0.0,0.0,0.0,0.0,0.0,0.0,0.0,0.0,0.0,0.0,0.0,0.0,0.0,0.0,0.0,0.0,0.0,0.0,0.0,0.0,0.0,0.0,0.0,0.0,0.0,0.0,0.0,0.0,0.0,0.0,0.0,0.0,0.0,0.0,0.0,0.0,0.0,0.0,0.0,0.0,0.0,0.0,0.0,0.0,0.0,0.0,0.0,0.0,0.0,0.0,0.0,0.0,0.0,0.0,0.0,0.0,0.0,0.0,0.0,0.0,0.0,0.0,0.0,0.0,0.0,0.0,0.0,0.0,0.0,0.0,0.0,0.0,0.0,3.8372,3.8358,3.8307,3.8201,3.8135,3.7984,3.7757,0.0,0.0,0.0,0.0,0.0,0.0,0.0,0.0,0.0,0.0,0.0,0.0,0.0,0.0,0.0,0.0,0.0,0.0,0.0,0.0,0.0,0.0,0.0,0.0,0.0,0.0,0.0,0.0,0.0,0.0,0.0,0.0,0.0,0.0,0.0,0.0,0.0,0.0,0.0,0.0,0.0,0.0,0.0,0.0,0.0,0.0,0.0,0.0,0.0,0.0,0.0,0.0,0.0,0.0,0.0,0.0,0.0,0.0,0.0,0.0,0.0,0.0,0.0,0.0,0.0,0.0,0.0,0.0,0.0,0.0,0.0,0.0,0.0,0.0,0.0,0.0,0.0,0.0,0.0,0.0,0.0,0.0,0.0,0.0,0.0,0.0,0.0,0.0,0.0,0.0,0.0,0.0,0.0,0.0,0.0,0.0,0.0,0.0,0.0,0.0,0.0,0.0,0.0,0.0,0.0,0.0,0.0,0.0,3.8738,3.8431,3.8332,3.8415,3.8252,3.8086,0.0,0.0,0.0,0.0,0.0,0.0,0.0,0.0,0.0,0.0,0.0,0.0,0.0,0.0,0.0,0.0,0.0,0.0,0.0,0.0,0.0,0.0,0.0,0.0,0.0,0.0,0.0,0.0,0.0,0.0,0.0,0.0,0.0,0.0,0.0,0.0,0.0,0.0,0.0,0.0,0.0,0.0,0.0,0.0,0.0,0.0,0.0,0.0,0.0,0.0,0.0,0.0,0.0,0.0,0.0,0.0,0.0,0.0,0.0,0.0,0.0,0.0,0.0,0.0,0.0,0.0,0.0,0.0,0.0,0.0,0.0,0.0,0.0,0.0,0.0,0.0,0.0,0.0,0.0,0.0,0.0,0.0,0.0,0.0,0.0,0.0,0.0,0.0,0.0,0.0,0.0,0.0,0.0,0.0,0.0,0.0,0.0,0.0,0.0,0.0,0.0,0.0,0.0,0.0,0.0,0.0,0.0,0.0,0.0,3.7978,3.7322,3.7514,3.8554,3.8496,3.83,0.0,0.0,0.0,0.0,0.0,0.0,0.0,0.0,0.0,0.0,0.0,0.0,0.0,0.0,0.0,0.0,0.0,0.0,0.0,0.0,0.0,0.0,0.0,0.0,0.0,0.0,0.0,0.0,0.0,0.0,0.0,0.0,0.0,0.0,0.0,0.0,0.0,0.0,0.0,0.0,0.0,0.0,0.0,0.0,0.0,0.0,0.0,0.0,0.0,0.0,0.0,0.0,0.0,0.0,0.0,0.0,0.0,0.0,0.0,0.0,0.0,0.0,0.0,0.0,0.0,0.0,0.0,0.0,0.0,0.0,0.0,0.0,0.0,0.0,0.0,0.0,0.0,0.0,0.0,0.0,0.0,0.0,0.0,0.0,0.0,0.0,0.0,0.0,0.0,0.0,0.0,0.0,0.0,0.0,0.0,0.0,0.0,0.0,0.0,0.0,0.0,0.0,0.0,0.0,0.0,0.0,0.0,0.0,3.7757,3.7765,3.6986,3.6961,3.7808,3.7973,3.7935,0.0,0.0,0.0,0.0,0.0,0.0,0.0,0.0,0.0,0.0,0.0,0.0,0.0,0.0,0.0,0.0,0.0,0.0,0.0,0.0,0.0,0.0,0.0,0.0,0.0,0.0,0.0,0.0,0.0,0.0,0.0,0.0,0.0,0.0,0.0,0.0,0.0,0.0,0.0,0.0,0.0,0.0,0.0,0.0,0.0,0.0,0.0,0.0,0.0,0.0,0.0,0.0,0.0,0.0,0.0,0.0,0.0,0.0,0.0,0.0,0.0,0.0,0.0,0.0,0.0,0.0,0.0,0.0,0.0,0.0,0.0,0.0,0.0,0.0,0.0,0.0,0.0,0.0,0.0,0.0,0.0,0.0,0.0,0.0,0.0,0.0,0.0,0.0,0.0,0.0,0.0,0.0,0.0,0.0,0.0,0.0,0.0,0.0,0.0,0.0,0.0,0.0,0.0,0.0,0.0,0.0,0.0,0.0,3.7691,3.7623,3.6861,3.6419,3.635,3.7061,3.732,0.0,0.0,0.0,0.0,0.0,0.0,0.0,0.0,0.0,0.0,0.0,0.0,0.0,0.0,0.0,0.0,0.0,0.0,0.0,0.0,0.0,0.0,0.0,0.0,0.0,0.0,0.0,0.0,0.0,0.0,0.0,0.0,0.0,0.0,0.0,0.0,0.0,0.0,0.0,0.0,0.0,0.0,0.0,0.0,0.0,0.0,0.0,0.0,0.0,0.0,0.0,0.0,0.0,0.0,0.0,0.0,0.0,0.0,0.0,0.0,0.0,0.0,0.0,0.0,0.0,0.0,0.0,0.0,0.0,0.0,0.0,0.0,0.0,0.0,0.0,0.0,0.0,0.0,0.0,0.0,0.0,0.0,0.0,0.0,0.0,0.0,0.0,0.0,0.0,0.0,0.0,0.0,0.0,0.0,0.0,0.0,0.0,0.0,0.0,0.0,0.0,0.0,0.0,0.0,0.0,0.0,0.0,0.0,3.6649,3.6017,3.5163,3.4711,3.4636,3.6528,3.7459,0.0,0.0,0.0,0.0,0.0,0.0,0.0,0.0,0.0,0.0,0.0,0.0,0.0,0.0,0.0,0.0,0.0,0.0,0.0,0.0,0.0,0.0,0.0,0.0,0.0,0.0,0.0,0.0,0.0,0.0,0.0,0.0,0.0,0.0,0.0,0.0,0.0,0.0,0.0,0.0,0.0,0.0,0.0,0.0,0.0,0.0,0.0,0.0,4.0871,0.0,0.0,0.0,0.0,0.0,0.0,0.0,0.0,0.0,0.0,0.0,0.0,0.0,0.0,0.0,0.0,0.0,0.0,0.0,0.0,0.0,0.0,0.0,0.0,0.0,0.0,0.0,0.0,0.0,0.0,0.0,0.0,0.0,0.0,0.0,0.0,0.0,0.0,0.0,0.0,0.0,0.0,0.0,0.0,0.0,0.0,0.0,0.0,0.0,0.0,0.0,0.0,0.0,0.0,0.0,0.0,0.0,0.0,0.0,3.6315,3.5491,3.4643,3.4173,3.4204,3.5705,3.6591,0.0,0.0,0.0,0.0,0.0,0.0,0.0,0.0,0.0,0.0,0.0,0.0,0.0,0.0,0.0,0.0,0.0,0.0,0.0,0.0,0.0,0.0,0.0,0.0,0.0,0.0,0.0,0.0,0.0,0.0,0.0,0.0,0.0,0.0,0.0,0.0,0.0,0.0,0.0,0.0,0.0,0.0,0.0,0.0,0.0,0.0,0.0,0.0,0.0,0.0,0.0,0.0,0.0,0.0,0.0,0.0,0.0,0.0,0.0,0.0,0.0,0.0,0.0,0.0,0.0,0.0,0.0,0.0,0.0,0.0,0.0,0.0,0.0,0.0,0.0,0.0,0.0,0.0,0.0,0.0,0.0,0.0,0.0,0.0,0.0,0.0,0.0,0.0,0.0,0.0,0.0,0.0,0.0,0.0,0.0,0.0,0.0,0.0,0.0,0.0,0.0,0.0,0.0,0.0,0.0,0.0,0.0,3.6928,3.6129,3.5324,3.4563,3.4216,3.4216,3.4796,3.5495,3.6221,0.0,0.0,0.0,0.0,0.0,0.0,0.0,0.0,0.0,0.0,0.0,0.0,0.0,0.0,0.0,0.0,0.0,0.0,0.0,0.0,0.0,0.0,0.0,0.0,0.0,0.0,0.0,0.0,0.0,0.0,0.0,0.0,0.0,0.0,0.0,0.0,0.0,0.0,4.0965,4.0918,0.0,0.0,0.0,0.0,0.0,0.0,0.0,0.0,4.0871,0.0,0.0,0.0,0.0,0.0,0.0,0.0,0.0,0.0,0.0,0.0,0.0,0.0,0.0,0.0,0.0,0.0,0.0,0.0,0.0,0.0,0.0,0.0,0.0,0.0,0.0,0.0,0.0,0.0,0.0,0.0,0.0,0.0,0.0,0.0,0.0,0.0,0.0,0.0,0.0,0.0,0.0,0.0,0.0,0.0,0.0,0.0,0.0,0.0,0.0,0.0,0.0,0.0,0.0,0.0,0.0,3.6909,3.6092,3.5293,3.4439,3.4271,3.4216,3.4216,3.4272,3.4992,3.6362,0.0,0.0,0.0,0.0,0.0,0.0,0.0,0.0,0.0,0.0,0.0,0.0,0.0,0.0,0.0,0.0,0.0,0.0,0.0,0.0,0.0,0.0,0.0,0.0,0.0,0.0,0.0,0.0,0.0,0.0,0.0,0.0,0.0,0.0,0.0,0.0,0.0,0.0,0.0,4.1163,4.1163,0.0,0.0,0.0,0.0,0.0,0.0,0.0,0.0,4.0871,0.0,0.0,0.0,0.0,0.0,0.0,0.0,0.0,0.0,0.0,0.0,0.0,0.0,0.0,0.0,0.0,0.0,0.0,0.0,0.0,0.0,0.0,0.0,0.0,0.0,0.0,0.0,0.0,0.0,0.0,0.0,0.0,0.0,0.0,0.0,0.0,0.0,0.0,0.0,0.0,0.0,0.0,0.0,0.0,0.0,0.0,0.0,0.0,0.0,0.0,0.0,0.0,0.0,0.0,0.0,3.6705,3.5887,3.507,3.4253,3.4216,3.4216,3.4216,3.4575,3.5314,0.0,0.0,0.0,0.0,0.0,0.0,0.0,0.0,0.0,0.0,0.0,0.0,0.0,0.0,0.0,0.0,0.0,0.0,0.0,0.0,0.0,0.0,0.0,0.0,0.0,0.0,0.0,0.0,0.0,0.0,0.0,0.0,0.0,0.0,0.0,0.0,0.0,0.0,0.0,0.0,4.1209,4.1209,4.1209,0.0,0.0,0.0,0.0,0.0,0.0,4.0935,4.0871,0.0,0.0,0.0,0.0,0.0,0.0,0.0,0.0,0.0,0.0,0.0,0.0,0.0,0.0,0.0,0.0,0.0,0.0,0.0,0.0,0.0,0.0,0.0,0.0,0.0,0.0,0.0,0.0,0.0,0.0,0.0,0.0,0.0,0.0,0.0,0.0,0.0,0.0,0.0,0.0,0.0,0.0,0.0,0.0,0.0,0.0,0.0,0.0,0.0,0.0,0.0,0.0,0.0,0.0,0.0,3.6686,3.572,3.4884,3.4234,3.4216,3.4216,3.4216,3.4816,3.5625,0.0,0.0,0.0,0.0,0.0,0.0,0.0,0.0,0.0,0.0,0.0,0.0,0.0,0.0,0.0,0.0,0.0,0.0,0.0,0.0,0.0,0.0,0.0,0.0,0.0,0.0,0.0,0.0,0.0,0.0,0.0,0.0,0.0,0.0,0.0,0.0,0.0,0.0,0.0,0.0,0.0,4.1255,4.13,4.1255,0.0,0.0,0.0,0.0,4.1123,4.1029,0.0,0.0,0.0,0.0,0.0,0.0,0.0,0.0,0.0,0.0,0.0,0.0,0.0,0.0,0.0,0.0,0.0,0.0,0.0,0.0,0.0,0.0,0.0,0.0,0.0,0.0,0.0,0.0,0.0,0.0,0.0,0.0,0.0,0.0,0.0,0.0,0.0,0.0,0.0,0.0,0.0,0.0,0.0,0.0,0.0,0.0,0.0,0.0,0.0,0.0,0.0,0.0,0.0,0.0,0.0,0.0,3.6649,3.5144,3.429,3.4216,3.4216,3.4216,3.4216,3.429,3.5039,0.0,0.0,0.0,0.0,0.0,0.0,0.0,0.0,0.0,0.0,0.0,0.0,0.0,0.0,0.0,0.0,0.0,0.0,0.0,0.0,0.0,0.0,0.0,0.0,0.0,0.0,0.0,0.0,0.0,0.0,0.0,0.0,0.0,0.0,0.0,0.0,0.0,0.0,0.0,0.0,0.0,4.156,4.1542,4.1453,4.138,0.0,0.0,4.1163,4.1163,4.1123,0.0,0.0,0.0,0.0,0.0,0.0,0.0,0.0,0.0,0.0,0.0,0.0,0.0,0.0,0.0,0.0,0.0,0.0,0.0,0.0,0.0,0.0,0.0,0.0,0.0,0.0,0.0,0.0,0.0,0.0,0.0,0.0,0.0,0.0,0.0,0.0,0.0,0.0,0.0,0.0,0.0,0.0,0.0,0.0,0.0,0.0,0.0,0.0,0.0,0.0,0.0,0.0,0.0,0.0,0.0,3.6705,3.6649,3.5052,3.4216,3.4216,3.4216,3.4216,3.4216,3.468,3.5497,0.0,0.0,0.0,0.0,0.0,0.0,0.0,0.0,0.0,0.0,0.0,0.0,0.0,0.0,0.0,0.0,0.0,0.0,0.0,0.0,0.0,0.0,0.0,0.0,0.0,0.0,0.0,0.0,0.0,0.0,0.0,0.0,0.0,0.0,0.0,0.0,0.0,0.0,0.0,0.0,0.0,0.0,4.2405,4.237,0.0,0.0,0.0,4.2684,4.2608,0.0,0.0,0.0,0.0,0.0,0.0,0.0,0.0,0.0,0.0,0.0,0.0,0.0,0.0,0.0,0.0,0.0,0.0,0.0,0.0,0.0,0.0,0.0,0.0,0.0,0.0,0.0,0.0,0.0,0.0,0.0,0.0,0.0,0.0,0.0,0.0,0.0,0.0,0.0,0.0,0.0,0.0,0.0,0.0,0.0,0.0,0.0,0.0,0.0,0.0,0.0,0.0,0.0,0.0,0.0,0.0,0.0,3.6668,3.5033,3.4216,3.4216,3.4216,3.4216,3.4216,3.4829,0.0,0.0,0.0,0.0,0.0,0.0,0.0,0.0,0.0,0.0,0.0,0.0,0.0,0.0,0.0,0.0,0.0,0.0,0.0,0.0,0.0,0.0,0.0,0.0,0.0,0.0,0.0,3.7241,0.0,0.0,0.0,0.0,0.0,0.0,0.0,0.0,0.0,0.0,0.0,0.0,0.0,0.0,4.2569,4.3119,4.3367,4.3616,0.0,0.0,4.3904,4.3793,4.3715,4.3659,0.0,0.0,0.0,0.0,0.0,0.0,0.0,0.0,0.0,0.0,0.0,0.0,0.0,0.0,0.0,0.0,0.0,0.0,0.0,0.0,0.0,0.0,0.0,0.0,0.0,0.0,0.0,0.0,0.0,0.0,0.0,0.0,0.0,0.0,0.0,0.0,0.0,0.0,0.0,0.0,0.0,0.0,0.0,0.0,0.0,0.0,0.0,0.0,0.0,0.0,0.0,0.0,0.0,0.0,0.0,3.663,3.5052,3.4197,3.4216,3.4216,3.4216,3.4216,3.4271,3.5052,0.0,0.0,0.0,0.0,0.0,0.0,0.0,0.0,0.0,0.0,0.0,0.0,0.0,0.0,0.0,0.0,0.0,0.0,0.0,0.0,0.0,0.0,0.0,0.0,0.0,0.0,0.0,0.0,0.0,0.0,0.0,0.0,0.0,0.0,0.0,0.0,0.0,0.0,0.0,0.0,0.0,4.3411,4.3465,4.4003,4.4414,0.0,0.0,4.4089,4.4107,4.3857,4.396,4.4712,0.0,0.0,0.0,0.0,0.0,0.0,0.0,0.0,0.0,0.0,0.0,0.0,0.0,0.0,0.0,0.0,0.0,0.0,0.0,0.0,0.0,0.0,0.0,0.0,0.0,0.0,0.0,0.0,0.0,0.0,0.0,0.0,0.0,0.0,0.0,0.0,0.0,0.0,0.0,0.0,0.0,0.0,0.0,0.0,0.0,0.0,0.0,0.0,0.0,0.0,0.0,0.0,0.0,3.6814,3.6795,3.5174,3.4335,3.4335,3.4293,3.4288,3.4269,3.4203,3.4754,0.0,0.0,0.0,0.0,0.0,0.0,0.0,0.0,0.0,0.0,0.0,0.0,0.0,0.0,0.0,0.0,0.0,0.0,0.0,0.0,0.0,0.0,0.0,0.0,0.0,0.0,0.0,0.0,3.7577,3.7613,3.7685,0.0,0.0,0.0,0.0,0.0,0.0,0.0,0.0,0.0,0.0,4.4219,4.509,4.5462,0.0,0.0,4.5952,4.5797,4.5564,4.5404,4.5414,4.5551,4.5536,0.0,0.0,0.0,0.0,0.0,0.0,0.0,0.0,0.0,0.0,0.0,0.0,0.0,0.0,0.0,0.0,0.0,0.0,0.0,0.0,0.0,0.0,0.0,0.0,0.0,0.0,0.0,0.0,0.0,0.0,0.0,0.0,0.0,0.0,0.0,0.0,0.0,0.0,0.0,0.0,0.0,0.0,0.0,0.0,0.0,0.0,0.0,0.0,0.0,0.0,0.0,0.0,3.715,3.6907,3.5488,3.4647,3.4386,3.434,3.4316,3.4316,3.4311,3.4654,0.0,0.0,0.0,0.0,0.0,0.0,0.0,0.0,0.0,0.0,0.0,0.0,0.0,0.0,0.0,0.0,0.0,0.0,0.0,0.0,0.0,0.0,0.0,0.0,0.0,0.0,0.0,0.0,3.7577,3.772,3.8026,0.0,0.0,0.0,0.0,0.0,0.0,0.0,0.0,0.0,0.0,4.5025,4.6287,4.6602,4.6837,4.7178,4.7088,4.6888,4.6637,4.6495,4.6332,4.6154,0.0,0.0,0.0,0.0,0.0,0.0,0.0,0.0,0.0,0.0,0.0,0.0,0.0,0.0,0.0,0.0,0.0,0.0,0.0,0.0,0.0,0.0,0.0,0.0,0.0,0.0,0.0,0.0,0.0,0.0,4.072,0.0,0.0,0.0,0.0,0.0,0.0,0.0,0.0,0.0,0.0,0.0,0.0,0.0,0.0,0.0,0.0,0.0,0.0,0.0,0.0,0.0,0.0,3.7673,3.6926,3.6072,3.5245,3.4423,3.4386,3.4386,3.4386,3.4386,3.4773,3.5578,0.0,0.0,0.0,0.0,0.0,0.0,0.0,0.0,0.0,0.0,0.0,0.0,0.0,0.0,0.0,0.0,0.0,0.0,0.0,0.0,0.0,0.0,0.0,0.0,0.0,0.0,3.7577,3.7577,3.7971,0.0,0.0,0.0,0.0,0.0,0.0,0.0,0.0,0.0,0.0,4.5093,4.5858,4.6676,4.7298,4.7645,4.7675,4.7312,4.6998,4.698,4.6637,4.6381,0.0,0.0,0.0,0.0,0.0,0.0,0.0,0.0,0.0,0.0,0.0,0.0,0.0,0.0,0.0,0.0,0.0,0.0,0.0,0.0,0.0,0.0,0.0,0.0,0.0,0.0,0.0,4.079,4.079,0.0,0.0,0.0,0.0,0.0,0.0,0.0,0.0,0.0,0.0,0.0,3.9804,3.9777,0.0,0.0,0.0,0.0,0.0,0.0,0.0,0.0,0.0,0.0,0.0,0.0,3.7976,3.7186,3.6295,3.545,3.462,3.4517,3.4473,3.4473,3.4427,3.4815,3.5651,0.0,0.0,0.0,0.0,0.0,0.0,0.0,0.0,0.0,0.0,0.0,0.0,0.0,0.0,0.0,0.0,0.0,0.0,0.0,0.0,0.0,0.0,0.0,0.0,0.0,3.7577,0.0,0.0,0.0,0.0,0.0,0.0,0.0,0.0,0.0,0.0,0.0,4.4473,4.5279,4.6214,4.7022,4.7734,4.7986,4.801,0.0,0.0,0.0,0.0,0.0,0.0,0.0,0.0,0.0,0.0,0.0,0.0,0.0,0.0,4.577,4.5563,4.5459,4.5441,4.5441,0.0,0.0,0.0,0.0,0.0,0.0,0.0,0.0,0.0,0.0,0.0,0.0,0.0,0.0,4.079,0.0,4.079,0.0,0.0,0.0,0.0,0.0,0.0,0.0,0.0,4.0096,4.0015,3.9826,3.9804,3.9762,0.0,3.9712,3.9708,0.0,0.0,0.0,0.0,0.0,0.0,0.0,0.0,3.8524,3.7713,3.6842,3.5991,3.52,3.4776,3.4583,3.4561,3.4495,3.4712,3.5273,3.5501,3.6106,0.0,0.0,0.0,0.0,0.0,0.0,0.0,0.0,0.0,0.0,0.0,0.0,0.0,0.0,0.0,0.0,0.0,0.0,0.0,0.0,0.0,0.0,0.0,3.7577,0.0,0.0,0.0,0.0,0.0,0.0,0.0,0.0,0.0,4.3634,4.4307,4.5165,4.6286,4.7002,4.7646,4.831,0.0,0.0,0.0,0.0,0.0,0.0,0.0,4.6888,4.659,4.6447,4.6332,4.6221,4.6189,4.6172,4.6073,0.0,0.0,4.5718,4.5581,4.5476,4.5476,4.5406,4.5441,4.5441,4.5441,4.5441,0.0,0.0,0.0,0.0,0.0,0.0,0.0,0.0,4.079,4.079,0.0,4.079,0.0,0.0,0.0,0.0,0.0,4.0403,0.0,0.0,4.0096,4.0017,3.9889,3.9826,3.9804,3.9804,3.9754,3.9735,3.9804,3.9735,0.0,0.0,0.0,0.0,0.0,0.0,3.9297,3.849,3.7753,3.6923,3.6073,3.5318,3.4843,3.4743,3.458,3.4514,3.4532,3.5254,3.5651,3.5658,3.7047,0.0,0.0,0.0,0.0,0.0,0.0,0.0,0.0,0.0,0.0,0.0,0.0,0.0,0.0,0.0,0.0,0.0,0.0,0.0,0.0,3.7577,0.0,0.0,0.0,0.0,0.0,0.0,0.0,0.0,0.0,0.0,4.4782,4.4943,4.5584,4.7183,0.0,0.0,0.0,0.0,4.8306,4.8306,4.7988,4.7657,4.7565,4.7223,4.6998,4.6877,0.0,0.0,4.6221,4.6221,4.6189,4.6189,4.6073,4.5972,4.5821,4.5736,4.5632,4.5632,4.5511,4.5423,4.5441,4.5423,4.5423,4.0792,0.0,0.0,0.0,0.0,4.079,4.079,4.079,4.079,4.079,4.079,4.079,0.0,0.0,0.0,0.0,0.0,0.0,4.0272,4.0117,4.0096,4.0036,3.9889,3.9889,3.9892,3.9954,3.9933,3.9954,4.0015,3.9994,3.9954,3.9911,0.0,0.0,0.0,0.0,3.9558,3.8762,3.8474,3.7923,3.7089,3.68,3.6302,3.5635,3.5007,3.4645,3.4645,3.4761,3.5109,3.5666,3.659,0.0,0.0,0.0,0.0,0.0,0.0,0.0,0.0,0.0,0.0,0.0,0.0,0.0,0.0,0.0,0.0,0.0,0.0,0.0,3.7577,3.7577,3.7826,0.0,0.0,0.0,0.0,0.0,0.0,0.0,0.0,0.0,4.6467,4.674,4.6995,0.0,0.0,4.8526,4.8714,4.8697,4.8587,4.8363,0.0,0.0,0.0,4.7785,4.734,4.7729,4.7009,4.6398,4.6332,4.627,4.6189,4.6189,4.6172,4.614,4.609,4.5871,4.577,4.5718,4.5718,4.5684,4.5667,4.5615,4.5528,4.1834,4.178,4.1105,4.079,4.079,4.079,4.079,4.079,4.079,4.079,4.079,4.079,4.079,4.0765,4.0626,0.0,0.0,0.0,4.0253,4.0096,4.0077,4.0015,3.9933,3.9933,3.9975,4.0036,4.0036,4.0077,4.0137,4.0138,4.0138,4.0099,0.0,0.0,4.0138,4.0138,3.989,3.9357,3.9052,3.8613,3.808,3.7659,3.7162,3.657,3.6054,3.5598,3.5237,3.5114,3.5274,3.5716,3.6446,3.7205,0.0,0.0,0.0,0.0,0.0,0.0,0.0,0.0,0.0,0.0,0.0,3.7577,0.0,0.0,0.0,0.0,3.7577,3.7577,3.7577,3.788,0.0,0.0,0.0,0.0,0.0,0.0,0.0,4.4271,4.4858,4.5752,4.722,4.7789,4.8134,4.8116,4.8558,4.8874,4.8857,0.0,4.8697,4.8458,4.8581,4.8769,4.8896,4.8583,4.8282,4.8139,4.75,4.6782,4.6434,4.6301,4.6221,4.6189,4.6189,4.6189,4.6189,4.6073,4.5922,4.5871,4.5838,4.5838,4.5787,4.5736,4.5684,4.34,4.3249,4.1679,4.0977,4.0887,4.0829,4.079,4.079,4.079,4.079,4.079,4.079,4.0746,4.0687,4.0549,0.0,4.0398,4.0253,4.0157,4.0096,4.0036,4.0015,4.0015,4.0015,4.0057,4.0098,4.0117,4.0157,4.0215,4.0215,4.0252,4.0325,4.0253,4.0234,4.0215,4.0215,4.0196,4.0214,3.9488,3.9069,3.9013,3.8099,3.7585,3.7524,3.7446,3.6986,3.6149,3.605,3.6004,3.5935,3.6672,3.7362,3.791,0.0,0.0,0.0,0.0,0.0,0.0,0.0,0.0,0.0,0.0,0.0,0.0,0.0,0.0,0.0,3.7577,0.0,3.7684,3.8362,0.0,0.0,0.0,4.1207,4.1456,4.2214,4.3144,4.4362,0.0,0.0,4.7387,0.0,4.8909,4.889,4.889,4.889,4.889,4.8857,4.8787,4.8735,4.9157,4.9456,4.9404,4.9629,4.9477,4.8413,4.7997,4.7634,4.687,4.646,4.6344,4.6379,4.6274,4.6189,4.6189,4.6172,4.6189,4.6023,4.5922,4.5838,4.5821,4.5838,4.5821,4.3391,4.3361,4.2974,4.2363,4.1661,4.1061,4.079,4.079,4.079,4.079,4.079,4.079,4.0746,4.0621,4.0534,4.046,4.0398,4.0252,4.0158,4.0117,4.0096,4.0038,3.9996,4.0038,4.0117,4.0157,4.0177,4.0196,4.0271,4.0326,4.0377,4.0441,4.0425,4.0408,4.0356,4.0356,4.0356,4.0356,4.0164,4.0053,3.9927,3.9107,3.8613,3.8518,3.7832,3.7355,3.7086,3.7062,3.6998,3.6885,3.7587,3.8021,3.8153,3.8718,0.0,0.0,0.0,0.0,0.0,0.0,0.0,0.0,0.0,3.7649,3.7613,0.0,3.7577,0.0,3.7577,3.7844,3.8451,3.8701,0.0,0.0,4.0895,4.1421,4.221,4.3102,4.4017,4.5182,4.6176,4.7206,4.8199,4.8603,4.8857,4.8909,4.889,4.889,4.889,4.8874,4.9026,4.9437,4.96,4.9958,5.0763,5.0769,5.034,4.9299,4.8989,4.8706,4.8378,4.7735,4.7216,4.7064,4.6607,4.6242,4.6224,4.6189,4.6207,4.6172,4.614,4.614,4.614,4.604,4.599,4.4558,4.4517,4.4141,4.3647,4.3099,4.2293,4.1699,4.1313,4.1332,4.1139,4.079,4.0746,4.0654,4.0598,4.0492,4.043,4.0362,4.0253,4.0177,4.0157,4.0098,4.0117,4.0098,4.0118,4.0177,4.0253,4.0271,4.0325,4.0396,4.043,4.0476,4.0539,4.0554,4.0549,4.0534,4.05,4.0485,4.0485,4.0492,4.0444,4.0372,3.9881,3.9581,3.949,3.8976,3.8499,3.8021,3.8017,3.7934,3.787,3.8173,3.8493,3.8758,3.9093,3.9229,0.0,0.0,0.0,0.0,0.0,0.0,0.0,0.0,0.0,0.0,0.0,3.7649,0.0,3.7916,3.8326,3.8754,3.9432,4.0182,4.102,4.1413,4.1904,4.2512,4.331,4.4285,4.5417,4.643,4.7444,4.844,4.8732,4.8804,4.8909,4.889,4.889,4.889,4.889,4.9117,4.9769,5.0119,5.0717,5.1876,5.17,5.1102,5.0223,4.9852,4.9518,4.8979,4.8491,4.8076,4.7904,4.752,4.7239,4.7239,4.7239,4.7169,4.6818,4.6748,4.6607,4.6259,4.6122,4.6073,4.5986,4.5925,4.5192,4.4827,4.4724,4.395,4.3066,4.2164,4.2164,4.1777,4.1119,4.0977,4.0921,4.0935,4.0773,4.0686,4.0632,4.0559,4.052,4.0501,4.0441,4.0423,4.0368,4.0387,4.0348,4.0325,4.0379,4.043,4.0499,4.0508,4.0573,4.0622,4.0709,4.0828,4.0874,4.0924,4.0833,4.0621,4.0607,4.0562,4.0504,4.0438,4.0358,4.0233,4.0215,3.9814,3.9033,3.8914,3.8871,3.8831,3.8659,3.8865,3.9489,3.9508,3.9399,0.0,3.9129,0.0,0.0,0.0,0.0,0.0,0.0,0.0,0.0,3.7703,3.7739,3.7756,3.8397,3.8879,3.9093,4.0307,4.1145,4.127,4.1877,4.2382,4.2647,4.3409,4.4385,4.5482,4.6517,4.7497,4.8403,4.8697,4.8804,4.8874,4.8909,4.889,4.889,4.889,4.9208,4.9972,5.0841,5.1728,5.236,5.2315,5.1814,5.1042,5.0655,5.0208,4.9454,4.9142,4.8884,4.8713,4.8521,4.8451,4.8503,4.8468,4.8257,4.7661,4.7538,4.7257,4.6467,4.6189,4.6189,4.5997,4.5986,4.5828,4.5747,4.5716,4.5498,4.4499,4.3073,4.3053,4.2957,4.2841,4.2753,4.271,4.2695,4.2516,4.2409,4.2391,4.2278,4.2237,4.2237,4.2217,4.1875,4.1284,4.1323,4.0996,4.0417,4.0444,4.0492,4.0508,4.0549,4.0626,4.0693,4.1382,4.1743,4.1803,0.0,0.0,0.0,4.0631,4.0583,4.0593,4.0519,4.0473,4.046,4.0341,0.0,3.9948,3.987,3.9768,3.9683,3.9596,0.0,0.0,0.0,0.0,0.0,0.0,0.0,0.0,0.0,0.0,0.0,3.8515,3.8252,3.7984,3.781,3.7954,3.8522,3.8736,3.9307,4.0556,4.0913,4.1359,4.2002,4.2198,4.2578,4.3286,4.4199,4.5155,4.6178,4.7201,4.7929,4.8307,4.8532,4.8697,4.8804,4.8892,4.889,4.8927,4.8946,4.9449,5.0731,5.1925,5.2729,5.2751,5.2508,5.2126,5.1886,5.1625,5.1319,5.0972,5.0287,4.9849,4.9677,4.9012,4.8556,4.8556,4.8521,4.8573,4.8345,4.831,4.7889,4.6537,4.6189,4.6189,4.6638,0.0,4.6189,4.6003,0.0,4.5929,4.5408,4.4557,4.4137,4.3705,4.3305,4.3236,4.3192,4.3142,4.2996,4.2889,4.2852,4.2775,4.2754,4.2754,4.2756,4.2546,4.2145,4.2239,4.2119,4.1731,4.1777,4.1805,4.1836,4.1856,4.1903,4.1936,4.2414,4.264,4.2647,4.3092,4.2653,4.1364,4.0913,4.0673,4.0654,4.0621,4.0559,4.0489,0.0,0.0,0.0,0.0,0.0,0.0,0.0,0.0,0.0,0.0,0.0,3.9495,3.9399,3.9328,3.9248,3.9073,3.8979,3.8892,3.8713,3.8433,3.8018,3.8169,3.8437,3.879,3.9486,4.0253,4.1002,4.1448,4.1841,4.2234,4.2287,4.265,4.3477,4.4348,4.5288,4.6272,4.7234,4.797,4.8286,4.8382,4.8532,4.8751,4.8804,4.9022,4.9429,4.9485,5.0026,5.1471,5.253,5.3133,5.2868,5.2508,5.2228,5.2102,5.1889,5.164,5.1505,5.1116,5.0748,5.0609,5.0188,4.9889,4.9889,4.9889,4.9783,4.9395,4.9238,4.8852,4.7709,4.7114,4.68,4.7531,4.7453,4.6596,4.6236,4.6216,4.5999,4.5929,4.5879,0.0,0.0,0.0,4.3694,4.3616,4.3554,4.3419,4.3349,4.3273,4.3273,4.3273,4.3273,4.3254,4.3178,4.3063,4.3192,4.3184,4.3118,4.3127,4.3158,4.3207,4.3211,4.3206,4.3245,4.3427,4.3614,4.3711,4.3614,4.3189,4.2454,4.1506,4.0913,4.0733,4.0707,4.0648,4.0534,4.0504,4.0441,4.0323,4.0252,4.0177,4.0137,3.9994,3.9845,3.9712,3.9693,3.9658,3.9546,3.952,3.9495,3.9418,3.9275,3.9175,3.9101,3.898,3.8716,3.8269,3.8672,3.9029,3.9238,4.036,4.1145,4.1306,4.1877,4.2287,4.2287,4.2412,4.284,4.3625,4.446,4.5437,4.6344,4.7217,4.7806,4.8151,4.8267,4.8438,4.8715,4.8787,4.9193,5.008,5.0506,5.0991,5.2042,5.2847,5.3217,5.285,5.2581,5.2322,5.2132,5.1907,5.1708,5.1556,5.1523,5.1454,5.128,5.1281,5.1228,5.1263,5.1174,5.1068,5.0431,5.0204,4.9942,4.929,4.8448,4.7801,4.8407,4.8347,4.7481,4.7112,4.7054,4.6297,4.5994,4.5972,4.5782,4.5648,4.5544,4.5465,4.5409,4.5317,4.5255,4.5185,4.5131,4.5055,4.5017,0.0,4.5055,4.469,4.409,4.4107,4.3772,4.3216,4.3183,4.3192,4.3192,4.3258,4.3305,4.3388,4.4059,4.4755,4.5336,4.4775,4.4369,4.4194,4.2641,4.148,4.081,4.0733,4.0687,4.0654,4.0569,4.0508,4.0492,4.0306,4.0196,4.0176,4.0053,3.9924,3.9781,3.9727,3.9693,3.9669,3.962,3.9571,3.9495,3.9469,3.9346,3.9138,3.9497,3.9557,3.9152,3.912,3.9625,4.0766,4.1082,4.1395,4.2019,4.2216,4.2305,4.2358,4.2929,4.3625,4.4392,4.5229,4.6086,4.6944,4.7457,4.7741,4.7893,4.8132,4.8382,4.8605,4.8918,4.9434,5.0879,5.1825,5.2215,5.2375,5.2964,5.3203,5.2893,5.2654,5.2426,5.2132,5.1956,5.1808,5.1708,5.1556,5.1505,5.1454,5.1402,5.1333,5.1333,5.1298,5.1262,5.1085,5.0981,5.0788,5.0594,4.9908,4.9118,4.9312,4.9202,4.8366,4.7997,4.7939,4.7065,4.6685,4.6655,4.6158,4.5929,4.5899,4.5827,4.5786,4.5742,4.5668,4.5601,4.5547,4.5531,4.5513,4.5513,4.5493,4.5336,4.5024,4.5038,4.4913,4.4626,4.4622,4.4597,4.4626,4.4639,4.4639,4.4678,4.5065,4.5432,4.5742,4.5432,4.5026,4.4568,4.3357,4.2293,4.1487,4.1422,4.1177,4.0739,4.0593,4.0534,4.0489,4.0377,4.0271,4.0196,4.0095,3.997,3.9804,3.9777,3.9746,3.9693,3.9669,3.962,3.9571,3.952,3.9586,3.9798,4.0044,4.0412,4.0912,4.069,4.0762,4.1271,4.1622,4.1993,4.2251,4.2287,4.2465,4.2929,4.3304,4.3982,4.5053,4.5596,4.623,4.7035,4.7338,4.7536,4.7723,4.7992,4.8229,4.8569,4.9362,5.0693,5.1881,5.2717,5.3179,5.3119,5.3318,5.3281,5.298,5.2743,5.2472,5.2132,5.2005,5.1858,5.174,5.1658,5.1607,5.1607,5.1538,5.1538,5.1487,5.1487,5.1487,5.1505,5.135,5.1264,5.114,5.0717,4.9943,5.0197,5.0106,4.924,4.8774,4.8561,4.7881,4.7589,4.7512,4.6871,4.6557,4.6472,4.6061,4.5841,4.5814,4.5692,4.5665,4.5648,4.5637,4.562,4.562,4.5616,4.5613,4.5629,4.57,4.5746,4.5795,4.5795,4.581,4.58,4.58,4.58,4.58,4.58,4.58,4.58,4.58,4.549,4.4858,4.4194,4.3357,4.2338,4.2093,4.1674,4.1061,4.0751,4.0593,4.0519,4.0444,4.0344,4.0234,4.0156,4.0013,3.9848,3.9823,3.9773,3.9717,3.9693,3.965,3.962,3.9714,3.996,4.044,4.0764,4.1359,4.222,4.221,4.1977,4.1803,4.2149,4.2427,4.2422,4.2501,4.2822,4.3447,4.3857,4.4517,4.5588,4.5945,4.6329,4.7044,4.7232,4.7407,4.7639,4.7847,4.826,4.8955,5.0491,5.1881,5.2549,5.3292,5.3756,5.3716,5.3598,5.3378,5.3085,5.285,5.2518,5.218,5.2054,5.1907,5.174,5.169,5.169,5.169,5.169,5.169,5.169,5.169,5.169,5.164,5.1487,5.135,5.1298,5.1123,5.0593,5.1074,5.0956,5.0126,4.9299,4.8677,4.851,4.8491,4.8444,4.8366,4.8366,4.8103,4.6682,4.6014,4.5874,4.5872,4.581,4.5819,4.5715,4.57,4.57,4.568,4.5715,4.5781,4.5781,4.5795,4.5819,4.58,4.58,4.5814,4.58,4.58,4.58,4.58,4.58,4.58,4.58,4.5761,4.5684,4.5606,4.4794,4.3253,4.2415,4.1951,4.1893,4.11,4.0654,4.0593,4.0469,4.0375,4.0289,4.0177,4.0057,3.9994,3.9889,3.9758,3.9708,3.9717,3.965,3.9658,4.0202,4.0619,4.0742,4.1837,4.2563,4.2717,4.3067,4.314,4.2793,4.2573,4.2503,4.2517,4.2989,4.3411,4.375,4.4732,4.5677,4.5873,4.6462,4.6926,4.6962,4.7187,4.7345,4.7493,4.7842,4.8574,4.9749,5.125,5.2457,5.2754,5.3311,5.3813,5.3774,5.3639,5.3418,5.3212,5.2937,5.2627,5.2322,5.218,5.1987,5.179,5.1708,5.169,5.169,5.169,5.169,5.169,5.169,5.169,5.169,5.1538,5.1454,5.135,5.1246,5.0947,5.124,5.1152,5.082,5.0487,5.0095,4.9598,4.9365,4.9318,4.8813,4.858,4.8522,4.7831,4.7517,4.7469,4.6907,4.6629,4.6596,4.6079,4.5827,4.5808,4.5827,4.5827,4.5841,4.5841,4.5854,4.5848,4.5874,4.588,4.586,4.5814,4.58,4.58,4.58,4.58,4.58,4.58,4.58,4.58,4.58,4.5452,4.4736,4.346,4.2512,4.197,4.1158,4.0668,4.0607,4.05,4.0408,4.0307,4.0215,4.0098,4.0015,3.9911,3.9845,3.9777,4.0174,4.0384,4.0309,4.1034,4.1683,4.2136,4.2688,4.3152,4.3435,4.3647,4.3582,4.3268,4.2938,4.2829,4.3135,4.3411,4.3864,4.4714,4.5463,4.598,4.648,4.6783,4.6998,4.7043,4.7187,4.732,4.7522,4.8247,4.9475,5.0949,5.2082,5.266,5.3218,5.3608,5.3757,5.3774,5.3716,5.3518,5.3277,5.298,5.2735,5.248,5.2246,5.1987,5.1858,5.1758,5.169,5.169,5.169,5.169,5.169,5.169,5.169,5.169,5.1607,5.1454,5.135,5.1298,5.1246,5.1278,5.122,5.121,5.1208,5.1147,5.0526,5.0273,5.0176,4.9573,4.931,4.931,4.9318,4.9307,4.9147,4.8133,4.7566,4.7488,4.6906,4.6603,4.6564,4.637,4.6254,4.6235,4.5983,4.5898,4.5905,4.5899,4.5906,4.5893,4.5866,4.5819,4.58,4.58,4.58,4.58,4.58,4.58,4.58,4.58,4.58,4.5587,4.4407,4.3363,4.2705,4.1867,4.1376,4.1301,4.1012,4.0822,4.0687,4.0368,4.0138,4.0036,3.9933,3.9981,4.0182,4.0608,4.0986,4.1123,4.1905,4.261,4.3137,4.3381,4.3689,4.3998,4.3974,4.3925,4.3965,4.3597,4.3554,4.3692,4.4091,4.4839,4.5791,4.6034,4.6463,4.6963,4.7025,4.7043,4.7088,4.7187,4.7453,4.7933,4.9149,5.0652,5.1927,5.2525,5.2956,5.3589,5.3794,5.3813,5.3813,5.3716,5.3598,5.3359,5.3109,5.2824,5.2572,5.2322,5.215,5.1956,5.1808,5.169,5.174,5.169,5.169,5.169,5.169,5.169,5.169,5.1589,5.1505,5.1454,5.1454,5.1402,5.1306,5.1278,5.124,5.121,5.1191,5.1123,5.1123,5.1045,5.1025,5.1033,5.0956,5.0981,5.1047,5.0872,4.9302,4.8553,4.8534,4.8334,4.8244,4.8147,4.7488,4.7146,4.7088,4.6312,4.5956,4.6131,4.6041,4.597,4.5925,4.5905,4.5858,4.5814,4.5814,4.58,4.58,4.58,4.58,4.58,4.58,4.58,4.5722,4.4968,4.4523,4.4349,4.3595,4.3013,4.2917,4.2202,4.172,4.1642,4.0807,4.0253,4.0134,4.003,4.0321,4.0938,4.099,4.1312,4.202,4.2776,4.3275,4.3407,4.3933,4.4327,4.4335,4.4233,4.4363,4.492,4.4812,4.4602,4.4445,4.5278,4.6026,4.6241,4.6852,4.7106,4.716,4.7178,4.7196,4.7196,4.7303,4.7962,4.8998,5.0629,5.1591,5.2349,5.3061,5.3641,5.3719,5.3813,5.3813,5.3774,5.3754,5.3637,5.3518,5.3254,5.298,5.2761,5.2572,5.2358,5.212,5.1875,5.1808,5.1758,5.169,5.169,5.169,5.169,5.169,5.169,5.169,5.164,5.1607,5.164,5.1607,5.1304,5.1306,5.1267,5.1239,5.1211,5.121,5.121,5.1211,5.122,5.122,5.121,5.1208,5.1217,5.1167,5.0561,4.9967,4.9404,4.8829,4.8565,4.8526,4.8235,4.8099,4.8041,4.775,4.7633,4.7536,4.7078,4.648,4.5951,4.5906,4.588,4.588,4.586,4.5847,4.5814,4.58,4.58,4.58,4.58,4.58,4.58,4.551,4.5374,4.5297,4.402,4.3278,4.3226,4.2868,4.2618,4.2485,4.2087,4.1799,4.1696,4.1589,4.1571,4.1865,4.2346,4.2706,4.2968,4.3676,4.4119,4.4102,4.4299,4.4458,4.4476,4.4744,4.5072,4.5305,4.6157,4.6393,4.625,4.6436,4.6721,4.7084,4.7288,4.7407,4.7381,4.7338,4.7294,4.7365,4.7795,4.8844,5.0253,5.1298,5.204,5.2884,5.3373,5.36,5.3774,5.3813,5.3813,5.3813,5.3793,5.3754,5.3656,5.3396,5.3127,5.2955,5.2779,5.2544,5.2311,5.2023,5.1907,5.1858,5.179,5.169,5.169,5.169,5.169,5.169,5.169,5.169,5.169,5.169,5.1708,5.13,5.1304,5.1292,5.1265,5.1239,5.1228,5.1228,5.123,5.123,5.122,5.122,5.122,5.12,5.12,5.1217,5.0903,5.0301,4.9698,4.9435,4.9415,4.9143,4.9027,4.8988,4.8735,4.858,4.8502,4.8025,4.7381,4.6841,4.6771,4.6758,4.6771,4.6468,4.6319,4.6234,4.5969,4.58,4.58,4.58,4.58,4.58,4.58,4.58,4.5645,4.4697,4.407,4.4051,4.3786,4.3535,4.3344,4.3004,4.2737,4.2591,4.2439,4.2522,4.2801,4.3264,4.3687,4.3875,4.435,4.456,4.4524,4.4533,4.4562,4.4815,4.5311,4.5679,4.6265,4.6987,4.7689,4.7737,4.7554,4.7524,4.7797,4.7765,4.7681,4.7621,4.7518,4.7601,4.7955,4.8963,5.0214,5.1322,5.1846,5.248,5.3404,5.3499,5.3561,5.3756,5.3813,5.3813,5.3813,5.3813,5.3774,5.3716,5.3539,5.3314,5.3146,5.2955,5.2708,5.2498,5.2264,5.2023,5.1956,5.1858,5.1758,5.169,5.169,5.169,5.169,5.169,5.169,5.169,5.169,5.1708,5.1323,5.13,5.13,5.13,5.1292,5.1292,5.13,5.1292,5.1295,5.1287,5.1287,5.124,5.1211,5.1201,5.12,5.1169,5.1072,5.0953,5.093,5.0891,5.0231,4.9901,4.9862,4.9221,4.8813,4.8735,4.8641,4.8561,4.839,4.8305,4.8313,4.8244,4.7546,4.7204,4.721,4.6408,4.5877,4.5896,4.5877,4.58,4.58,4.58,4.58,4.58,4.5645,4.5592,4.5645,4.492,4.4434,4.422,4.3445,4.2774,4.2756,4.2667,4.2867,4.3545,4.3686,4.402,4.46,4.4648,4.4587,4.4616,4.4561,4.4928,4.5406,4.5771,4.6405,4.7486,4.7895,4.8118,4.8667,4.8692,4.8513,4.8265,4.8187,4.805,4.7893,4.7829,4.8115,4.8974,5.0286,5.1399,5.1784,5.2352,5.3023,5.3363,5.3539,5.3579,5.3756,5.3813,5.3813,5.3813,5.3813,5.3774,5.3774,5.3716,5.3518,5.3314,5.3146,5.293,5.2663,5.2434,5.2264,5.212,5.1925,5.1858,5.169,5.169,5.169,5.169,5.169,5.169,5.169,5.169,5.169,5.1889,5.1323,5.1303,5.1296,5.13,5.13,5.13,5.13,5.1292,5.1312,5.1304,5.1267,5.1258,5.1249,5.123,5.122,5.121,5.1208,5.1206,5.1144,5.0911,5.0775,5.0717,5.0503,5.0056,4.9571,4.9493,4.9182,4.8724,4.8615,4.8584,4.8483,4.8315,4.8154,4.8042,4.7215,4.6737,4.6626,4.609,4.58,4.58,4.5819,4.5819,4.58,4.58,4.58,4.5786,4.5495,4.5301,4.518,4.4805,4.4497,4.4306,4.4212,4.4317,4.4478,4.4511,4.4543,4.4739,4.4764,4.4685,4.4745,4.5067,4.5435,4.581,4.6719,4.7496,4.8166,4.8514,4.8987,4.9057,4.9079,4.8909,4.8532,4.8457,4.8399,4.8414,4.8681,4.9474,5.0514,5.1224,5.1821,5.2444,5.2987,5.3235,5.3459,5.3598,5.3695,5.3774,5.3813,5.3813,5.3813,5.3813,5.3813,5.3774,5.3754,5.3656,5.3437,5.3314,5.3085,5.2886,5.2708,5.2544,5.2264,5.2071,5.1907,5.1758,5.169,5.174,5.169,5.169,5.169,5.169,5.169,5.169,5.2356,5.1811,5.1479,5.133,5.1296,5.1296,5.1308,5.13,5.13,5.13,5.1292,5.1304,5.1304,5.1295,5.1258,5.1249,5.124,5.122,5.1219,5.1217,5.1202,5.1202,5.1202,5.1202,5.0969,5.0484,5.0375,5.0103,4.9609,4.9559,4.9567,4.9567,4.9225,4.9026,4.8897,4.8153,4.7661,4.753,4.7091,4.6593,4.6361,4.6283,4.6129,4.5858,4.58,4.58,4.58,4.5742,4.57,4.5618,4.5495,4.532,4.517,4.5042,4.4967,4.4962,4.4895,4.487,4.4846,4.4815,4.4959,4.5157,4.5555,4.6102,4.6638,4.7774,4.8202,4.8677,4.904,4.9308,4.9244,4.9244,4.9113,4.8855,4.875,4.8808,4.9067,4.9892,5.0652,5.1559,5.2053,5.2474,5.2944,5.3235,5.3396,5.3558,5.3656,5.3734,5.3774,5.3813,5.3813,5.3813,5.3813,5.3813,5.3813,5.3793,5.3734,5.3616,5.3477,5.3254,5.3042,5.2974,5.2798,5.2434,5.2216,5.2005,5.1858,5.179,5.179,5.174,5.169,5.169,5.169,5.169,5.169,5.2826,5.2668,5.1829,5.1486,5.1434,5.1349,5.1323,5.1308,5.13,5.13,5.13,5.13,5.13,5.1292,5.1276,5.1287,5.1287,5.1249,5.123,5.122,5.1197,5.1214,5.1214,5.1214,5.1125,5.1105,5.1105,5.1105,5.0911,5.0911,5.1183,5.0918,5.0227,4.9885,4.9705,4.8994,4.856,4.8512,4.8363,4.7865,4.7192,4.7154,4.6767,4.6013,4.5974,4.5916,4.58,4.5776,4.5765,4.5684,4.5476,4.536,4.5256,4.5125,4.5014,4.501,4.4943,4.499,4.4946,4.5073,4.5325,4.6036,4.6259,4.6563,4.788,4.8254,4.8694,4.9265,4.9434,4.944,4.934,4.9308,4.9313,4.9305,4.9284,4.9464,5.0157,5.1302,5.1962,5.229,5.2821,5.33,5.33,5.34,5.3558,5.3656,5.3695,5.3754,5.3831,5.3869,5.3851,5.3851,5.3888,5.3851,5.3888,5.3869,5.385,5.3716,5.3579,5.3459,5.3254,5.3127,5.2955,5.2599,5.234,5.215,5.2005,5.1956,5.184,5.1808,5.1758,5.169,5.169,5.169,5.169,5.424,5.3572,5.2733,5.2352,5.2233,5.1681,5.1408,5.1362,5.1349,5.142,5.1342,5.1308,5.1398,5.132,5.1351,5.1292,5.1382,5.1345,5.1278,5.1278,5.1211,5.1219,5.1208,5.1217,5.1206,5.1202,5.1202,5.1202,5.1202,5.1202,5.1202,5.1183,5.0938,5.0771,5.0629,4.9879,4.9472,4.9296,4.8759,4.8421,4.814,4.8063,4.7618,4.6844,4.6767,4.6438,4.5896,4.581,4.5754,4.5637,4.5495,4.5361,4.5317,4.5192,4.5122,4.509,4.5043,4.5266,4.571,4.5818,4.619,4.6932,4.7389,4.8022,4.8324,4.8926,4.9262,4.9563,4.9551,4.949,4.944,4.9478,4.9671,5.0177,5.0235,5.0586,5.16,5.2234,5.2621,5.3098,5.3354,5.3444,5.3481,5.3598,5.3695,5.3734,5.3754,5.3813,5.3907,5.3944,5.3944,5.4,5.4037,5.4,5.3963,5.3944,5.3907,5.3831,5.3697,5.3639,5.3459,5.3254,5.298,5.2672,5.2508,5.234,5.2246,5.2132,5.2005,5.1907,5.1858,5.1858,5.174,5.169,5.169,5.5006,5.4473,5.3604,5.3244,5.3191,5.2704,5.2478,5.2453,5.2402,5.2376,5.2396,5.2402,5.2382,5.2395,5.2407,5.2407,5.2399,5.2383,5.2414,5.2327,5.2027,5.1629,5.1337,5.121,5.1208,5.1206,5.1206,5.1214,5.1202,5.1202,5.1202,5.1202,5.1202,5.119,5.1081,5.0681,5.0326,5.0228,4.9775,4.9384,4.8982,4.8967,4.8469,4.7831,4.7657,4.7347,4.6941,4.6892,4.6542,4.5866,4.5549,4.5457,4.54,4.5317,4.5366,4.5544,4.557,4.5916,4.6537,4.6721,4.7049,4.7742,4.8416,4.8701,4.8966,4.9418,4.9634,4.9634,4.9563,4.9551,4.9608,4.9802,5.0541,5.1518,5.1626,5.1918,5.2783,5.3068,5.3386,5.3683,5.3775,5.3756,5.3756,5.3813,5.3869,5.3851,5.3926,5.3963,5.4055,5.4055,5.4092,5.411,5.4127,5.4073,5.4037,5.4037,5.4,5.3888,5.3813,5.3717,5.3619,5.3437,5.317,5.2893,5.2735,5.2554,5.2462,5.234,5.2198,5.2102,5.2023,5.1974,5.1858,5.174,5.174,5.543,5.5369,5.4496,5.4154,5.4115,5.4014,5.3771,5.3855,5.3747,5.376,5.376,5.3838,5.3637,5.3891,5.3559,5.3806,5.3806,5.3615,5.3724,5.3463,5.3026,5.2386,5.1814,5.1356,5.124,5.1219,5.1219,5.1217,5.1214,5.1214,5.1202,5.1202,5.1202,5.1202,5.1171,5.1081,5.1108,5.0985,5.0829,5.0419,4.994,4.9814,4.9393,4.8662,4.8275,4.8256,4.8164,4.8129,4.7561,4.6063,4.5888,4.5991,4.5879,4.5705,4.5948,4.6459,4.6557,4.6825,4.746,4.7599,4.7915,4.8647,4.8783,4.9012,4.9561,4.9712,4.9721,4.9721,4.9709,4.9924,5.0225,5.0616,5.1568,5.2677,5.3057,5.323,5.3294,5.3714,5.4127,5.4127,5.4091,5.4091,5.4091,5.411,5.411,5.4,5.4018,5.4073,5.4128,5.4164,5.4164,5.4181,5.4163,5.4127,5.4127,5.4146,5.4073,5.4,5.3888,5.3813,5.3754,5.3558,5.3355,5.3188,5.2999,5.2824,5.269,5.2572,5.2434,5.2311,5.2198,5.2102,5.1956,5.1858,5.1858,5.6317,5.6249,5.539,5.5017,5.4915,5.4306,5.4024,5.4025,5.4025,5.4118,5.4001,5.3952,5.3981,5.3961,5.4066,5.3904,5.4053,5.4053,5.3891,5.3876,5.3763,5.3541,5.2959,5.2046,5.1327,5.1288,5.124,5.121,5.1208,5.1217,5.1206,5.1202,5.1202,5.1202,5.1202,5.119,5.1159,5.1095,5.1082,5.0945,5.0748,5.0618,5.0259,4.9455,4.8836,4.8469,4.8411,4.8377,4.8149,4.7816,4.7636,4.7566,4.7375,4.7319,4.7352,4.7461,4.751,4.7823,4.8414,4.8568,4.8821,4.9504,4.9565,4.9681,4.9795,4.9835,4.9778,4.9892,5.0269,5.0805,5.1473,5.2278,5.283,5.3325,5.38,5.4071,5.4112,5.4193,5.4235,5.4235,5.4181,5.411,5.411,5.4127,5.4127,5.4091,5.4146,5.4164,5.42,5.4235,5.4271,5.4287,5.4287,5.4252,5.4217,5.4235,5.4146,5.424,5.4168,5.4168,5.4092,5.407,5.3964,5.3635,5.3254,5.3085,5.2955,5.2824,5.269,5.2526,5.2387,5.2293,5.2198,5.2054,5.1907,5.6614,5.6566,5.6102,5.5895,5.584,5.5429,5.5232,5.5226,5.5221,5.5215,5.5196,5.5169,5.5162,5.5167,5.5143,5.5137,5.5112,5.5087,5.4905,5.4658,5.4488,5.4273,5.3837,5.3023,5.2356,5.1979,5.1891,5.1677,5.1337,5.1249,5.1219,5.1206,5.1245,5.1214,5.1202,5.1241,5.1171,5.1139,5.1108,5.1069,5.1048,5.1,5.0855,5.0345,4.9823,4.9571,4.9629,4.961,4.9575,4.9505,4.9421,4.8966,4.8312,4.8125,4.8202,4.8487,4.8417,4.8793,4.931,4.948,4.9575,4.9948,4.9978,4.9952,4.9925,4.9871,5.0108,5.0383,5.0847,5.1393,5.256,5.3,5.344,5.3949,5.4293,5.4524,5.4458,5.4356,5.434,5.4359,5.4306,5.4252,5.4252,5.4217,5.4252,5.4252,5.4252,5.4306,5.4306,5.434,5.434,5.4375,5.4375,5.4375,5.4359,5.4324,5.4235,5.4406,5.4595,5.4652,5.4727,5.4744,5.4719,5.4229,5.3625,5.3336,5.317,5.3085,5.2955,5.2824,5.2645,5.2526,5.2387,5.2293,5.215,5.6582,5.6606,5.6606,5.6618,5.6607,5.6554,5.65,5.6542,5.662,5.6384,5.6577,5.6616,5.6339,5.6501,5.6399,5.6474,5.6445,5.6338,5.5879,5.5463,5.5393,5.51,5.4606,5.4339,5.3876,5.3057,5.2853,5.2387,5.1921,5.1619,5.194,5.1705,5.1655,5.1742,5.1544,5.1396,5.1358,5.1229,5.1159,5.1114,5.1095,5.1034,5.0952,5.0809,5.0732,5.0654,5.0635,5.0693,5.079,5.0906,5.0913,5.0107,4.9131,4.8619,4.8759,4.9567,4.9388,4.9609,5.0019,5.0111,5.0051,5.0057,5.0031,5.0092,5.0142,5.0285,5.0637,5.114,5.1642,5.2227,5.3414,5.3723,5.4044,5.4478,5.4686,5.4641,5.4557,5.4458,5.4443,5.4409,5.4375,5.4375,5.4375,5.4375,5.4409,5.4409,5.4409,5.4409,5.4409,5.4409,5.4409,5.4409,5.4409,5.4747,5.4787,5.4884,5.4774,5.5095,5.5247,5.536,5.5492,5.5548,5.5395,5.4535,5.397,5.3776,5.3529,5.3295,5.317,5.3085,5.2955,5.2824,5.2708,5.2572,5.2441,5.6558,5.6606,5.6606,5.6606,5.661,5.6614,5.6614,5.6618,5.6612,5.6616,5.6618,5.6619,5.6621,5.66,5.6597,5.6588,5.6579,5.6513,5.6411,5.6207,5.6182,5.5976,5.5853,5.573,5.5425,5.4749,5.4142,5.3611,5.3292,5.3361,5.3059,5.3273,5.3222,5.2939,5.2403,5.2216,5.1882,5.1435,5.1326,5.1263,5.1121,5.1067,5.1005,5.0925,5.0906,5.0906,5.0906,5.0906,5.0906,5.0906,5.0909,5.0716,5.0336,5.0209,5.0218,5.026,5.024,5.0274,5.0421,5.0367,5.0278,5.0212,5.0234,5.0532,5.0886,5.1079,5.1459,5.2144,5.2854,5.3602,5.453,5.4458,5.4541,5.4767,5.4755,5.4723,5.4654,5.4641,5.4576,5.4476,5.4443,5.4409,5.4409,5.4409,5.4409,5.4409,5.4409,5.4409,5.4409,5.4409,5.4409,5.4409,5.4409,5.4878,5.531,5.5463,5.5594,5.6084,5.6311,5.6387,5.6481,5.6444,5.607,5.5489,5.4869,5.4528,5.4208,5.3832,5.3732,5.3847,5.3542,5.3176,5.3295,5.3435,5.3017,5.6533,5.6606,5.6606,5.6606,5.6606,5.6606,5.6606,5.6606,5.6618,5.6621,5.6621,5.6605,5.6607,5.6612,5.662,5.6621,5.6599,5.6556,5.6551,5.6546,5.6559,5.6547,5.6538,5.6528,5.6294,5.5859,5.5412,5.4656,5.395,5.3805,5.3905,5.3789,5.3808,5.3584,5.3272,5.3133,5.2644,5.2061,5.1816,5.1579,5.1179,5.1106,5.0995,5.0941,5.0906,5.0906,5.0906,5.0906,5.0906,5.0906,5.0906,5.0906,5.089,5.0877,5.0827,5.0757,5.0682,5.0606,5.0545,5.0478,5.0585,5.0998,5.0923,5.125,5.177,5.206,5.2349,5.3072,5.3841,5.4476,5.4844,5.489,5.486,5.4841,5.481,5.4799,5.4767,5.4736,5.4673,5.4557,5.4524,5.4458,5.4409,5.4409,5.4409,5.4409,5.4409,5.4409,5.4443,5.454,5.4631,5.4784,5.4934,5.5535,5.6023,5.623,5.6493,5.6964,5.732,5.7378,5.7491,5.751,5.7323,5.6968,5.6311,5.5633,5.5389,5.518,5.4933,5.4663,5.4654,5.4564,5.4411,5.4261,5.3926,5.6533,5.6582,5.6586,5.6606,5.6606,5.6606,5.6606,5.6606,5.6606,5.6606,5.6606,5.6606,5.6606,5.661,5.6621,5.661,5.6614,5.6599,5.6601,5.6601,5.6598,5.6593,5.6582,5.6556,5.6458,5.6395,5.6319,5.5769,5.4885,5.4656,5.4476,5.4576,5.442,5.4188,5.412,5.405,5.3514,5.3016,5.2683,5.2239,5.1554,5.1155,5.0999,5.0906,5.0906,5.0906,5.0906,5.0906,5.0906,5.0906,5.0906,5.0906,5.0945,5.1061,5.1161,5.1112,5.0853,5.076,5.0914,5.0873,5.1231,5.1919,5.1944,5.2313,5.2851,5.3175,5.3438,5.4068,5.4534,5.4924,5.4971,5.496,5.4931,5.4931,5.4912,5.4901,5.486,5.4799,5.4786,5.4705,5.4622,5.4557,5.4543,5.4529,5.4562,5.4543,5.4543,5.4543,5.4599,5.489,5.5025,5.5272,5.5629,5.6286,5.6756,5.7075,5.7394,5.7845,5.8145,5.8277,5.8484,5.8634,5.8353,5.7997,5.7715,5.7113,5.6832,5.6304,5.5835,5.5584,5.5877,5.5771,5.5349,5.5208,5.5023,5.6497,5.6514,5.6582,5.6606,5.6606,5.6606,5.6606,5.6606,5.6606,5.6606,5.6606,5.6606,5.6606,5.6606,5.6606,5.661,5.6614,5.6618,5.6607,5.6616,5.6619,5.662,5.662,5.6616,5.6573,5.6571,5.6536,5.643,5.5945,5.5939,5.6055,5.5962,5.5771,5.5715,5.5006,5.4967,5.4497,5.3794,5.3619,5.3137,5.2318,5.1591,5.1271,5.1068,5.1033,5.0964,5.0945,5.0925,5.0945,5.1022,5.0964,5.0925,5.1022,5.1679,5.197,5.1818,5.1476,5.1194,5.1758,5.1819,5.2105,5.2796,5.2903,5.3273,5.3833,5.4403,5.4688,5.4947,5.5102,5.5094,5.5085,5.5085,5.5057,5.5028,5.5,5.4941,5.4882,5.4871,5.486,5.4829,5.4749,5.4717,5.4673,5.4692,5.4692,5.4692,5.466,5.4678,5.4891,5.5296,5.5902,5.6262,5.6455,5.7056,5.76,5.7901,5.8107,5.8577,5.8764,5.8971,5.9027,5.9065,5.9122,5.8822,5.8596,5.8127,5.7432,5.6906,5.6511,5.6543,5.6796,5.6514,5.6047,5.5997,5.6147,5.6485,5.6489,5.6514,5.6577,5.6606,5.6606,5.6606,5.6606,5.6606,5.6606,5.6606,5.6606,5.6606,5.6606,5.6606,5.6606,5.6606,5.6606,5.661,5.6618,5.6602,5.6605,5.6612,5.6619,5.6621,5.66,5.6577,5.6571,5.6552,5.6509,5.6485,5.6491,5.6464,5.6274,5.5821,5.5842,5.5317,5.4635,5.4066,5.3591,5.3146,5.2745,5.2291,5.1765,5.1698,5.147,5.1145,5.0956,5.1231,5.1482,5.1621,5.1912,5.2279,5.2724,5.2937,5.2898,5.263,5.2578,5.2777,5.28,5.3225,5.3706,5.3933,5.4153,5.479,5.5164,5.5358,5.5314,5.5307,5.5255,5.5176,5.5176,5.5121,5.5094,5.5066,5.5038,5.4981,5.4971,5.4941,5.4901,5.4871,5.486,5.4836,5.4887,5.4837,5.4742,5.4912,5.5107,5.5508,5.6082,5.6745,5.7463,5.7618,5.7863,5.837,5.8764,5.8708,5.899,5.9009,5.9178,5.9215,5.9271,5.929,5.929,5.9065,5.854,5.7921,5.7825,5.7728,5.7723,5.7757,5.7453,5.7186,5.7381,5.7494,5.6484,5.6497,5.6484,5.6533,5.6582,5.6586,5.6606,5.6606,5.6606,5.6606,5.6606,5.6606,5.6606,5.6606,5.6606,5.6606,5.6606,5.6606,5.6606,5.6606,5.6606,5.6606,5.6614,5.6605,5.6612,5.6619,5.6601,5.6601,5.6577,5.6566,5.6523,5.6497,5.6478,5.6446,5.6464,5.6344,5.5968,5.5444,5.463,5.4194,5.3987,5.3754,5.3262,5.2854,5.2574,5.2327,5.177,5.1717,5.2109,5.2384,5.2562,5.2814,5.3259,5.3611,5.3788,5.3884,5.3904,5.4119,5.4066,5.3993,5.4225,5.4612,5.4882,5.4991,5.5388,5.5593,5.5551,5.5485,5.5456,5.5364,5.5288,5.5281,5.5255,5.521,5.5157,5.513,5.5121,5.5066,5.5028,5.5,5.4971,5.4931,5.4966,5.5113,5.5032,5.4862,5.5057,5.5529,5.6234,5.6979,5.7623,5.8361,5.8514,5.8629,5.893,5.9289,5.9364,5.9346,5.9346,5.9365,5.9346,5.9346,5.929,5.929,5.929,5.9103,5.8596,5.8819,5.8984,5.8625,5.8378,5.852,5.8512,5.8614,5.8492,5.6444,5.6484,5.6491,5.6489,5.6528,5.6582,5.6606,5.6606,5.6606,5.6606,5.6606,5.6606,5.6606,5.6606,5.6606,5.6606,5.6606,5.6606,5.6606,5.6606,5.6606,5.6606,5.6606,5.661,5.6614,5.6618,5.6607,5.6614,5.6619,5.6601,5.6554,5.6513,5.6528,5.6499,5.6497,5.6471,5.6394,5.5989,5.5372,5.5027,5.4743,5.4361,5.3851,5.3689,5.3552,5.348,5.3388,5.3194,5.3252,5.3451,5.348,5.3658,5.4065,5.4459,5.4675,5.481,5.5142,5.5337,5.5281,5.4954,5.511,5.5575,5.5789,5.5634,5.5787,5.5806,5.5745,5.5662,5.5618,5.5573,5.5485,5.548,5.5432,5.5383,5.5314,5.5262,5.521,5.5176,5.5121,5.5113,5.5152,5.5313,5.5569,5.5784,5.5579,5.5409,5.6229,5.6721,5.7427,5.815,5.8612,5.9125,5.9333,5.9411,5.943,5.9526,5.9491,5.9455,5.9474,5.9474,5.9457,5.9401,5.9346,5.929,5.929,5.9309,5.9272,5.9196,5.912,5.8984,5.8924,5.8902,5.8799,5.8758,5.8614,5.6427,5.6416,5.6449,5.6439,5.6489,5.6533,5.6558,5.6606,5.6606,5.6606,5.6606,5.6606,5.6606,5.6606,5.6606,5.6606,5.6606,5.6606,5.6606,5.6606,5.6606,5.6606,5.6606,5.6606,5.6606,5.6606,5.6614,5.6618,5.6621,5.661,5.6597,5.6562,5.6575,5.6536,5.6499,5.6491,5.6457,5.6366,5.6106,5.5871,5.58,5.5597,5.5108,5.4591,5.4497,5.4142,5.3741,5.3657,5.392,5.4255,5.4377,5.4633,5.4928,5.5362,5.5481,5.5504,5.5874,5.5973,5.5993,5.5666,5.5726,5.5825,5.5961,5.5943,5.5924,5.5885,5.5846,5.5807,5.5787,5.5724,5.5684,5.564,5.5615,5.5527,5.5461,5.5413,5.5421,5.5384,5.5446,5.5496,5.5767,5.6016,5.6302,5.6616,5.628,5.6019,5.7024,5.7952,5.8494,5.8954,5.9318,5.9492,5.9628,5.9631,5.9631,5.9631,5.9616,5.9616,5.9581,5.9564,5.9583,5.9512,5.9438,5.9346,5.9309,5.9309,5.9309,5.9272,5.9196,5.912,5.9061,5.904,5.898,5.8859,5.8758,5.6356,5.6368,5.6398,5.6441,5.6491,5.6497,5.6528,5.6577,5.6563,5.6582,5.6606,5.6606,5.6606,5.6606,5.6606,5.6606,5.6606,5.6606,5.6606,5.6606,5.6606,5.6606,5.6606,5.6606,5.6606,5.6606,5.6606,5.6606,5.661,5.6606,5.6598,5.6593,5.66,5.6561,5.6546,5.6514,5.6465,5.6437,5.6422,5.6425,5.6398,5.631,5.6164,5.5521,5.543,5.5233,5.4852,5.4769,5.4932,5.5197,5.5403,5.5641,5.5942,5.618,5.6133,5.6098,5.6082,5.6048,5.6029,5.5993,5.5995,5.6016,5.5998,5.596,5.5942,5.5923,5.5904,5.5924,5.5924,5.5885,5.5827,5.5766,5.5765,5.5703,5.564,5.5615,5.5723,5.5749,5.5853,5.5957,5.6358,5.6935,5.7213,5.7539,5.7596,5.7317,5.7711,5.8515,5.9089,5.9436,5.963,5.973,5.9734,5.9719,5.97,5.97,5.9753,5.9719,5.9738,5.9669,5.9653,5.9658,5.9604,5.9455,5.9419,5.9383,5.9365,5.9328,5.929,5.9234,5.9177,5.9137,5.9001,5.8921,5.8859,5.6297,5.6314,5.6375,5.6437,5.6469,5.6498,5.6491,5.6509,5.6509,5.6553,5.6602,5.6606,5.6606,5.6606,5.6606,5.6606,5.6606,5.6606,5.6606,5.6606,5.6606,5.6606,5.6606,5.6606,5.6606,5.6606,5.6606,5.6606,5.6606,5.6606,5.661,5.661,5.6602,5.6595,5.6582,5.6546,5.6514,5.6485,5.6491,5.6484,5.6476,5.6441,5.6308,5.6222,5.6145,5.5969,5.5891,5.5802,5.5908,5.6014,5.6045,5.6168,5.6253,5.6223,5.6194,5.6199,5.6133,5.6098,5.6098,5.6029,5.6012,5.5995,5.6014,5.5995,5.5995,5.5995,5.5977,5.596,5.598,5.5962,5.5924,5.5885,5.5885,5.5904,5.5844,5.6034,5.6184,5.6547,5.6729,5.6889,5.7473,5.7992,5.8226,5.8479,5.8759,5.8805,5.8772,5.909,5.9608,5.9766,5.9899,5.9918,5.9866,5.9866,5.9866,5.9885,5.9885,5.9872,6.0009,6.015,6.0195,6.033,6.0144,5.9788,5.9753,5.9869,5.9664,5.942,5.9328,5.9272,5.9253,5.9196,5.9061,5.8982,5.8921,5.619,5.616,5.6285,5.6333,5.6368,5.6405,5.6445,5.6491,5.6484,5.6489,5.6533,5.6582,5.6606,5.6606,5.6606,5.6606,5.6606,5.6606,5.6606,5.6606,5.6606,5.6606,5.6606,5.6606,5.6606,5.6606,5.6606,5.6606,5.6606,5.6606,5.6606,5.6606,5.6606,5.6607,5.6582,5.6575,5.6563,5.6499,5.6489,5.6484,5.6491,5.6465,5.6452,5.6457,5.6472,5.6455,5.6455,5.6426,5.6398,5.6407,5.6377,5.6356,5.6353,5.6291,5.6265,5.6257,5.6209,5.6149,5.6098,5.6029,5.6012,5.6012,5.6012,5.6012,5.6012,5.6012,5.5995,5.6014,5.5996,5.5979,5.5959,5.5981,5.6001,5.6116,5.6233,5.6676,5.6982,5.7541,5.7884,5.8069,5.8462,5.9139,5.9549,5.9422,5.9603,5.9683,5.9578,5.9566,5.9924,5.9981,6.0038,6.0057,6.0026,6.0026,6.0045,6.0165,6.0418,6.0595,6.0795,6.1031,6.1092,6.1076,6.1158,6.1047,6.0729,6.0393,6.0282,6.0059,5.9496,5.9272,5.9441,5.9365,5.9139,5.91,5.904,5.6026,5.6075,5.619,5.6259,5.6302,5.6388,5.6441,5.6491,5.6491,5.6497,5.6503,5.6548,5.6572,5.6577,5.6577,5.6582,5.6606,5.6606,5.6606,5.6606,5.6606,5.6606,5.6606,5.6606,5.6606,5.6606,5.6606,5.6606,5.6606,5.6606,5.6606,5.6606,5.6606,5.6618,5.6597,5.6601,5.658,5.6532,5.6527,5.6543,5.6516,5.6504,5.6489,5.6497,5.6478,5.6484,5.6484,5.6457,5.643,5.6433,5.6425,5.6407,5.6388,5.6356,5.6321,5.6304,5.6251,5.616,5.6098,5.6082,5.6029,5.5993,5.6012,5.6012,5.6012,5.6012,5.6012,5.6012,5.6031,5.607,5.6111,5.6114,5.65,5.6617,5.7081,5.7525,5.7834,5.8375,5.8856,5.9044,5.9403,6.0123,6.0537,6.0507,6.0418,6.0391,6.0387,6.0323,6.0188,6.0188,6.0188,6.0188,6.0178,6.0167,6.0308,6.0544,6.0855,6.1261,6.1609,6.1923,6.1894,6.1913,6.2148,6.2232,6.1725,6.133,6.1109,6.0791,6.0416,6.0041,5.991,5.9703,5.9347,5.9196,5.9157,5.5884,5.5975,5.6046,5.616,5.6291,5.6336,5.6446,5.6488,5.6491,5.6478,5.6504,5.6504,5.6517,5.6503,5.6509,5.6533,5.6563,5.6582,5.6602,5.6606,5.6606,5.6606,5.6606,5.6606,5.6606,5.6606,5.6606,5.6606,5.6606,5.6606,5.6606,5.6606,5.6606,5.661,5.6621,5.661,5.6599,5.6582,5.6581,5.658,5.6579,5.6532,5.652,5.6508,5.6514,5.6503,5.6523,5.6503,5.6503,5.6491,5.6478,5.6449,5.6414,5.6407,5.6368,5.6314,5.6239,5.619,5.6145,5.613,5.6082,5.6029,5.6012,5.6012,5.6012,5.6031,5.6109,5.6225,5.6321,5.6302,5.6321,5.6826,5.7329,5.7715,5.816,5.847,5.8684,5.9128,5.963,5.9996,6.0378,6.0798,6.0792,6.0823,6.0777,6.0753,6.0635,6.0591,6.0468,6.036,6.0332,6.0313,6.0323,6.0304,6.0542,6.098,6.1625,6.2178,6.2497,6.2788,6.2724,6.2881,6.3137,6.3145,6.2586,6.2176,6.1783,6.158,6.1487,6.1093,6.0604,5.9872,5.9459,5.9272,5.9177,5.5747,5.5788,5.5923,5.6029,5.6094,5.6232,5.6314,5.6407,5.6433,5.6469,5.6484,5.6498,5.6485,5.6491,5.6491,5.6523,5.6528,5.6533,5.6577,5.6582,5.6602,5.6606,5.6606,5.6606,5.6606,5.6606,5.6606,5.6606,5.6606,5.6606,5.6606,5.6606,5.6606,5.6606,5.6606,5.6614,5.6621,5.6607,5.6616,5.6618,5.6619,5.6582,5.656,5.6556,5.6568,5.6563,5.6563,5.6563,5.6559,5.6523,5.6494,5.6464,5.6465,5.6464,5.6444,5.6368,5.6302,5.6265,5.6218,5.6194,5.6188,5.6159,5.6159,5.6029,5.6029,5.6186,5.6379,5.6689,5.6921,5.7018,5.7346,5.7849,5.8178,5.8488,5.8971,5.9416,5.9611,5.992,6.0384,6.0519,6.0942,6.0941,6.0957,6.0935,6.0914,6.0911,6.0888,6.0804,6.0714,6.0616,6.054,6.052,6.0724,6.0786,6.118,6.1639,6.2395,6.3062,6.3413,6.379,6.4089,6.4215,6.4296,6.4025,6.3524,6.2905,6.2251,6.2218,6.2371,6.1694,6.1112,6.0322,5.9665,5.9441,5.9272,5.5618,5.5682,5.5768,5.5885,5.5975,5.611,5.6193,5.6283,5.6319,5.6398,5.6455,5.6461,5.6457,5.6464,5.6491,5.6504,5.6497,5.6497,5.6523,5.6533,5.6577,5.6582,5.6602,5.6606,5.6606,5.6606,5.6606,5.6606,5.6645,5.6626,5.6606,5.6606,5.6606,5.6645,5.6606,5.6606,5.6606,5.661,5.6618,5.6624,5.6607,5.661,5.6616,5.662,5.6621,5.6621,5.662,5.662,5.6579,5.6554,5.6532,5.6516,5.6504,5.6478,5.6457,5.6387,5.6358,5.6309,5.6291,5.6271,5.6369,5.6533,5.6633,5.6872,5.6859,5.6996,5.7288,5.7598,5.7772,5.7985,5.8449,5.8874,5.899,5.9145,5.9725,6.0325,6.0576,6.0809,6.0925,6.0983,6.1041,6.1021,6.1021,6.1039,6.0999,6.0978,6.0957,6.0933,6.0891,6.0827,6.08,6.08,6.1118,6.1396,6.187,6.2452,6.3242,6.3925,6.4393,6.4813,6.5276,6.5182,6.4902,6.4709,6.4465,6.39,6.33,6.327,6.3237,6.2578,6.1825,6.1054,6.0247,5.959,5.944,5.548,5.5596,5.5682,5.5767,5.5903,5.6126,5.6253,5.6218,5.6511,5.6469,5.6425,5.6398,5.6378,5.6425,5.6441,5.6457,5.6471,5.6498,5.6491,5.6484,5.6503,5.6533,5.6558,5.6582,5.6602,5.6602,5.6645,5.6723,5.6762,5.6879,5.6957,5.6782,5.6996,5.7153,5.7231,5.7211,5.727,5.7309,5.7172,5.7079,5.6708,5.6606,5.6606,5.661,5.6605,5.6612,5.6612,5.6614,5.6616,5.6619,5.6601,5.6559,5.6529,5.6504,5.6465,5.6547,5.6563,5.6669,5.6741,5.6841,5.7119,5.7329,5.7532,5.7947,5.8051,5.7749,5.7981,5.8468,5.87,5.8971,5.9397,5.9745,5.9919,6.0035,6.0383,6.0731,6.0867,6.1002,6.1041,6.108,6.108,6.1119,6.1505,6.1563,6.1813,6.1466,6.1503,6.156,6.1501,6.146,6.1343,6.1321,6.1508,6.2021,6.2844,6.3449,6.4129,6.4768,6.5175,6.5331,6.5456,6.5425,6.5352,6.5144,6.49,6.4928,6.4613,6.4377,6.3986,6.3572,6.2782,6.1897,6.1051,6.0133,5.9552,5.5432,5.5456,5.5618,5.5705,5.5862,5.6615,5.6927,5.7019,5.7729,5.7353,5.6496,5.6364,5.6367,5.6407,5.6398,5.6416,5.6441,5.6476,5.6491,5.6485,5.6491,5.6497,5.6548,5.665,5.6636,5.6602,5.6684,5.7074,5.7426,5.7601,5.7875,5.8382,5.8363,5.8246,5.8246,5.8265,5.8246,5.8168,5.8168,5.7641,5.6957,5.6704,5.6606,5.6684,5.6712,5.6809,5.6793,5.6712,5.6657,5.6618,5.6621,5.6597,5.6581,5.6582,5.6543,5.6581,5.71,5.7321,5.7498,5.7729,5.8129,5.8325,5.8556,5.8998,5.9068,5.8632,5.8695,5.926,5.9687,5.9977,6.0228,6.0518,6.075,6.0847,6.0925,6.1021,6.1118,6.1137,6.1137,6.1157,6.1157,6.1505,6.195,6.222,6.2472,6.2723,6.3013,6.311,6.2955,6.2838,6.2448,6.2352,6.2078,6.2577,6.3499,6.4286,6.4869,6.523,6.5564,6.5666,6.5663,6.558,6.5494,6.5394,6.5252,6.5207,6.5142,6.4985,6.4598,6.4244,6.3454,6.2454,6.1555,6.0691,5.9962,5.5396,5.5421,5.5519,5.5819,5.6268,5.6851,5.7305,5.7716,5.8259,5.806,5.728,5.6983,5.6705,5.645,5.6367,5.6465,5.6475,5.6416,5.6441,5.6457,5.6608,5.6485,5.6589,5.6932,5.7138,5.7182,5.7616,5.805,5.8343,5.8402,5.8714,5.9143,5.9183,5.9202,5.9183,5.9143,5.9202,5.9065,5.9202,5.8616,5.7699,5.766,5.7699,5.7699,5.7699,5.766,5.7719,5.7699,5.7719,5.7738,5.782,5.7821,5.7831,5.7828,5.7737,5.7816,5.8083,5.8324,5.8437,5.8715,5.9171,5.9313,5.9419,5.9807,6.0405,6.0053,6.0005,6.0474,6.0458,6.071,6.0692,6.0925,6.0944,6.1002,6.1021,6.1079,6.1331,6.1543,6.166,6.1834,6.2085,6.2646,6.2955,6.2994,6.3207,6.3226,6.3632,6.3806,6.3806,6.4038,6.3689,6.3476,6.328,6.3394,6.4224,6.4916,6.5492,6.5774,6.59,6.5826,6.575,6.5697,6.5589,6.5523,6.5425,6.5364,6.5271,6.5174,6.5128,6.4833,6.393,6.2914,6.2107,6.1284,6.0535,5.5403,5.5422,5.5536,5.6033,5.6783,5.7209,5.7716,5.8338,5.8638,5.8702,5.853,5.8031,5.7315,5.6809,5.6628,5.6664,5.6803,5.7166,5.6953,5.6922,5.6979,5.7209,5.7427,5.7603,5.7849,5.8153,5.8534,5.8924,5.9261,5.93,5.9319,5.9358,5.9436,5.9475,5.9417,5.9475,5.969,5.9788,5.9807,5.9612,5.9358,5.9163,5.8948,5.8987,5.9104,5.9124,5.9104,5.9085,5.9065,5.8987,5.8831,5.8769,5.8763,5.8711,5.8787,5.8814,5.9035,5.9187,5.9274,5.9479,5.9893,6.0195,6.0297,6.0618,6.1194,6.1274,6.1194,6.122,6.1206,6.1173,6.1174,6.1156,6.1156,6.1234,6.1234,6.1447,6.1795,6.2124,6.2356,6.2569,6.3013,6.3594,6.3826,6.3864,6.3922,6.3903,6.398,6.4019,6.4193,6.4619,6.4715,6.4715,6.4714,6.4944,6.5176,6.5406,6.5887,6.5942,6.6013,6.5943,6.5895,6.5826,6.575,6.5663,6.558,6.5523,6.5454,6.5364,6.529,6.5245,6.4324,6.3365,6.2919,6.2094,6.1136,5.5403,5.5479,5.6167,5.6582,5.6945,5.8196,5.8968,5.9216,5.995,5.998,5.9427,5.93,5.8876,5.8145,5.8222,5.8148,5.7917,5.8091,5.834,5.8459,5.816,5.8325,5.8488,5.8519,5.8767,5.9059,5.9329,5.9514,6.0041,6.0178,6.049,6.0978,6.1076,6.1095,6.1115,6.1076,6.092,6.0881,6.09,6.09,6.0568,6.0119,5.9222,5.9124,5.9124,5.9124,5.9104,5.9124,5.9104,5.9104,5.9241,5.9328,5.9394,5.9444,5.9452,5.9667,5.9895,6.0096,6.0193,6.0497,6.0925,6.103,6.1111,6.1139,6.1456,6.1389,6.1375,6.1488,6.1462,6.1397,6.1382,6.1328,6.1347,6.162,6.1737,6.2394,6.2917,6.3168,6.3381,6.3497,6.369,6.4251,6.4735,6.4831,6.5006,6.5083,6.5334,6.5354,6.5257,6.5489,6.5624,6.5702,6.5799,6.5973,6.5952,6.5817,6.6086,6.6123,6.6121,6.6036,6.599,6.5971,6.59,6.5776,6.5724,6.5697,6.5589,6.5523,6.5435,6.5268,6.4508,6.3778,6.3442,6.2972,6.2123]},{"header":{"parameterUnit":"m.s-1","parameterCategory":1,"la1":31.0,"la2":29.5877,"lo1":-88.7671,"lo2":-86.6584,"dy":0.0162,"dx":0.0185,"nx":115,"ny":88,"refTime":"2024-03-30T06:00:00:Z","depth":0,"parameterNumber":3,"parameterNumberName":"V-component_of_WINDS"},"data":[0.0,0.0,0.0,0.0,0.0,0.0,0.0,0.0,0.0,0.0,0.0,0.0,0.0,0.0,0.0,0.0,0.0,0.0,0.0,0.0,0.0,0.0,0.0,0.0,0.0,0.0,0.0,0.0,0.0,0.0,0.0,0.0,0.0,0.0,0.0,0.0,0.0,0.0,0.0,0.0,0.0,0.0,0.0,0.0,0.0,0.0,0.0,0.0,0.0,0.0,0.0,0.0,0.0,0.0,0.0,0.0,0.0,0.0,0.0,0.0,0.0,0.0,0.0,0.0,0.0,0.0,0.0,0.0,0.0,0.0,0.0,0.0,0.0,0.0,0.0,0.0,0.0,0.0,0.0,0.0,0.0,0.0,0.0,0.0,0.0,0.0,0.0,0.0,0.0,0.0,0.0,0.0,0.0,0.0,0.0,0.0,0.0,0.0,0.0,0.0,0.0,0.0,0.0,0.0,0.0,0.0,0.0,0.0,0.0,0.0,0.0,0.0,0.0,0.0,0.0,0.0,0.0,0.0,0.0,0.0,0.0,0.0,0.0,0.0,0.0,0.0,0.0,0.0,0.0,0.0,0.0,0.0,0.0,0.0,0.0,0.0,0.0,0.0,0.0,0.0,0.0,0.0,0.0,0.0,0.0,0.0,0.0,0.0,0.0,0.0,0.0,0.0,0.0,0.0,0.0,0.0,0.0,0.0,0.0,0.0,0.0,0.0,0.0,0.0,0.0,0.0,0.0,0.0,0.0,0.0,0.0,0.0,0.0,0.0,0.0,0.0,0.0,0.0,0.0,0.0,0.0,0.0,0.0,0.0,0.0,0.0,0.0,0.0,0.0,0.0,0.0,0.0,0.0,0.0,0.0,0.0,0.0,0.0,0.0,0.0,0.0,0.0,0.0,0.0,0.0,0.0,0.0,0.0,0.0,0.0,0.0,0.0,0.0,0.0,0.0,0.0,0.0,0.0,0.0,0.0,0.0,0.0,0.0,0.0,0.0,0.0,0.0,0.0,0.0,0.0,0.0,0.0,0.0,0.0,0.0,0.0,0.0,0.0,0.0,0.0,0.0,0.0,0.0,0.0,0.0,0.0,0.0,0.0,0.0,0.0,0.0,0.0,0.0,0.0,0.0,0.0,0.0,0.0,0.0,0.0,0.0,0.0,0.0,0.0,0.0,0.0,0.0,0.0,0.0,0.0,0.0,0.0,0.0,0.0,0.0,0.0,0.0,0.0,0.0,0.0,0.0,0.0,0.0,0.0,0.0,0.0,0.0,0.0,0.0,0.0,0.0,0.0,0.0,0.0,0.0,0.0,0.0,0.0,0.0,0.0,0.0,0.0,0.0,0.0,0.0,0.0,0.0,0.0,0.0,0.0,0.0,0.0,0.0,0.0,0.0,0.0,0.0,0.0,0.0,0.0,0.0,0.0,0.0,0.0,0.0,0.0,0.0,0.0,0.0,0.0,0.0,0.0,0.0,0.0,0.0,0.0,0.0,0.0,0.0,0.0,0.0,0.0,0.0,0.0,0.0,0.0,0.0,0.0,0.0,0.0,0.0,0.0,0.0,0.0,0.0,0.0,0.0,0.0,0.0,0.0,0.0,0.0,0.0,0.0,0.0,0.0,0.0,0.0,0.0,0.0,0.0,0.0,0.0,0.0,0.0,0.0,0.0,0.0,0.0,0.0,0.0,0.0,0.0,0.0,0.0,0.0,0.0,0.0,0.0,0.0,0.0,0.0,0.0,0.0,0.0,0.0,0.0,0.0,0.0,0.0,0.0,0.0,0.0,0.0,0.0,0.0,0.0,0.0,0.0,0.0,0.0,0.0,0.0,0.0,0.0,0.0,0.0,0.0,0.0,0.0,0.0,0.0,0.0,0.0,0.0,0.0,0.0,0.0,0.0,0.0,0.0,0.0,0.0,0.0,0.0,0.0,0.0,0.0,0.0,0.0,0.0,0.0,0.0,0.0,0.0,0.0,0.0,0.0,0.0,0.0,0.0,0.0,0.0,0.0,0.0,0.0,0.0,0.0,0.0,0.0,0.0,0.0,0.0,0.0,0.0,0.0,0.0,0.0,0.0,0.0,0.0,0.0,0.0,0.0,0.0,0.0,0.0,0.0,0.0,0.0,0.0,0.0,0.0,0.0,0.0,0.0,0.0,0.0,0.0,0.0,0.0,0.0,0.0,0.0,0.0,0.0,0.0,0.0,0.0,0.0,0.0,0.0,0.0,0.0,0.0,0.0,0.0,0.0,0.0,0.0,0.0,0.0,0.0,0.0,0.0,0.0,0.0,0.0,0.0,0.0,0.0,0.0,0.0,0.0,0.0,0.0,0.0,0.0,0.0,0.0,0.0,0.0,0.0,0.0,0.0,0.0,0.0,0.0,0.0,0.0,0.0,0.0,0.0,0.0,0.0,0.0,0.0,0.0,0.0,0.0,0.0,0.0,0.0,0.0,0.0,0.0,0.0,0.0,0.0,0.0,0.0,0.0,0.0,0.0,0.0,0.0,0.0,0.0,0.0,0.0,0.0,0.0,0.0,0.0,0.0,0.0,0.0,0.0,0.0,0.0,0.0,0.0,0.0,0.0,0.0,0.0,0.0,0.0,0.0,0.0,0.0,0.0,0.0,0.0,0.0,0.0,0.0,0.0,0.0,0.0,0.0,0.0,0.0,0.0,0.0,0.0,0.0,0.0,0.0,0.0,0.0,0.0,0.0,0.0,0.0,0.0,0.0,0.0,0.0,0.0,0.0,0.0,0.0,0.0,0.0,0.0,0.0,0.0,0.0,0.0,0.0,0.0,0.0,0.0,0.0,0.0,0.0,0.0,0.0,0.0,0.0,0.0,0.0,0.0,0.0,0.0,0.0,0.0,0.0,0.0,0.0,0.0,0.0,0.0,0.0,0.0,0.0,0.0,0.0,0.0,0.0,0.0,0.0,0.0,0.0,0.0,0.0,0.0,0.0,0.0,0.0,0.0,0.0,0.0,0.0,0.0,0.0,0.0,0.0,0.0,0.0,0.0,0.0,0.0,0.0,0.0,0.0,0.0,0.0,0.0,0.0,0.0,0.0,0.0,0.0,0.0,0.0,0.0,0.0,0.0,0.0,0.0,0.0,0.0,0.0,0.0,0.0,0.0,0.0,0.0,0.0,0.0,0.0,0.0,0.0,0.0,0.0,0.0,0.0,0.0,0.0,0.0,0.0,0.0,0.0,0.0,0.0,0.0,0.0,0.0,0.0,0.0,0.0,0.0,0.0,0.0,0.0,0.0,0.0,0.0,0.0,0.0,0.0,0.0,0.0,0.0,0.0,0.0,0.0,0.0,0.0,0.0,0.0,0.0,0.0,0.0,0.0,0.0,0.0,0.0,0.0,0.0,0.0,0.0,0.0,0.0,0.0,0.0,0.0,0.0,0.0,0.0,0.0,0.0,0.0,0.0,0.0,0.0,0.0,0.0,0.0,0.0,0.0,0.0,0.0,0.0,0.0,0.0,0.0,0.0,0.0,0.0,0.0,0.0,0.0,0.0,0.0,0.0,0.0,0.0,0.0,0.0,0.0,0.0,0.0,0.0,0.0,0.0,0.0,0.0,0.0,0.0,0.0,0.0,0.0,0.0,0.0,0.0,0.0,0.0,0.0,0.0,0.0,0.0,0.0,0.0,0.0,0.0,0.0,0.0,0.0,0.0,0.0,0.0,0.0,0.0,0.0,0.0,0.0,0.0,0.0,0.0,0.0,0.0,0.0,0.0,0.0,0.0,0.0,0.0,0.0,0.0,0.0,0.0,0.0,0.0,0.0,0.0,0.0,0.0,0.0,0.0,0.0,0.0,0.0,0.0,0.0,0.0,0.0,0.0,0.0,0.0,0.0,0.0,0.0,0.0,0.0,0.0,0.0,0.0,0.0,0.0,0.0,0.0,0.0,0.0,0.0,0.0,0.0,0.0,0.0,0.0,0.0,0.0,0.0,0.0,0.0,0.0,0.0,0.0,0.0,0.0,0.0,0.0,0.0,0.0,0.0,0.0,0.0,0.0,0.0,0.0,0.0,0.0,0.0,0.0,0.0,0.0,0.0,0.0,0.0,0.0,0.0,0.0,0.0,0.0,0.0,0.0,0.0,0.0,0.0,0.0,0.0,0.0,0.0,0.0,0.0,0.0,0.0,0.0,0.0,0.0,0.0,0.0,0.0,0.0,0.0,0.0,0.0,0.0,0.0,0.0,0.0,0.0,0.0,0.0,0.0,0.0,0.0,0.0,0.0,0.0,0.0,0.0,0.0,0.0,-1.8232,0.0,0.0,0.0,0.0,0.0,0.0,0.0,0.0,0.0,0.0,0.0,0.0,0.0,0.0,0.0,0.0,0.0,0.0,0.0,0.0,0.0,0.0,0.0,0.0,0.0,0.0,0.0,0.0,0.0,0.0,0.0,0.0,0.0,0.0,0.0,0.0,0.0,0.0,0.0,0.0,0.0,0.0,0.0,0.0,0.0,0.0,0.0,0.0,0.0,0.0,0.0,0.0,0.0,0.0,0.0,0.0,0.0,0.0,0.0,0.0,0.0,0.0,0.0,0.0,0.0,0.0,0.0,0.0,0.0,0.0,0.0,0.0,0.0,0.0,0.0,0.0,0.0,0.0,0.0,0.0,0.0,0.0,0.0,0.0,0.0,0.0,0.0,0.0,0.0,0.0,0.0,0.0,0.0,0.0,0.0,0.0,0.0,0.0,0.0,0.0,0.0,0.0,0.0,0.0,0.0,0.0,0.0,0.0,0.0,0.0,-1.9204,-1.8835,-1.8827,-1.8661,-1.8303,0.0,0.0,0.0,0.0,0.0,0.0,0.0,0.0,0.0,0.0,0.0,0.0,0.0,0.0,0.0,0.0,0.0,0.0,0.0,0.0,0.0,0.0,0.0,0.0,0.0,0.0,0.0,0.0,0.0,0.0,0.0,0.0,0.0,0.0,0.0,0.0,0.0,0.0,0.0,0.0,0.0,0.0,0.0,0.0,0.0,0.0,0.0,0.0,0.0,0.0,0.0,0.0,0.0,0.0,0.0,0.0,0.0,0.0,0.0,0.0,0.0,0.0,0.0,0.0,0.0,0.0,0.0,0.0,0.0,0.0,0.0,0.0,0.0,0.0,0.0,0.0,0.0,0.0,0.0,0.0,0.0,0.0,0.0,0.0,0.0,0.0,0.0,0.0,0.0,0.0,0.0,0.0,0.0,0.0,0.0,0.0,0.0,0.0,0.0,0.0,0.0,0.0,0.0,0.0,0.0,0.0,0.0,0.0,0.0,0.0,0.0,0.0,-1.8827,-1.8621,-1.8362,0.0,0.0,0.0,0.0,0.0,0.0,0.0,0.0,0.0,0.0,0.0,0.0,0.0,0.0,0.0,0.0,0.0,0.0,0.0,0.0,0.0,0.0,0.0,0.0,0.0,0.0,0.0,0.0,0.0,0.0,0.0,0.0,0.0,0.0,0.0,0.0,0.0,0.0,0.0,0.0,0.0,0.0,0.0,0.0,0.0,0.0,0.0,0.0,0.0,0.0,0.0,0.0,0.0,0.0,0.0,0.0,0.0,0.0,0.0,0.0,0.0,0.0,0.0,0.0,0.0,0.0,0.0,0.0,0.0,0.0,0.0,0.0,0.0,0.0,0.0,0.0,0.0,0.0,0.0,0.0,0.0,0.0,0.0,0.0,0.0,0.0,0.0,0.0,0.0,0.0,0.0,0.0,0.0,0.0,0.0,0.0,0.0,0.0,0.0,0.0,0.0,0.0,0.0,0.0,0.0,0.0,0.0,0.0,0.0,0.0,-1.9104,-1.8827,-1.8827,0.0,-1.839,0.0,0.0,0.0,0.0,0.0,0.0,0.0,0.0,0.0,0.0,0.0,0.0,0.0,0.0,0.0,0.0,0.0,0.0,0.0,0.0,0.0,0.0,0.0,0.0,0.0,0.0,0.0,0.0,0.0,0.0,0.0,0.0,0.0,0.0,0.0,0.0,0.0,0.0,0.0,0.0,0.0,0.0,0.0,0.0,0.0,0.0,0.0,0.0,0.0,0.0,0.0,0.0,0.0,0.0,0.0,0.0,0.0,0.0,0.0,0.0,0.0,0.0,0.0,0.0,0.0,0.0,0.0,0.0,0.0,0.0,0.0,0.0,0.0,0.0,0.0,0.0,0.0,0.0,0.0,0.0,0.0,0.0,0.0,0.0,0.0,0.0,0.0,0.0,0.0,0.0,0.0,0.0,0.0,0.0,0.0,0.0,0.0,0.0,0.0,0.0,0.0,0.0,0.0,0.0,0.0,0.0,0.0,0.0,0.0,0.0,-1.9204,-1.8827,-1.892,-1.8847,0.0,0.0,0.0,0.0,0.0,0.0,0.0,0.0,0.0,0.0,0.0,0.0,0.0,0.0,0.0,0.0,0.0,0.0,0.0,0.0,0.0,0.0,0.0,0.0,0.0,0.0,0.0,0.0,0.0,0.0,0.0,0.0,0.0,0.0,0.0,0.0,0.0,0.0,0.0,0.0,0.0,0.0,0.0,0.0,0.0,0.0,0.0,0.0,0.0,0.0,0.0,0.0,0.0,0.0,0.0,0.0,0.0,0.0,0.0,0.0,0.0,0.0,0.0,0.0,0.0,0.0,0.0,0.0,0.0,0.0,0.0,0.0,0.0,0.0,0.0,0.0,0.0,0.0,0.0,0.0,0.0,0.0,0.0,0.0,0.0,0.0,0.0,0.0,0.0,0.0,0.0,0.0,0.0,0.0,0.0,0.0,0.0,0.0,0.0,0.0,0.0,0.0,0.0,0.0,0.0,0.0,0.0,0.0,0.0,0.0,-1.943,-1.9296,-1.8827,-1.8924,-1.884,-1.8395,0.0,0.0,0.0,0.0,0.0,0.0,0.0,0.0,0.0,0.0,0.0,0.0,0.0,0.0,0.0,0.0,0.0,0.0,0.0,0.0,0.0,0.0,0.0,0.0,0.0,0.0,0.0,0.0,0.0,0.0,0.0,0.0,0.0,0.0,0.0,0.0,0.0,0.0,0.0,0.0,0.0,0.0,0.0,0.0,0.0,0.0,0.0,0.0,0.0,0.0,0.0,0.0,0.0,0.0,0.0,0.0,0.0,0.0,0.0,0.0,0.0,0.0,0.0,0.0,0.0,0.0,0.0,0.0,0.0,0.0,0.0,0.0,0.0,0.0,0.0,0.0,0.0,0.0,0.0,0.0,0.0,0.0,0.0,0.0,0.0,0.0,0.0,0.0,0.0,0.0,0.0,0.0,0.0,0.0,0.0,0.0,0.0,0.0,0.0,0.0,0.0,0.0,0.0,0.0,0.0,0.0,0.0,0.0,-1.9067,-1.91,-1.9096,-1.8796,-1.8691,-1.8612,0.0,0.0,0.0,0.0,0.0,0.0,0.0,0.0,0.0,0.0,0.0,0.0,0.0,0.0,0.0,0.0,0.0,0.0,0.0,0.0,0.0,0.0,0.0,0.0,0.0,0.0,0.0,0.0,0.0,0.0,0.0,0.0,0.0,0.0,0.0,0.0,0.0,0.0,0.0,0.0,0.0,0.0,0.0,0.0,0.0,0.0,0.0,0.0,0.0,0.0,0.0,0.0,0.0,0.0,0.0,0.0,0.0,0.0,0.0,0.0,0.0,0.0,0.0,0.0,0.0,0.0,0.0,0.0,0.0,0.0,0.0,0.0,0.0,0.0,0.0,0.0,0.0,0.0,0.0,0.0,0.0,0.0,0.0,0.0,0.0,0.0,0.0,0.0,0.0,0.0,0.0,0.0,0.0,0.0,0.0,0.0,0.0,0.0,0.0,0.0,0.0,0.0,0.0,0.0,0.0,0.0,0.0,0.0,0.0,-1.8521,-1.8274,-1.8071,-1.7982,-1.8041,-1.8064,0.0,0.0,0.0,0.0,0.0,0.0,0.0,0.0,0.0,0.0,0.0,0.0,0.0,0.0,0.0,0.0,0.0,0.0,0.0,0.0,0.0,0.0,0.0,0.0,0.0,0.0,0.0,0.0,0.0,0.0,0.0,0.0,0.0,0.0,0.0,0.0,0.0,0.0,0.0,0.0,0.0,0.0,0.0,0.0,0.0,0.0,0.0,0.0,0.0,0.0,0.0,0.0,0.0,0.0,0.0,0.0,0.0,0.0,0.0,0.0,0.0,0.0,0.0,0.0,0.0,0.0,0.0,0.0,0.0,0.0,0.0,0.0,0.0,0.0,0.0,0.0,0.0,0.0,0.0,0.0,0.0,0.0,0.0,0.0,0.0,0.0,0.0,0.0,0.0,0.0,0.0,0.0,0.0,0.0,0.0,0.0,0.0,0.0,0.0,0.0,0.0,0.0,0.0,0.0,0.0,0.0,0.0,0.0,0.0,-1.7882,0.0,-1.735,-1.735,-1.7494,-1.7586,0.0,0.0,0.0,0.0,0.0,0.0,0.0,0.0,0.0,0.0,0.0,0.0,0.0,0.0,0.0,0.0,0.0,0.0,0.0,0.0,0.0,0.0,0.0,0.0,0.0,0.0,0.0,0.0,0.0,0.0,0.0,0.0,0.0,0.0,0.0,0.0,0.0,0.0,0.0,0.0,0.0,0.0,0.0,0.0,0.0,0.0,0.0,0.0,0.0,0.0,0.0,0.0,0.0,0.0,0.0,0.0,0.0,0.0,0.0,0.0,0.0,0.0,0.0,0.0,0.0,0.0,0.0,0.0,0.0,0.0,0.0,0.0,0.0,0.0,0.0,0.0,0.0,0.0,0.0,0.0,0.0,0.0,0.0,0.0,0.0,0.0,0.0,0.0,0.0,0.0,0.0,0.0,0.0,0.0,0.0,0.0,0.0,0.0,0.0,0.0,0.0,0.0,0.0,0.0,0.0,0.0,0.0,0.0,-1.7573,-1.7136,-1.7041,-1.7018,-1.7041,-1.69,-1.7,0.0,0.0,0.0,0.0,0.0,0.0,0.0,0.0,0.0,0.0,0.0,0.0,0.0,0.0,0.0,0.0,0.0,0.0,0.0,0.0,0.0,0.0,0.0,0.0,0.0,0.0,0.0,0.0,0.0,0.0,0.0,0.0,0.0,0.0,0.0,0.0,0.0,0.0,0.0,0.0,0.0,0.0,0.0,0.0,0.0,0.0,0.0,0.0,0.0,0.0,0.0,0.0,0.0,0.0,0.0,0.0,0.0,0.0,0.0,0.0,0.0,0.0,0.0,0.0,0.0,0.0,0.0,0.0,0.0,0.0,0.0,0.0,0.0,0.0,0.0,0.0,0.0,0.0,0.0,0.0,0.0,0.0,0.0,0.0,0.0,0.0,0.0,0.0,0.0,0.0,0.0,0.0,0.0,0.0,0.0,0.0,0.0,0.0,0.0,0.0,0.0,0.0,0.0,0.0,0.0,0.0,0.0,0.0,0.0,-1.5955,-1.59,-1.5893,-1.5948,-1.5851,-1.6224,0.0,0.0,0.0,0.0,0.0,0.0,0.0,0.0,0.0,0.0,0.0,0.0,0.0,0.0,0.0,0.0,0.0,0.0,0.0,0.0,0.0,0.0,0.0,0.0,0.0,0.0,0.0,0.0,0.0,0.0,0.0,0.0,0.0,0.0,0.0,0.0,0.0,0.0,0.0,0.0,0.0,0.0,0.0,0.0,0.0,0.0,0.0,0.0,0.0,0.0,0.0,0.0,0.0,0.0,0.0,0.0,0.0,0.0,0.0,0.0,0.0,0.0,0.0,0.0,0.0,0.0,0.0,0.0,0.0,0.0,0.0,0.0,0.0,0.0,0.0,0.0,0.0,0.0,0.0,0.0,0.0,0.0,0.0,0.0,0.0,0.0,0.0,0.0,0.0,0.0,0.0,0.0,0.0,0.0,0.0,0.0,0.0,0.0,0.0,0.0,0.0,0.0,0.0,0.0,0.0,0.0,0.0,0.0,0.0,-1.4922,-1.5013,-1.509,-1.5144,-1.5311,-1.5733,-1.6319,0.0,0.0,0.0,0.0,0.0,0.0,0.0,0.0,0.0,0.0,0.0,0.0,0.0,0.0,0.0,0.0,0.0,0.0,0.0,0.0,0.0,0.0,0.0,0.0,0.0,0.0,0.0,0.0,0.0,0.0,0.0,0.0,0.0,0.0,0.0,0.0,0.0,0.0,0.0,0.0,0.0,0.0,0.0,0.0,0.0,0.0,0.0,0.0,0.0,0.0,0.0,0.0,0.0,0.0,0.0,0.0,0.0,0.0,0.0,0.0,0.0,0.0,0.0,0.0,0.0,0.0,0.0,0.0,0.0,0.0,0.0,0.0,0.0,0.0,0.0,0.0,0.0,0.0,0.0,0.0,0.0,0.0,0.0,0.0,0.0,0.0,0.0,0.0,0.0,0.0,0.0,0.0,0.0,0.0,0.0,0.0,0.0,0.0,0.0,0.0,0.0,0.0,0.0,0.0,0.0,0.0,0.0,0.0,-1.4004,-1.4273,-1.4427,-1.465,-1.5068,-1.5484,0.0,0.0,0.0,0.0,0.0,0.0,0.0,0.0,0.0,0.0,0.0,0.0,0.0,0.0,0.0,0.0,0.0,0.0,0.0,0.0,0.0,0.0,0.0,0.0,0.0,0.0,0.0,0.0,0.0,0.0,0.0,0.0,0.0,0.0,0.0,0.0,0.0,0.0,0.0,0.0,0.0,0.0,0.0,0.0,0.0,0.0,0.0,0.0,0.0,0.0,0.0,0.0,0.0,0.0,0.0,0.0,0.0,0.0,0.0,0.0,0.0,0.0,0.0,0.0,0.0,0.0,0.0,0.0,0.0,0.0,0.0,0.0,0.0,0.0,0.0,0.0,0.0,0.0,0.0,0.0,0.0,0.0,0.0,0.0,0.0,0.0,0.0,0.0,0.0,0.0,0.0,0.0,0.0,0.0,0.0,0.0,0.0,0.0,0.0,0.0,0.0,0.0,0.0,0.0,0.0,0.0,0.0,0.0,0.0,-1.2984,-1.2851,-1.3192,-1.4223,-1.4489,-1.4894,0.0,0.0,0.0,0.0,0.0,0.0,0.0,0.0,0.0,0.0,0.0,0.0,0.0,0.0,0.0,0.0,0.0,0.0,0.0,0.0,0.0,0.0,0.0,0.0,0.0,0.0,0.0,0.0,0.0,0.0,0.0,0.0,0.0,0.0,0.0,0.0,0.0,0.0,0.0,0.0,0.0,0.0,0.0,0.0,0.0,0.0,0.0,0.0,0.0,0.0,0.0,0.0,0.0,0.0,0.0,0.0,0.0,0.0,0.0,0.0,0.0,0.0,0.0,0.0,0.0,0.0,0.0,0.0,0.0,0.0,0.0,0.0,0.0,0.0,0.0,0.0,0.0,0.0,0.0,0.0,0.0,0.0,0.0,0.0,0.0,0.0,0.0,0.0,0.0,0.0,0.0,0.0,0.0,0.0,0.0,0.0,0.0,0.0,0.0,0.0,0.0,0.0,0.0,0.0,0.0,0.0,0.0,0.0,-1.2542,-1.2453,-1.2196,-1.2457,-1.3296,-1.3821,-1.4372,0.0,0.0,0.0,0.0,0.0,0.0,0.0,0.0,0.0,0.0,0.0,0.0,0.0,0.0,0.0,0.0,0.0,0.0,0.0,0.0,0.0,0.0,0.0,0.0,0.0,0.0,0.0,0.0,0.0,0.0,0.0,0.0,0.0,0.0,0.0,0.0,0.0,0.0,0.0,0.0,0.0,0.0,0.0,0.0,0.0,0.0,0.0,0.0,0.0,0.0,0.0,0.0,0.0,0.0,0.0,0.0,0.0,0.0,0.0,0.0,0.0,0.0,0.0,0.0,0.0,0.0,0.0,0.0,0.0,0.0,0.0,0.0,0.0,0.0,0.0,0.0,0.0,0.0,0.0,0.0,0.0,0.0,0.0,0.0,0.0,0.0,0.0,0.0,0.0,0.0,0.0,0.0,0.0,0.0,0.0,0.0,0.0,0.0,0.0,0.0,0.0,0.0,0.0,0.0,0.0,0.0,0.0,0.0,-1.2429,-1.2134,-1.1888,-1.1921,-1.2251,-1.3124,-1.3954,0.0,0.0,0.0,0.0,0.0,0.0,0.0,0.0,0.0,0.0,0.0,0.0,0.0,0.0,0.0,0.0,0.0,0.0,0.0,0.0,0.0,0.0,0.0,0.0,0.0,0.0,0.0,0.0,0.0,0.0,0.0,0.0,0.0,0.0,0.0,0.0,0.0,0.0,0.0,0.0,0.0,0.0,0.0,0.0,0.0,0.0,0.0,0.0,0.0,0.0,0.0,0.0,0.0,0.0,0.0,0.0,0.0,0.0,0.0,0.0,0.0,0.0,0.0,0.0,0.0,0.0,0.0,0.0,0.0,0.0,0.0,0.0,0.0,0.0,0.0,0.0,0.0,0.0,0.0,0.0,0.0,0.0,0.0,0.0,0.0,0.0,0.0,0.0,0.0,0.0,0.0,0.0,0.0,0.0,0.0,0.0,0.0,0.0,0.0,0.0,0.0,0.0,0.0,0.0,0.0,0.0,0.0,0.0,-1.1908,-1.1703,-1.1425,-1.1362,-1.1589,-1.2756,-1.3634,0.0,0.0,0.0,0.0,0.0,0.0,0.0,0.0,0.0,0.0,0.0,0.0,0.0,0.0,0.0,0.0,0.0,0.0,0.0,0.0,0.0,0.0,0.0,0.0,0.0,0.0,0.0,0.0,0.0,0.0,0.0,0.0,0.0,0.0,0.0,0.0,0.0,0.0,0.0,0.0,0.0,0.0,0.0,0.0,0.0,0.0,0.0,0.0,-2.1731,0.0,0.0,0.0,0.0,0.0,0.0,0.0,0.0,0.0,0.0,0.0,0.0,0.0,0.0,0.0,0.0,0.0,0.0,0.0,0.0,0.0,0.0,0.0,0.0,0.0,0.0,0.0,0.0,0.0,0.0,0.0,0.0,0.0,0.0,0.0,0.0,0.0,0.0,0.0,0.0,0.0,0.0,0.0,0.0,0.0,0.0,0.0,0.0,0.0,0.0,0.0,0.0,0.0,0.0,0.0,0.0,0.0,0.0,0.0,-1.1799,-1.1617,-1.1256,-1.1186,-1.1279,-1.2207,-1.3047,0.0,0.0,0.0,0.0,0.0,0.0,0.0,0.0,0.0,0.0,0.0,0.0,0.0,0.0,0.0,0.0,0.0,0.0,0.0,0.0,0.0,0.0,0.0,0.0,0.0,0.0,0.0,0.0,0.0,0.0,0.0,0.0,0.0,0.0,0.0,0.0,0.0,0.0,0.0,0.0,0.0,0.0,0.0,0.0,0.0,0.0,0.0,0.0,0.0,0.0,0.0,0.0,0.0,0.0,0.0,0.0,0.0,0.0,0.0,0.0,0.0,0.0,0.0,0.0,0.0,0.0,0.0,0.0,0.0,0.0,0.0,0.0,0.0,0.0,0.0,0.0,0.0,0.0,0.0,0.0,0.0,0.0,0.0,0.0,0.0,0.0,0.0,0.0,0.0,0.0,0.0,0.0,0.0,0.0,0.0,0.0,0.0,0.0,0.0,0.0,0.0,0.0,0.0,0.0,0.0,0.0,0.0,-1.1999,-1.1739,-1.1563,-1.1313,-1.1117,-1.1117,-1.1727,-1.2396,-1.3094,0.0,0.0,0.0,0.0,0.0,0.0,0.0,0.0,0.0,0.0,0.0,0.0,0.0,0.0,0.0,0.0,0.0,0.0,0.0,0.0,0.0,0.0,0.0,0.0,0.0,0.0,0.0,0.0,0.0,0.0,0.0,0.0,0.0,0.0,0.0,0.0,0.0,0.0,-2.1553,-2.1642,0.0,0.0,0.0,0.0,0.0,0.0,0.0,0.0,-2.1731,0.0,0.0,0.0,0.0,0.0,0.0,0.0,0.0,0.0,0.0,0.0,0.0,0.0,0.0,0.0,0.0,0.0,0.0,0.0,0.0,0.0,0.0,0.0,0.0,0.0,0.0,0.0,0.0,0.0,0.0,0.0,0.0,0.0,0.0,0.0,0.0,0.0,0.0,0.0,0.0,0.0,0.0,0.0,0.0,0.0,0.0,0.0,0.0,0.0,0.0,0.0,0.0,0.0,0.0,0.0,0.0,-1.1992,-1.1727,-1.1467,-1.119,-1.1135,-1.1117,-1.1117,-1.1384,-1.1878,-1.2698,0.0,0.0,0.0,0.0,0.0,0.0,0.0,0.0,0.0,0.0,0.0,0.0,0.0,0.0,0.0,0.0,0.0,0.0,0.0,0.0,0.0,0.0,0.0,0.0,0.0,0.0,0.0,0.0,0.0,0.0,0.0,0.0,0.0,0.0,0.0,0.0,0.0,0.0,0.0,-2.1087,-2.1087,0.0,0.0,0.0,0.0,0.0,0.0,0.0,0.0,-2.1731,0.0,0.0,0.0,0.0,0.0,0.0,0.0,0.0,0.0,0.0,0.0,0.0,0.0,0.0,0.0,0.0,0.0,0.0,0.0,0.0,0.0,0.0,0.0,0.0,0.0,0.0,0.0,0.0,0.0,0.0,0.0,0.0,0.0,0.0,0.0,0.0,0.0,0.0,0.0,0.0,0.0,0.0,0.0,0.0,0.0,0.0,0.0,0.0,0.0,0.0,0.0,0.0,0.0,0.0,0.0,-1.1926,-1.1661,-1.1395,-1.1129,-1.1117,-1.1117,-1.1117,-1.1401,-1.1902,0.0,0.0,0.0,0.0,0.0,0.0,0.0,0.0,0.0,0.0,0.0,0.0,0.0,0.0,0.0,0.0,0.0,0.0,0.0,0.0,0.0,0.0,0.0,0.0,0.0,0.0,0.0,0.0,0.0,0.0,0.0,0.0,0.0,0.0,0.0,0.0,0.0,0.0,0.0,0.0,-2.0997,-2.0997,-2.0997,0.0,0.0,0.0,0.0,0.0,0.0,-2.1651,-2.1731,0.0,0.0,0.0,0.0,0.0,0.0,0.0,0.0,0.0,0.0,0.0,0.0,0.0,0.0,0.0,0.0,0.0,0.0,0.0,0.0,0.0,0.0,0.0,0.0,0.0,0.0,0.0,0.0,0.0,0.0,0.0,0.0,0.0,0.0,0.0,0.0,0.0,0.0,0.0,0.0,0.0,0.0,0.0,0.0,0.0,0.0,0.0,0.0,0.0,0.0,0.0,0.0,0.0,0.0,0.0,-1.192,-1.1606,-1.1335,-1.1123,-1.1117,-1.1117,-1.1117,-1.1481,-1.1834,0.0,0.0,0.0,0.0,0.0,0.0,0.0,0.0,0.0,0.0,0.0,0.0,0.0,0.0,0.0,0.0,0.0,0.0,0.0,0.0,0.0,0.0,0.0,0.0,0.0,0.0,0.0,0.0,0.0,0.0,0.0,0.0,0.0,0.0,0.0,0.0,0.0,0.0,0.0,0.0,0.0,-2.0907,-2.0817,-2.0907,0.0,0.0,0.0,0.0,-2.1293,-2.1472,0.0,0.0,0.0,0.0,0.0,0.0,0.0,0.0,0.0,0.0,0.0,0.0,0.0,0.0,0.0,0.0,0.0,0.0,0.0,0.0,0.0,0.0,0.0,0.0,0.0,0.0,0.0,0.0,0.0,0.0,0.0,0.0,0.0,0.0,0.0,0.0,0.0,0.0,0.0,0.0,0.0,0.0,0.0,0.0,0.0,0.0,0.0,0.0,0.0,0.0,0.0,0.0,0.0,0.0,0.0,0.0,-1.1908,-1.1419,-1.1141,-1.1117,-1.1117,-1.1117,-1.1117,-1.1141,-1.1554,0.0,0.0,0.0,0.0,0.0,0.0,0.0,0.0,0.0,0.0,0.0,0.0,0.0,0.0,0.0,0.0,0.0,0.0,0.0,0.0,0.0,0.0,0.0,0.0,0.0,0.0,0.0,0.0,0.0,0.0,0.0,0.0,0.0,0.0,0.0,0.0,0.0,0.0,0.0,0.0,0.0,-2.0382,-2.0374,-2.0555,-2.0744,0.0,0.0,-2.1087,-2.1087,-2.1293,0.0,0.0,0.0,0.0,0.0,0.0,0.0,0.0,0.0,0.0,0.0,0.0,0.0,0.0,0.0,0.0,0.0,0.0,0.0,0.0,0.0,0.0,0.0,0.0,0.0,0.0,0.0,0.0,0.0,0.0,0.0,0.0,0.0,0.0,0.0,0.0,0.0,0.0,0.0,0.0,0.0,0.0,0.0,0.0,0.0,0.0,0.0,0.0,0.0,0.0,0.0,0.0,0.0,0.0,0.0,-1.1926,-1.1908,-1.1389,-1.1117,-1.1117,-1.1117,-1.1117,-1.1117,-1.1268,-1.1534,0.0,0.0,0.0,0.0,0.0,0.0,0.0,0.0,0.0,0.0,0.0,0.0,0.0,0.0,0.0,0.0,0.0,0.0,0.0,0.0,0.0,0.0,0.0,0.0,0.0,0.0,0.0,0.0,0.0,0.0,0.0,0.0,0.0,0.0,0.0,0.0,0.0,0.0,0.0,0.0,0.0,0.0,-2.0113,-2.0323,0.0,0.0,0.0,-2.1281,-2.1476,0.0,0.0,0.0,0.0,0.0,0.0,0.0,0.0,0.0,0.0,0.0,0.0,0.0,0.0,0.0,0.0,0.0,0.0,0.0,0.0,0.0,0.0,0.0,0.0,0.0,0.0,0.0,0.0,0.0,0.0,0.0,0.0,0.0,0.0,0.0,0.0,0.0,0.0,0.0,0.0,0.0,0.0,0.0,0.0,0.0,0.0,0.0,0.0,0.0,0.0,0.0,0.0,0.0,0.0,0.0,0.0,0.0,-1.1914,-1.1383,-1.1117,-1.1117,-1.1117,-1.1117,-1.1117,-1.1317,0.0,0.0,0.0,0.0,0.0,0.0,0.0,0.0,0.0,0.0,0.0,0.0,0.0,0.0,0.0,0.0,0.0,0.0,0.0,0.0,0.0,0.0,0.0,0.0,0.0,0.0,0.0,-1.7465,0.0,0.0,0.0,0.0,0.0,0.0,0.0,0.0,0.0,0.0,0.0,0.0,0.0,0.0,-1.9625,-1.9878,-1.9993,-2.0338,0.0,0.0,-2.1413,-2.1596,-2.1796,-2.2125,0.0,0.0,0.0,0.0,0.0,0.0,0.0,0.0,0.0,0.0,0.0,0.0,0.0,0.0,0.0,0.0,0.0,0.0,0.0,0.0,0.0,0.0,0.0,0.0,0.0,0.0,0.0,0.0,0.0,0.0,0.0,0.0,0.0,0.0,0.0,0.0,0.0,0.0,0.0,0.0,0.0,0.0,0.0,0.0,0.0,0.0,0.0,0.0,0.0,0.0,0.0,0.0,0.0,0.0,0.0,-1.1902,-1.1389,-1.1111,-1.1117,-1.1117,-1.1117,-1.1117,-1.1135,-1.1389,0.0,0.0,0.0,0.0,0.0,0.0,0.0,0.0,0.0,0.0,0.0,0.0,0.0,0.0,0.0,0.0,0.0,0.0,0.0,0.0,0.0,0.0,0.0,0.0,0.0,0.0,0.0,0.0,0.0,0.0,0.0,0.0,0.0,0.0,0.0,0.0,0.0,0.0,0.0,0.0,0.0,-1.9328,-1.9352,-1.9822,-2.0241,0.0,0.0,-2.1029,-2.1038,-2.1509,-2.1918,-2.2292,0.0,0.0,0.0,0.0,0.0,0.0,0.0,0.0,0.0,0.0,0.0,0.0,0.0,0.0,0.0,0.0,0.0,0.0,0.0,0.0,0.0,0.0,0.0,0.0,0.0,0.0,0.0,0.0,0.0,0.0,0.0,0.0,0.0,0.0,0.0,0.0,0.0,0.0,0.0,0.0,0.0,0.0,0.0,0.0,0.0,0.0,0.0,0.0,0.0,0.0,0.0,0.0,0.0,-1.1519,-1.1513,-1.1006,-1.0743,-1.0743,-1.0812,-1.0893,-1.0887,-1.1031,-1.1292,0.0,0.0,0.0,0.0,0.0,0.0,0.0,0.0,0.0,0.0,0.0,0.0,0.0,0.0,0.0,0.0,0.0,0.0,0.0,0.0,0.0,0.0,0.0,0.0,0.0,0.0,0.0,0.0,-1.673,-1.6648,-1.6484,0.0,0.0,0.0,0.0,0.0,0.0,0.0,0.0,0.0,0.0,-1.8542,-1.914,-1.9414,0.0,0.0,-2.0821,-2.1113,-2.1611,-2.19,-2.215,-2.2711,-2.2828,0.0,0.0,0.0,0.0,0.0,0.0,0.0,0.0,0.0,0.0,0.0,0.0,0.0,0.0,0.0,0.0,0.0,0.0,0.0,0.0,0.0,0.0,0.0,0.0,0.0,0.0,0.0,0.0,0.0,0.0,0.0,0.0,0.0,0.0,0.0,0.0,0.0,0.0,0.0,0.0,0.0,0.0,0.0,0.0,0.0,0.0,0.0,0.0,0.0,0.0,0.0,0.0,-1.1358,-1.1284,-1.085,-1.0593,-1.0513,-1.0663,-1.0738,-1.0738,-1.0818,-1.1093,0.0,0.0,0.0,0.0,0.0,0.0,0.0,0.0,0.0,0.0,0.0,0.0,0.0,0.0,0.0,0.0,0.0,0.0,0.0,0.0,0.0,0.0,0.0,0.0,0.0,0.0,0.0,0.0,-1.673,-1.6696,-1.6534,0.0,0.0,0.0,0.0,0.0,0.0,0.0,0.0,0.0,0.0,-1.7963,-1.8701,-1.9066,-1.952,-2.0269,-2.0719,-2.1121,-2.1623,-2.1928,-2.2224,-2.2636,0.0,0.0,0.0,0.0,0.0,0.0,0.0,0.0,0.0,0.0,0.0,0.0,0.0,0.0,0.0,0.0,0.0,0.0,0.0,0.0,0.0,0.0,0.0,0.0,0.0,0.0,0.0,0.0,0.0,0.0,-0.6086,0.0,0.0,0.0,0.0,0.0,0.0,0.0,0.0,0.0,0.0,0.0,0.0,0.0,0.0,0.0,0.0,0.0,0.0,0.0,0.0,0.0,0.0,-1.1518,-1.1289,-1.0942,-1.0775,-1.0524,-1.0513,-1.0513,-1.0513,-1.0513,-1.0714,-1.1218,0.0,0.0,0.0,0.0,0.0,0.0,0.0,0.0,0.0,0.0,0.0,0.0,0.0,0.0,0.0,0.0,0.0,0.0,0.0,0.0,0.0,0.0,0.0,0.0,0.0,0.0,-1.673,-1.673,-1.6708,0.0,0.0,0.0,0.0,0.0,0.0,0.0,0.0,0.0,0.0,-1.7309,-1.7603,-1.8034,-1.875,-1.925,-1.9383,-2.0205,-2.0925,-2.0917,-2.1623,-2.2123,0.0,0.0,0.0,0.0,0.0,0.0,0.0,0.0,0.0,0.0,0.0,0.0,0.0,0.0,0.0,0.0,0.0,0.0,0.0,0.0,0.0,0.0,0.0,0.0,0.0,0.0,0.0,-0.5733,-0.5733,0.0,0.0,0.0,0.0,0.0,0.0,0.0,0.0,0.0,0.0,0.0,-1.0294,-1.0472,0.0,0.0,0.0,0.0,0.0,0.0,0.0,0.0,0.0,0.0,0.0,0.0,-1.0621,-1.04,-1.0322,-1.0081,-0.9927,-1.0143,-1.0293,-1.0293,-1.0443,-1.0644,-1.0985,0.0,0.0,0.0,0.0,0.0,0.0,0.0,0.0,0.0,0.0,0.0,0.0,0.0,0.0,0.0,0.0,0.0,0.0,0.0,0.0,0.0,0.0,0.0,0.0,0.0,-1.673,0.0,0.0,0.0,0.0,0.0,0.0,0.0,0.0,0.0,0.0,0.0,-1.6517,-1.6817,-1.6706,-1.6998,-1.761,-1.7941,-1.8429,0.0,0.0,0.0,0.0,0.0,0.0,0.0,0.0,0.0,0.0,0.0,0.0,0.0,0.0,-2.3447,-2.3845,-2.4044,-2.4161,-2.4161,0.0,0.0,0.0,0.0,0.0,0.0,0.0,0.0,0.0,0.0,0.0,0.0,0.0,0.0,-0.5733,0.0,-0.5733,0.0,0.0,0.0,0.0,0.0,0.0,0.0,0.0,-0.9349,-0.9607,-1.0207,-1.0294,-1.0376,0.0,-1.0641,-1.0733,0.0,0.0,0.0,0.0,0.0,0.0,0.0,0.0,-1.0322,-1.0105,-0.9958,-0.9812,-0.9597,-0.9808,-0.9916,-0.9992,-1.0218,-1.0447,-1.0616,-1.0939,-1.1298,0.0,0.0,0.0,0.0,0.0,0.0,0.0,0.0,0.0,0.0,0.0,0.0,0.0,0.0,0.0,0.0,0.0,0.0,0.0,0.0,0.0,0.0,0.0,-1.673,0.0,0.0,0.0,0.0,0.0,0.0,0.0,0.0,0.0,-1.6749,-1.6346,-1.6216,-1.6504,-1.6414,-1.6522,-1.7226,0.0,0.0,0.0,0.0,0.0,0.0,0.0,-2.1121,-2.1725,-2.203,-2.2224,-2.2544,-2.2653,-2.2644,-2.2846,0.0,0.0,-2.3546,-2.3854,-2.4053,-2.4053,-2.4143,-2.4161,-2.4161,-2.4161,-2.4161,0.0,0.0,0.0,0.0,0.0,0.0,0.0,0.0,-0.5733,-0.5733,0.0,-0.5733,0.0,0.0,0.0,0.0,0.0,-0.822,0.0,0.0,-0.9349,-0.9515,-1.0038,-1.0207,-1.0294,-1.0294,-1.0559,-1.0554,-1.0294,-1.0554,0.0,0.0,0.0,0.0,0.0,0.0,-1.053,-1.0223,-1.0028,-0.9807,-0.9582,-0.9381,-0.9418,-0.9635,-0.9997,-1.0223,-1.0229,-1.061,-1.0985,-1.1158,-1.1948,0.0,0.0,0.0,0.0,0.0,0.0,0.0,0.0,0.0,0.0,0.0,0.0,0.0,0.0,0.0,0.0,0.0,0.0,0.0,0.0,-1.673,0.0,0.0,0.0,0.0,0.0,0.0,0.0,0.0,0.0,0.0,-1.6299,-1.6026,-1.603,-1.6247,0.0,0.0,0.0,0.0,-1.7582,-1.7582,-1.8541,-1.9376,-1.9702,-2.0411,-2.0925,-2.124,0.0,0.0,-2.2544,-2.2544,-2.2653,-2.2653,-2.2846,-2.3046,-2.3347,-2.3555,-2.3755,-2.3755,-2.3945,-2.4152,-2.4161,-2.4152,-2.4152,-0.528,0.0,0.0,0.0,0.0,-0.5733,-0.5733,-0.5733,-0.5733,-0.5733,-0.5733,-0.5733,0.0,0.0,0.0,0.0,0.0,0.0,-0.8652,-0.9262,-0.9349,-0.9519,-1.0038,-1.0038,-0.9946,-0.9777,-0.9864,-0.9777,-0.9607,-0.9694,-0.9777,-0.9951,0.0,0.0,0.0,0.0,-0.9588,-0.9306,-0.9415,-0.9367,-0.9076,-0.9346,-0.9557,-0.9632,-0.9708,-0.9771,-0.9771,-1.0214,-1.0483,-1.0734,-1.1449,0.0,0.0,0.0,0.0,0.0,0.0,0.0,0.0,0.0,0.0,0.0,0.0,0.0,0.0,0.0,0.0,0.0,0.0,0.0,-1.673,-1.673,-1.6841,0.0,0.0,0.0,0.0,0.0,0.0,0.0,0.0,0.0,-1.6227,-1.6094,-1.5953,0.0,0.0,-1.6119,-1.6418,-1.653,-1.6849,-1.7483,0.0,0.0,0.0,-2.0038,-2.0584,-2.125,-2.1796,-2.2131,-2.2224,-2.2443,-2.2653,-2.2653,-2.2644,-2.2754,-2.2854,-2.3247,-2.3447,-2.3546,-2.3546,-2.3655,-2.3646,-2.3746,-2.3954,-0.5137,-0.5408,-0.5594,-0.5733,-0.5733,-0.5733,-0.5733,-0.5733,-0.5733,-0.5733,-0.5733,-0.5733,-0.5733,-0.5911,-0.6435,0.0,0.0,0.0,-0.874,-0.9349,-0.9345,-0.9607,-0.9864,-0.9864,-0.9689,-0.9519,-0.9519,-0.9345,-0.9174,-0.9082,-0.899,-0.9074,0.0,0.0,-0.899,-0.899,-0.8935,-0.8815,-0.8747,-0.8826,-0.8792,-0.9128,-0.9352,-0.9458,-0.9577,-0.9622,-0.9607,-0.9903,-1.0198,-1.0495,-1.1056,-1.1642,0.0,0.0,0.0,0.0,0.0,0.0,0.0,0.0,0.0,0.0,0.0,-1.673,0.0,0.0,0.0,0.0,-1.673,-1.673,-1.673,-1.6865,0.0,0.0,0.0,0.0,0.0,0.0,0.0,-1.7105,-1.666,-1.6314,-1.6259,-1.6106,-1.5872,-1.5866,-1.5895,-1.5998,-1.6111,0.0,-1.653,-1.716,-1.7682,-1.8355,-1.9384,-2.0,-2.0619,-2.1433,-2.1898,-2.2189,-2.2148,-2.2333,-2.2544,-2.2653,-2.2653,-2.2653,-2.2653,-2.2846,-2.3147,-2.3247,-2.3356,-2.3356,-2.3456,-2.3555,-2.3655,-0.5041,-0.531,-0.558,-0.5668,-0.5746,-0.5738,-0.5733,-0.5733,-0.5733,-0.5733,-0.5733,-0.5733,-0.5908,-0.6171,-0.6786,0.0,-0.7944,-0.8648,-0.9087,-0.9349,-0.9519,-0.9607,-0.9607,-0.9607,-0.9432,-0.9257,-0.9262,-0.9087,-0.8823,-0.864,-0.8372,-0.8113,-0.8556,-0.8644,-0.8548,-0.8548,-0.8544,-0.8456,-0.8303,-0.8304,-0.856,-0.8796,-0.8937,-0.9269,-0.9423,-0.9565,-0.9602,-0.9744,-0.9985,-1.0304,-1.0776,-1.1334,-1.2135,0.0,0.0,0.0,0.0,0.0,0.0,0.0,0.0,0.0,0.0,0.0,0.0,0.0,0.0,0.0,-1.673,0.0,-1.6778,-1.708,0.0,0.0,0.0,-1.8131,-1.7704,-1.7919,-1.7871,-1.714,0.0,0.0,-1.6317,0.0,-1.5891,-1.5885,-1.5885,-1.5885,-1.5885,-1.6111,-1.6324,-1.6781,-1.7407,-1.8245,-1.9212,-2.0178,-2.1002,-2.1682,-2.2127,-2.2212,-2.2231,-2.241,-2.2603,-2.2621,-2.2569,-2.2653,-2.2653,-2.2644,-2.2653,-2.2946,-2.3147,-2.3356,-2.3347,-2.3356,-2.3347,-0.4944,-0.5036,-0.5467,-0.5765,-0.5855,-0.5771,-0.5733,-0.5733,-0.5733,-0.5733,-0.5733,-0.5733,-0.5908,-0.6343,-0.6874,-0.7408,-0.7944,-0.8464,-0.8903,-0.9262,-0.9349,-0.9428,-0.9602,-0.9428,-0.9262,-0.8995,-0.8815,-0.8636,-0.8376,-0.8204,-0.7848,-0.7404,-0.7492,-0.758,-0.7753,-0.7753,-0.7753,-0.7753,-0.7716,-0.7876,-0.8305,-0.8312,-0.8472,-0.8804,-0.8995,-0.9141,-0.9333,-0.9585,-0.9827,-1.0316,-1.0778,-1.1172,-1.1483,-1.2301,0.0,0.0,0.0,0.0,0.0,0.0,0.0,0.0,0.0,-1.6566,-1.6648,0.0,-1.673,0.0,-1.673,-1.6849,-1.7119,-1.7231,0.0,0.0,-1.8208,-1.8226,-1.8026,-1.8074,-1.8008,-1.7457,-1.715,-1.6832,-1.6596,-1.638,-1.6111,-1.5891,-1.5885,-1.5885,-1.5885,-1.5998,-1.6285,-1.6902,-1.7443,-1.8183,-1.9486,-2.0641,-2.1368,-2.1564,-2.2068,-2.2454,-2.2559,-2.2641,-2.2774,-2.2954,-2.2732,-2.2679,-2.267,-2.2653,-2.2662,-2.2644,-2.2754,-2.2754,-2.2754,-2.2955,-2.3055,-0.488,-0.5072,-0.542,-0.5746,-0.5865,-0.585,-0.586,-0.5806,-0.5809,-0.5782,-0.5733,-0.5908,-0.6257,-0.6612,-0.7231,-0.7676,-0.8028,-0.8556,-0.8907,-0.9087,-0.9257,-0.9262,-0.9257,-0.9078,-0.8815,-0.8556,-0.8376,-0.8113,-0.7852,-0.7676,-0.7319,-0.6966,-0.6877,-0.6786,-0.6874,-0.6959,-0.7048,-0.7048,-0.7231,-0.7496,-0.7665,-0.7842,-0.8143,-0.8574,-0.873,-0.8888,-0.9128,-0.9391,-0.9722,-0.997,-1.0497,-1.0947,-1.1297,-1.1952,-1.2369,0.0,0.0,0.0,0.0,0.0,0.0,0.0,0.0,0.0,0.0,0.0,-1.6566,0.0,-1.6881,-1.7064,-1.7254,-1.7556,-1.789,-1.8263,-1.8438,-1.8438,-1.8265,-1.8384,-1.823,-1.7662,-1.7475,-1.7151,-1.6797,-1.6424,-1.6211,-1.5891,-1.5885,-1.5885,-1.5885,-1.5885,-1.6196,-1.6894,-1.738,-1.8209,-1.9913,-2.1151,-2.1823,-2.1838,-2.2196,-2.2697,-2.2839,-2.287,-2.306,-2.3235,-2.3177,-2.304,-2.304,-2.304,-2.3006,-2.2835,-2.28,-2.2732,-2.2687,-2.2745,-2.2846,-0.4935,-0.5131,-0.5349,-0.5603,-0.5789,-0.5981,-0.5957,-0.5926,-0.5926,-0.5871,-0.5779,-0.6215,-0.6573,-0.685,-0.7649,-0.8001,-0.8267,-0.8714,-0.8983,-0.8979,-0.9244,-0.9147,-0.8857,-0.8677,-0.8484,-0.8113,-0.794,-0.7676,-0.7415,-0.7143,-0.6881,-0.6707,-0.6539,-0.6284,-0.6109,-0.6299,-0.6376,-0.6343,-0.6795,-0.7061,-0.7051,-0.7312,-0.7845,-0.8368,-0.8548,-0.8645,-0.8832,-0.9342,-0.9602,-0.9682,-1.0268,-1.0778,-1.123,-1.1516,-1.1952,0.0,-1.2619,0.0,0.0,0.0,0.0,0.0,0.0,0.0,0.0,-1.6394,-1.6507,-1.6711,-1.7096,-1.731,-1.7405,-1.7946,-1.8319,-1.8375,-1.8645,-1.8759,-1.8543,-1.865,-1.8499,-1.8031,-1.774,-1.7405,-1.6903,-1.653,-1.6211,-1.5998,-1.5891,-1.5885,-1.5885,-1.5885,-1.6107,-1.672,-1.7382,-1.8572,-2.023,-2.1402,-2.1994,-2.2061,-2.2553,-2.2881,-2.293,-2.3046,-2.3316,-2.3627,-2.3665,-2.3631,-2.3657,-2.3639,-2.3537,-2.3246,-2.3186,-2.3049,-2.2663,-2.2653,-2.2653,-0.4834,-0.4935,-0.512,-0.5313,-0.5411,-0.5586,-0.5858,-0.6053,-0.6051,-0.6037,-0.6021,-0.6485,-0.6765,-0.6858,-0.7784,-0.8244,-0.8336,-0.8986,-0.9267,-0.9267,-0.9359,-0.9188,-0.8869,-0.8595,-0.8341,-0.7948,-0.7496,-0.7231,-0.7143,-0.6786,-0.6435,-0.6263,-0.6277,-0.6239,-0.5968,0.0,0.0,0.0,-0.6526,-0.67,-0.652,-0.6962,-0.7228,-0.7408,-0.7933,0.0,-0.8674,-0.9113,-0.9548,-0.9894,-1.024,0.0,0.0,0.0,0.0,0.0,0.0,0.0,0.0,0.0,0.0,0.0,-1.4496,-1.5068,-1.5733,-1.6147,-1.6601,-1.7151,-1.7247,-1.7501,-1.8057,-1.8216,-1.8414,-1.87,-1.8788,-1.8846,-1.8934,-1.8989,-1.8935,-1.8657,-1.8355,-1.8039,-1.7463,-1.6948,-1.653,-1.6211,-1.6004,-1.5885,-1.5897,-1.5903,-1.6186,-1.6975,-1.8133,-1.9192,-2.0249,-2.1081,-2.1858,-2.2024,-2.2581,-2.2983,-2.3229,-2.3316,-2.3378,-2.3695,-2.3772,-2.3682,-2.3682,-2.3665,-2.3691,-2.358,-2.3562,-2.3357,-2.2698,-2.2653,-2.2653,-0.4902,0.0,-0.5058,-0.514,0.0,-0.5436,-0.5676,-0.5866,-0.5909,-0.6045,-0.6086,-0.6558,-0.6841,-0.7026,-0.7872,-0.8337,-0.8524,-0.8995,-0.9283,-0.9283,-0.9088,-0.8946,-0.8766,-0.8402,-0.7996,-0.7734,-0.7366,-0.709,-0.6907,-0.6536,-0.6356,-0.6267,-0.6244,-0.6182,-0.5994,-0.6056,-0.6089,-0.5998,-0.6114,-0.626,-0.6257,-0.6343,-0.6605,-0.7139,0.0,0.0,0.0,0.0,0.0,0.0,0.0,0.0,0.0,0.0,0.0,-1.1699,-1.1952,-1.2118,-1.2375,-1.279,-1.3137,-1.3392,-1.3899,-1.4657,-1.565,-1.63,-1.6813,-1.727,-1.758,-1.7922,-1.8255,-1.8454,-1.8629,-1.8804,-1.8827,-1.8877,-1.913,-1.9283,-1.9224,-1.9048,-1.8964,-1.8534,-1.7694,-1.7371,-1.6948,-1.643,-1.6211,-1.6047,-1.606,-1.6079,-1.6496,-1.7472,-1.8473,-1.9339,-2.0162,-2.1081,-2.1767,-2.2116,-2.2562,-2.3127,-2.3472,-2.343,-2.3529,-2.3734,-2.3804,-2.3796,-2.3796,-2.3796,-2.3745,-2.356,-2.3617,-2.3564,-2.3012,-2.2852,-2.2826,-0.4996,-0.4988,-0.5103,-0.5166,-0.5164,-0.5343,-0.5436,-0.5532,0.0,0.0,0.0,-0.653,-0.6908,-0.7289,-0.7949,-0.8426,-0.8706,-0.8902,-0.9001,-0.9001,-0.88,-0.8687,-0.8566,-0.8103,-0.7712,-0.7409,-0.712,-0.6932,-0.6747,-0.6458,-0.6361,-0.6367,-0.62,-0.613,-0.6143,-0.613,-0.607,-0.5966,-0.5833,-0.5841,-0.5997,-0.5902,-0.6166,-0.6874,-0.7051,-0.7404,-0.8021,-0.8372,-0.8815,-0.9174,-0.9694,-1.0212,-1.0641,-1.1008,-1.1278,-1.1527,-1.1613,-1.1699,-1.1957,-1.2289,-1.254,-1.2705,-1.3613,-1.4572,-1.5656,-1.6415,-1.697,-1.7368,-1.7969,-1.8319,-1.839,-1.8645,-1.8827,-1.8827,-1.8883,-1.9074,-1.9423,-1.9563,-1.9521,-1.9434,-1.9317,-1.8952,-1.8003,-1.7687,-1.7272,-1.6537,-1.6324,-1.634,-1.6393,-1.641,-1.6814,-1.7793,-1.8455,-1.9107,-2.0155,-2.0845,-2.1539,-2.1995,-2.257,-2.3022,-2.336,-2.348,-2.3585,-2.3776,-2.3913,-2.3888,-2.3904,-2.3863,-2.3813,-2.3516,-2.3678,-2.3821,-2.351,-2.3368,-2.3314,-0.4874,-0.5081,-0.5095,-0.5056,-0.5049,-0.4968,-0.5037,-0.5238,-0.552,-0.5807,-0.5996,-0.6289,-0.6685,-0.7279,-0.7776,-0.8171,-0.8466,-0.8758,-0.8852,0.0,-0.8758,-0.8485,-0.7973,-0.7876,-0.7521,-0.6941,-0.6646,-0.6455,-0.6455,-0.6272,-0.6086,-0.6194,-0.6192,-0.629,-0.6372,-0.6293,-0.6236,-0.6211,-0.5898,-0.5737,-0.5735,-0.5997,-0.6171,-0.6257,-0.6789,-0.7143,-0.7231,-0.8109,-0.8727,-0.8999,-0.9616,-1.0139,-1.0381,-1.0738,-1.1008,-1.1094,-1.1267,-1.144,-1.1699,-1.1785,-1.2123,-1.2717,-1.3793,-1.4888,-1.5818,-1.6204,-1.682,-1.7726,-1.8076,-1.843,-1.8708,-1.8796,-1.8835,-1.8859,-1.9113,-1.9423,-1.9765,-1.9901,-2.0039,-2.0169,-1.9657,-1.9168,-1.8624,-1.7996,-1.7371,-1.6736,-1.6486,-1.6421,-1.6654,-1.6839,-1.7218,-1.7906,-1.8237,-1.8971,-2.004,-2.0608,-2.1181,-2.1995,-2.2456,-2.2796,-2.3022,-2.336,-2.3472,-2.3585,-2.3697,-2.3801,-2.3801,-2.3921,-2.3768,-2.3686,-2.3908,-2.4225,-2.4132,-2.4073,-2.3956,-0.4857,-0.5171,-0.5084,-0.5045,-0.5039,-0.4947,-0.501,-0.511,-0.5157,-0.5436,-0.5839,-0.6237,-0.6537,-0.6836,-0.7437,-0.7836,-0.8031,-0.8233,-0.8333,-0.8333,-0.8226,-0.7994,-0.7736,-0.7537,-0.7214,-0.6769,-0.6669,-0.6566,-0.6371,-0.6274,-0.6274,-0.6279,-0.6333,-0.6385,-0.6429,-0.6385,-0.6328,-0.6363,-0.5997,-0.585,-0.5831,-0.6006,-0.6062,-0.6088,-0.652,-0.6874,-0.7139,-0.7848,-0.8376,-0.8911,-0.9441,-0.9873,-1.0294,-1.0472,-1.0743,-1.1008,-1.1094,-1.1267,-1.144,-1.1613,-1.2008,-1.2835,-1.3399,-1.4311,-1.55,-1.6234,-1.6988,-1.7838,-1.8206,-1.8478,-1.8812,-1.8827,-1.8907,-1.9113,-1.928,-1.9582,-2.0059,-2.0182,-2.0342,-2.0451,-2.0094,-1.9569,-1.916,-1.8422,-1.7793,-1.708,-1.6756,-1.6594,-1.6857,-1.7129,-1.7536,-1.7902,-1.8229,-1.8868,-1.9809,-2.0378,-2.1067,-2.1995,-2.2343,-2.2683,-2.2901,-2.3135,-2.3247,-2.3247,-2.3352,-2.3352,-2.3464,-2.3464,-2.3464,-2.3472,-2.3809,-2.4041,-2.4119,-2.4327,-2.4359,-0.4833,-0.5156,-0.5175,-0.5126,-0.5104,-0.5032,-0.5002,-0.4994,-0.4926,-0.5099,-0.55,-0.5962,-0.6137,-0.6337,-0.7033,-0.7335,-0.7434,-0.7739,-0.7839,-0.7839,-0.7633,-0.7531,-0.7431,-0.7238,-0.6939,-0.6742,-0.6742,-0.6642,-0.6437,-0.6437,-0.6437,-0.6437,-0.6437,-0.6437,-0.6437,-0.6437,-0.6393,-0.6404,-0.6211,-0.5997,-0.595,-0.6009,-0.6042,-0.6045,-0.6272,-0.652,-0.6962,-0.7496,-0.8116,-0.8736,-0.9178,-0.9699,-1.012,-1.0299,-1.0564,-1.0921,-1.1008,-1.1089,-1.1267,-1.1576,-1.2122,-1.2751,-1.3147,-1.3839,-1.5055,-1.6097,-1.696,-1.7637,-1.8218,-1.8558,-1.8666,-1.8923,-1.9066,-1.9344,-1.9526,-1.982,-2.0297,-2.0456,-2.0506,-2.0577,-2.0292,-1.9879,-1.9368,-1.8848,-1.8044,-1.7336,-1.6894,-1.6857,-1.7074,-1.7316,-1.7596,-1.7843,-1.8194,-1.8771,-1.9584,-2.0155,-2.0952,-2.1881,-2.223,-2.257,-2.2901,-2.3014,-2.3014,-2.3014,-2.3014,-2.3014,-2.3014,-2.3014,-2.3014,-2.3127,-2.3464,-2.3809,-2.3921,-2.4248,-2.4539,-0.4693,-0.4906,-0.5158,-0.5181,-0.5116,-0.5206,-0.5204,-0.5092,-0.5084,-0.5084,-0.5162,-0.5216,-0.5548,-0.6039,-0.6345,-0.6642,-0.6848,-0.7138,-0.7238,-0.7238,-0.7235,-0.7138,-0.6842,-0.6842,-0.6742,-0.6439,-0.6437,-0.6437,-0.6337,-0.6437,-0.6437,-0.6437,-0.6437,-0.6437,-0.6437,-0.6437,-0.6431,-0.642,-0.641,-0.6295,-0.6175,-0.5961,-0.5896,-0.5888,-0.6051,-0.6257,-0.652,-0.7136,-0.7757,-0.8288,-0.8907,-0.9432,-0.9694,-1.0038,-1.0467,-1.0733,-1.0921,-1.1089,-1.1278,-1.1718,-1.2032,-1.2165,-1.3191,-1.3932,-1.4397,-1.5356,-1.6344,-1.7181,-1.8071,-1.8481,-1.8597,-1.9028,-1.9328,-1.9479,-1.9916,-2.0337,-2.0424,-2.0686,-2.0893,-2.0909,-2.0395,-1.9975,-1.9672,-1.8966,-1.8041,-1.7373,-1.7148,-1.7044,-1.7141,-1.7322,-1.7485,-1.7602,-1.7948,-1.8655,-1.9236,-1.9924,-2.073,-2.1539,-2.1881,-2.2335,-2.2788,-2.3022,-2.3014,-2.3014,-2.3014,-2.3014,-2.3014,-2.3014,-2.3014,-2.3014,-2.3352,-2.3585,-2.3809,-2.4033,-2.4164,-0.437,-0.47,-0.4893,-0.5084,-0.5265,-0.5322,-0.5297,-0.5184,-0.513,-0.5106,-0.51,-0.5133,-0.5309,-0.5723,-0.5967,-0.6139,-0.6238,-0.6271,-0.6237,-0.6234,-0.6237,-0.6237,-0.6137,-0.6137,-0.6037,-0.5934,-0.6039,-0.6142,-0.6139,-0.6337,-0.6437,-0.6437,-0.6437,-0.6437,-0.6437,-0.6437,-0.6437,-0.6437,-0.6437,-0.6388,-0.6287,-0.6108,-0.5975,-0.5899,-0.6059,-0.6169,-0.6432,-0.6959,-0.758,-0.8201,-0.8732,-0.9257,-0.9607,-0.9951,-1.0212,-1.0472,-1.0953,-1.1294,-1.1558,-1.1863,-1.215,-1.2481,-1.2949,-1.3502,-1.4218,-1.4816,-1.554,-1.6393,-1.7239,-1.8069,-1.8644,-1.8989,-1.9415,-1.9908,-2.0241,-2.0472,-2.0694,-2.0829,-2.0925,-2.0822,-2.0395,-2.0086,-1.9806,-1.9005,-1.8252,-1.7668,-1.7553,-1.7365,-1.7292,-1.7418,-1.7467,-1.7602,-1.7843,-1.8428,-1.8997,-1.9809,-2.0507,-2.1203,-2.1774,-2.2335,-2.2683,-2.2909,-2.3014,-2.3014,-2.3014,-2.3014,-2.3014,-2.3014,-2.3014,-2.3014,-2.3247,-2.3585,-2.3809,-2.3921,-2.4033,-0.4148,-0.4369,-0.4706,-0.4931,-0.515,-0.5088,-0.5062,-0.5052,-0.4992,-0.5074,-0.5074,-0.5184,-0.5291,-0.5491,-0.5591,-0.5735,-0.5726,-0.5656,-0.5722,-0.5717,-0.5694,-0.5679,-0.5677,-0.5646,-0.5534,-0.5636,-0.5839,-0.5942,-0.6042,-0.6242,-0.6439,-0.6437,-0.6437,-0.6437,-0.6437,-0.6437,-0.6437,-0.6437,-0.6437,-0.6437,-0.6407,-0.6241,-0.6094,-0.6002,-0.607,-0.6184,-0.6542,-0.6863,-0.7382,-0.8093,-0.8673,-0.9082,-0.9519,-0.9864,-1.0154,-1.0392,-1.1071,-1.1463,-1.1695,-1.2016,-1.2319,-1.2675,-1.2747,-1.3149,-1.3872,-1.4394,-1.491,-1.5569,-1.6517,-1.7487,-1.8434,-1.8943,-1.938,-2.003,-2.0255,-2.0444,-2.0664,-2.0814,-2.0822,-2.0719,-2.0395,-2.0021,-1.9732,-1.9113,-1.8561,-1.8007,-1.783,-1.759,-1.7541,-1.7479,-1.7485,-1.7485,-1.7843,-1.8194,-1.8765,-1.9461,-2.0277,-2.0974,-2.1539,-2.2002,-2.2456,-2.2796,-2.3014,-2.2901,-2.3014,-2.3014,-2.3014,-2.3014,-2.3014,-2.3014,-2.3239,-2.3472,-2.3585,-2.3585,-2.3697,-0.4038,-0.4148,-0.4596,-0.4706,-0.4479,-0.436,-0.436,-0.4578,-0.4801,-0.4914,-0.4906,-0.5246,-0.5365,-0.5347,-0.5508,-0.5532,-0.553,-0.5721,-0.5817,-0.5805,-0.5726,-0.5789,-0.5782,-0.5686,-0.5541,-0.5562,-0.5653,-0.5746,-0.5944,-0.6247,-0.6445,-0.6337,-0.6337,-0.6437,-0.6437,-0.6437,-0.6437,-0.6437,-0.6437,-0.6437,-0.6426,-0.632,-0.6257,-0.6233,-0.6127,-0.6332,-0.6701,-0.6968,-0.7356,-0.8094,-0.8581,-0.9016,-0.9358,-0.9795,-1.024,-1.0587,-1.1079,-1.1457,-1.1752,-1.2165,-1.2409,-1.2447,-1.2805,-1.313,-1.3238,-1.3841,-1.4522,-1.5139,-1.5869,-1.6787,-1.7732,-1.8639,-1.9182,-1.9628,-1.9888,-2.0238,-2.0506,-2.0514,-2.0522,-2.0522,-2.0323,-1.9867,-1.9177,-1.9181,-1.8778,-1.8281,-1.8012,-1.7818,-1.7584,-1.7485,-1.7485,-1.7602,-1.7726,-1.8077,-1.8428,-1.912,-1.9809,-2.0385,-2.0974,-2.1554,-2.2124,-2.2691,-2.2796,-2.2909,-2.3014,-2.3014,-2.3014,-2.3014,-2.3014,-2.3014,-2.3014,-2.3127,-2.3247,-2.3127,-2.3247,-0.3813,-0.4038,-0.4035,-0.4145,-0.448,-0.4255,-0.4255,-0.448,-0.4594,-0.4594,-0.4706,-0.4931,-0.5044,-0.5152,-0.5314,-0.5362,-0.5302,-0.5348,-0.5426,-0.5422,-0.5389,-0.5374,-0.5367,-0.5335,-0.5322,-0.5311,-0.5364,-0.5604,-0.5744,-0.5942,-0.6142,-0.6142,-0.6139,-0.6239,-0.6337,-0.6437,-0.6437,-0.6437,-0.6437,-0.6437,-0.6437,-0.6396,-0.6377,-0.6366,-0.6187,-0.6275,-0.675,-0.6886,-0.7323,-0.8162,-0.8563,-0.9076,-0.9626,-1.0081,-1.0558,-1.0827,-1.1149,-1.1543,-1.1916,-1.2215,-1.2443,-1.2646,-1.2807,-1.2958,-1.3175,-1.3573,-1.4103,-1.4721,-1.5444,-1.6201,-1.7062,-1.8058,-1.8877,-1.9383,-1.9708,-1.9879,-1.999,-2.0094,-2.0197,-2.0228,-2.0165,-1.9983,-1.9669,-1.9563,-1.9199,-1.8468,-1.8248,-1.8064,-1.7602,-1.7485,-1.7485,-1.7485,-1.7608,-1.7726,-1.8083,-1.8777,-1.9468,-1.9931,-2.0392,-2.1096,-2.1668,-2.2351,-2.257,-2.2683,-2.2788,-2.3014,-2.3014,-2.3014,-2.3014,-2.3014,-2.3014,-2.3014,-2.3014,-2.3014,-2.3022,-0.3587,-0.3813,-0.3699,-0.381,-0.4145,-0.4032,-0.4032,-0.4257,-0.4257,-0.4369,-0.4369,-0.4594,-0.4817,-0.4817,-0.5044,-0.5238,-0.5176,-0.5114,-0.5196,-0.5194,-0.5165,-0.5153,-0.5149,-0.5122,-0.5106,-0.5098,-0.5154,-0.5294,-0.5544,-0.5639,-0.5741,-0.595,-0.6014,-0.6098,-0.6292,-0.6358,-0.6437,-0.6437,-0.6437,-0.6437,-0.6437,-0.6437,-0.6437,-0.6415,-0.6282,-0.639,-0.678,-0.6837,-0.7285,-0.8033,-0.8457,-0.9084,-0.9833,-1.0385,-1.07,-1.087,-1.1189,-1.1502,-1.1859,-1.2195,-1.2462,-1.2662,-1.277,-1.2883,-1.3062,-1.3314,-1.3857,-1.4476,-1.5041,-1.5725,-1.6437,-1.7191,-1.8005,-1.8708,-1.9056,-1.9264,-1.9361,-1.9561,-1.9717,-1.9986,-2.0156,-2.0033,-1.9829,-1.9772,-1.9361,-1.8519,-1.8421,-1.8181,-1.7596,-1.7485,-1.7485,-1.7485,-1.7485,-1.7602,-1.7843,-1.8305,-1.901,-1.9475,-1.9931,-2.063,-2.1211,-2.1782,-2.2351,-2.2456,-2.2683,-2.2909,-2.3014,-2.3014,-2.3014,-2.3014,-2.3014,-2.3014,-2.3014,-2.3014,-2.3022,-0.3251,-0.3587,-0.3587,-0.3587,-0.3699,-0.3699,-0.3587,-0.3699,-0.3924,-0.4036,-0.4036,-0.437,-0.448,-0.4592,-0.4817,-0.4927,-0.4918,-0.5131,-0.5353,-0.5349,-0.5279,-0.5245,-0.5241,-0.5173,-0.513,-0.5122,-0.4898,-0.5104,-0.5406,-0.529,-0.5398,-0.5817,-0.6049,-0.611,-0.6215,-0.6316,-0.6448,-0.645,-0.6448,-0.6437,-0.6437,-0.6437,-0.6437,-0.6437,-0.6415,-0.6509,-0.6822,-0.6914,-0.7237,-0.7797,-0.8445,-0.9189,-1.0068,-1.0441,-1.0688,-1.0958,-1.1196,-1.1384,-1.1638,-1.2068,-1.2365,-1.2478,-1.2673,-1.2883,-1.3127,-1.3341,-1.3746,-1.4292,-1.4757,-1.5287,-1.5813,-1.6174,-1.6823,-1.7806,-1.8016,-1.8325,-1.8624,-1.884,-1.9074,-1.9662,-2.0062,-2.0117,-1.9878,-1.9704,-1.9299,-1.8635,-1.8305,-1.8188,-1.7596,-1.7485,-1.7485,-1.7485,-1.7485,-1.7602,-1.7602,-1.7843,-1.8428,-1.901,-1.9475,-2.0053,-2.0744,-2.1318,-2.1782,-2.2124,-2.2578,-2.2683,-2.3014,-2.3014,-2.3014,-2.3014,-2.3014,-2.3014,-2.3014,-2.3014,-2.3014,-0.2946,-0.3251,-0.325,-0.3362,-0.3587,-0.3587,-0.3587,-0.3587,-0.3699,-0.3701,-0.3813,-0.4035,-0.4147,-0.4258,-0.4482,-0.4594,-0.4706,-0.4931,-0.5156,-0.5375,-0.5351,-0.5337,-0.5331,-0.5308,-0.5261,-0.521,-0.5202,-0.5169,-0.5229,-0.5324,-0.5428,-0.5631,-0.5718,-0.5913,-0.6325,-0.6321,-0.6361,-0.6449,-0.6478,-0.6437,-0.6437,-0.6439,-0.6439,-0.6437,-0.6437,-0.6437,-0.6537,-0.6901,-0.7378,-0.7865,-0.8506,-0.9255,-1.0127,-1.0614,-1.0844,-1.109,-1.1201,-1.1312,-1.157,-1.1785,-1.2078,-1.2304,-1.2604,-1.2814,-1.3136,-1.3507,-1.3844,-1.4267,-1.4601,-1.486,-1.5232,-1.5357,-1.5891,-1.6948,-1.7279,-1.7496,-1.7741,-1.8201,-1.8867,-1.9644,-1.992,-1.9892,-1.9738,-1.9679,-1.9113,-1.8538,-1.8194,-1.7966,-1.7602,-1.7485,-1.7485,-1.7485,-1.7485,-1.7485,-1.7602,-1.7726,-1.8083,-1.8661,-1.901,-1.9584,-2.0169,-2.063,-2.1096,-2.1782,-2.2237,-2.257,-2.2909,-2.3014,-2.2901,-2.3014,-2.3014,-2.3014,-2.3014,-2.3014,-2.3014,-0.2629,-0.2942,-0.2923,-0.3139,-0.3362,-0.3362,-0.3475,-0.3587,-0.3587,-0.3587,-0.3699,-0.3813,-0.3813,-0.3924,-0.4147,-0.4258,-0.437,-0.4594,-0.4819,-0.5044,-0.5382,-0.5382,-0.5382,-0.5382,-0.5357,-0.5306,-0.5406,-0.5377,-0.5214,-0.5318,-0.5428,-0.5428,-0.55,-0.5694,-0.6112,-0.6233,-0.638,-0.6469,-0.6513,-0.6548,-0.6516,-0.6505,-0.6483,-0.6445,-0.6437,-0.6437,-0.6437,-0.6836,-0.7238,-0.7736,-0.8432,-0.9324,-1.0117,-1.0502,-1.09,-1.1002,-1.1194,-1.1292,-1.1389,-1.159,-1.1732,-1.2205,-1.2527,-1.2894,-1.3153,-1.3586,-1.3935,-1.4188,-1.441,-1.4606,-1.4821,-1.4821,-1.525,-1.5992,-1.6311,-1.6687,-1.7015,-1.779,-1.8561,-1.9149,-1.9333,-1.9489,-1.9401,-1.9113,-1.8777,-1.8311,-1.8083,-1.7849,-1.7602,-1.7485,-1.7485,-1.7485,-1.7485,-1.7485,-1.7485,-1.7608,-1.7849,-1.82,-1.8544,-1.912,-1.97,-1.9938,-2.0399,-2.1318,-2.1896,-2.2343,-2.2683,-2.2788,-2.2788,-2.2901,-2.3014,-2.3014,-2.3014,-2.3014,-2.3014,-0.2191,-0.2645,-0.2603,-0.2811,-0.3033,-0.3141,-0.3251,-0.3475,-0.3587,-0.3587,-0.3587,-0.3587,-0.3587,-0.3699,-0.3923,-0.4036,-0.4036,-0.4258,-0.4482,-0.4594,-0.5043,-0.527,-0.527,-0.527,-0.5373,-0.5371,-0.5371,-0.5371,-0.5351,-0.5351,-0.538,-0.5464,-0.5501,-0.5573,-0.5773,-0.6124,-0.6285,-0.6494,-0.6582,-0.662,-0.6632,-0.6627,-0.6573,-0.6467,-0.6461,-0.6453,-0.6437,-0.6739,-0.6942,-0.7338,-0.8531,-0.9229,-0.9723,-1.0314,-1.0703,-1.0806,-1.0998,-1.1217,-1.1311,-1.1447,-1.1722,-1.2013,-1.2395,-1.2913,-1.3278,-1.3609,-1.3848,-1.4126,-1.4175,-1.4293,-1.4498,-1.4606,-1.4724,-1.4956,-1.5421,-1.5953,-1.6661,-1.7665,-1.8146,-1.8389,-1.8705,-1.8874,-1.8874,-1.8648,-1.8311,-1.8083,-1.7966,-1.7726,-1.7491,-1.7373,-1.7367,-1.7367,-1.725,-1.7367,-1.725,-1.7373,-1.7497,-1.7843,-1.8188,-1.8538,-1.912,-1.9468,-1.9931,-2.0852,-2.1546,-2.2002,-2.2343,-2.2456,-2.2675,-2.2796,-2.2909,-2.3014,-2.3014,-2.3014,-2.3014,-0.2013,-0.2105,-0.2072,-0.2286,-0.2737,-0.2822,-0.2807,-0.2917,-0.3141,-0.3258,-0.3253,-0.3475,-0.3594,-0.3589,-0.3703,-0.3699,-0.3818,-0.4041,-0.4148,-0.4148,-0.448,-0.4819,-0.4931,-0.5044,-0.5156,-0.5382,-0.5382,-0.5382,-0.5382,-0.5382,-0.5382,-0.538,-0.5466,-0.556,-0.5768,-0.5793,-0.6074,-0.6381,-0.6419,-0.659,-0.6766,-0.6755,-0.6692,-0.6584,-0.6573,-0.6526,-0.645,-0.6642,-0.7144,-0.7739,-0.8432,-0.9126,-0.9529,-1.0019,-1.0417,-1.0721,-1.0918,-1.1077,-1.1397,-1.153,-1.1731,-1.2138,-1.2476,-1.2755,-1.3062,-1.3454,-1.3777,-1.3862,-1.3975,-1.4191,-1.4293,-1.4304,-1.4478,-1.4625,-1.5119,-1.5707,-1.6517,-1.7098,-1.7607,-1.8024,-1.8241,-1.8402,-1.8415,-1.8194,-1.7966,-1.7849,-1.7726,-1.7485,-1.7256,-1.7138,-1.7138,-1.6897,-1.6779,-1.6897,-1.7015,-1.7138,-1.7256,-1.7491,-1.7837,-1.7948,-1.8538,-1.912,-1.9809,-2.0615,-2.1081,-2.1546,-2.1774,-2.1995,-2.2343,-2.257,-2.2683,-2.2683,-2.2901,-2.3014,-2.3014,-0.12,-0.1426,-0.1755,-0.1976,-0.2322,-0.2301,-0.2521,-0.2634,-0.2861,-0.2974,-0.2975,-0.3205,-0.3204,-0.3319,-0.3435,-0.3435,-0.3549,-0.3778,-0.3895,-0.4003,-0.4095,-0.4403,-0.4604,-0.4706,-0.4931,-0.5156,-0.5156,-0.527,-0.5382,-0.5382,-0.5382,-0.5382,-0.5382,-0.5493,-0.5594,-0.5662,-0.5845,-0.6167,-0.6332,-0.6611,-0.6666,-0.6773,-0.6812,-0.6722,-0.6698,-0.6654,-0.6597,-0.6799,-0.7163,-0.7675,-0.8134,-0.863,-0.9031,-0.9529,-0.9954,-1.041,-1.073,-1.113,-1.1388,-1.1541,-1.184,-1.2125,-1.2408,-1.2708,-1.3006,-1.3357,-1.3532,-1.3532,-1.3862,-1.3975,-1.3991,-1.4163,-1.4492,-1.4772,-1.517,-1.5626,-1.6138,-1.6605,-1.6961,-1.7313,-1.7473,-1.7596,-1.7596,-1.7485,-1.7373,-1.7367,-1.7132,-1.7015,-1.6785,-1.6785,-1.6667,-1.6543,-1.6419,-1.6661,-1.6779,-1.6779,-1.6897,-1.725,-1.7485,-1.7713,-1.8071,-1.8661,-1.9352,-2.004,-2.0507,-2.0967,-2.1196,-2.1546,-2.1888,-2.2116,-2.2351,-2.2464,-2.2683,-2.2901,-2.2901,-0.0,-0.0483,-0.1308,-0.1655,-0.1653,-0.1768,-0.1995,-0.2351,-0.2582,-0.27,-0.27,-0.2704,-0.2811,-0.2824,-0.3159,-0.3291,-0.3291,-0.3514,-0.3639,-0.3739,-0.3824,-0.4008,-0.4305,-0.438,-0.4596,-0.4819,-0.4819,-0.5044,-0.527,-0.527,-0.5382,-0.5382,-0.5382,-0.5382,-0.5491,-0.5594,-0.571,-0.5922,-0.6241,-0.6526,-0.6575,-0.6779,-0.6832,-0.6839,-0.6785,-0.6782,-0.6876,-0.6978,-0.7214,-0.7193,-0.7782,-0.8213,-0.8503,-0.9195,-0.9662,-0.9981,-1.0535,-1.1026,-1.1394,-1.1648,-1.1836,-1.2129,-1.2389,-1.2675,-1.2817,-1.3088,-1.3207,-1.3207,-1.3552,-1.3728,-1.3811,-1.4156,-1.4665,-1.4981,-1.5214,-1.5389,-1.566,-1.6166,-1.6419,-1.6419,-1.6537,-1.6537,-1.6537,-1.6543,-1.6543,-1.6897,-1.6773,-1.6661,-1.6549,-1.6431,-1.6431,-1.6307,-1.6301,-1.6419,-1.6419,-1.6425,-1.6661,-1.6897,-1.725,-1.7485,-1.7726,-1.8311,-1.8894,-1.9359,-1.9815,-2.0277,-2.0622,-2.0974,-2.1318,-2.1668,-2.1888,-2.2116,-2.2456,-2.2683,-2.2683,0.1106,0.0368,-0.0121,-0.048,-0.0839,-0.1066,-0.1415,-0.2005,-0.2005,-0.2126,-0.2122,-0.2356,-0.2593,-0.2592,-0.2833,-0.2943,-0.3069,-0.3069,-0.3178,-0.3413,-0.3642,-0.3744,-0.3936,-0.4096,-0.4265,-0.4487,-0.4596,-0.4706,-0.4931,-0.5044,-0.5156,-0.5382,-0.5382,-0.5382,-0.5382,-0.5493,-0.5603,-0.5822,-0.5933,-0.6255,-0.6569,-0.6664,-0.684,-0.695,-0.6864,-0.6812,-0.6804,-0.6907,-0.6981,-0.736,-0.7865,-0.828,-0.846,-0.8984,-0.9526,-0.9872,-1.0207,-1.0602,-1.1177,-1.1548,-1.1833,-1.1999,-1.2243,-1.2502,-1.2531,-1.2772,-1.2989,-1.3019,-1.3352,-1.3613,-1.3913,-1.4375,-1.4651,-1.4914,-1.5173,-1.5505,-1.5644,-1.5924,-1.6194,-1.6194,-1.6307,-1.6543,-1.6543,-1.6419,-1.6419,-1.6537,-1.6425,-1.6431,-1.6312,-1.6194,-1.6076,-1.5952,-1.5952,-1.607,-1.6188,-1.6194,-1.6425,-1.6583,-1.6949,-1.7209,-1.7445,-1.7829,-1.845,-1.8862,-1.912,-1.9584,-1.9931,-2.0277,-2.0622,-2.1089,-2.1432,-2.166,-2.1888,-2.223,-2.257,0.173,0.1358,0.1102,0.061,0.0122,-0.0121,-0.0482,-0.0964,-0.1205,-0.1446,-0.1445,-0.1686,-0.1926,-0.2288,-0.2408,-0.2528,-0.2647,-0.2766,-0.2877,-0.3104,-0.3333,-0.332,-0.3411,-0.3591,-0.3891,-0.4205,-0.4312,-0.4521,-0.4604,-0.4709,-0.4819,-0.5156,-0.516,-0.527,-0.5382,-0.5386,-0.5491,-0.5601,-0.571,-0.6044,-0.6381,-0.6601,-0.6808,-0.7076,-0.7002,-0.6967,-0.6975,-0.6972,-0.7078,-0.7288,-0.7717,-0.8084,-0.8085,-0.8594,-0.9043,-0.9425,-1.0071,-1.0371,-1.0932,-1.1423,-1.1788,-1.1991,-1.2114,-1.2223,-1.2332,-1.255,-1.2726,-1.2913,-1.315,-1.3531,-1.4083,-1.4325,-1.4569,-1.4708,-1.4929,-1.5121,-1.5359,-1.5715,-1.5839,-1.5844,-1.5957,-1.607,-1.607,-1.6188,-1.607,-1.607,-1.607,-1.5957,-1.5957,-1.5839,-1.5839,-1.572,-1.572,-1.572,-1.5844,-1.5963,-1.6194,-1.6374,-1.6691,-1.697,-1.7124,-1.7524,-1.8044,-1.8277,-1.8596,-1.8887,-1.9352,-1.9584,-1.9931,-2.0277,-2.0737,-2.1089,-2.1432,-2.166,-2.2002,0.2099,0.1977,0.1977,0.1606,0.1235,0.0987,0.0616,0.0247,-0.0247,-0.0492,-0.0741,-0.0741,-0.0983,-0.1603,-0.1723,-0.1849,-0.2094,-0.2337,-0.2562,-0.2664,-0.2903,-0.2888,-0.2981,-0.3205,-0.3413,-0.3943,-0.4044,-0.4238,-0.4428,-0.4516,-0.4658,-0.4865,-0.4974,-0.5096,-0.5304,-0.5402,-0.5398,-0.5497,-0.5603,-0.5824,-0.6161,-0.6492,-0.6821,-0.7141,-0.713,-0.7119,-0.7116,-0.7124,-0.7138,-0.7154,-0.7382,-0.7489,-0.7672,-0.8027,-0.8488,-0.874,-0.96,-1.0093,-1.0518,-1.1109,-1.1555,-1.1787,-1.1896,-1.2142,-1.227,-1.2421,-1.2625,-1.2869,-1.3115,-1.3507,-1.4063,-1.4269,-1.4355,-1.447,-1.4525,-1.4769,-1.5002,-1.5359,-1.5483,-1.5601,-1.572,-1.572,-1.572,-1.572,-1.5601,-1.5601,-1.5601,-1.5601,-1.5601,-1.5601,-1.5601,-1.5601,-1.5601,-1.5698,-1.5839,-1.5997,-1.6095,-1.632,-1.6628,-1.6793,-1.6966,-1.7248,-1.7732,-1.7851,-1.8189,-1.8517,-1.8693,-1.9004,-1.9352,-1.9584,-1.9931,-2.0277,-2.063,-2.0974,-2.1454,0.2222,0.1977,0.1977,0.1977,0.1853,0.173,0.173,0.1606,0.0988,0.0741,0.0618,0.0494,0.0124,-0.037,-0.0741,-0.1235,-0.1605,-0.185,-0.197,-0.2208,-0.233,-0.2566,-0.2683,-0.2799,-0.3026,-0.3229,-0.3549,-0.3866,-0.4194,-0.4317,-0.4409,-0.4661,-0.5008,-0.5097,-0.5161,-0.5258,-0.5453,-0.5406,-0.5508,-0.5727,-0.5938,-0.6383,-0.6715,-0.7157,-0.7154,-0.7154,-0.7154,-0.7154,-0.7154,-0.7154,-0.7268,-0.7241,-0.7411,-0.7728,-0.8291,-0.8749,-0.9085,-0.9545,-0.9915,-1.0476,-1.0802,-1.1017,-1.1367,-1.1899,-1.2099,-1.2381,-1.2473,-1.288,-1.3178,-1.3489,-1.3722,-1.4084,-1.4232,-1.4291,-1.4416,-1.4535,-1.4644,-1.4769,-1.5007,-1.5364,-1.5483,-1.5601,-1.5601,-1.5601,-1.5601,-1.5601,-1.5601,-1.5601,-1.5601,-1.5601,-1.5601,-1.5601,-1.5601,-1.5736,-1.586,-1.6035,-1.6073,-1.6347,-1.6546,-1.6703,-1.6865,-1.7122,-1.741,-1.7629,-1.7961,-1.8245,-1.8401,-1.8536,-1.8764,-1.9201,-1.9356,-1.9618,-2.0192,-2.0646,-2.1018,0.2345,0.1977,0.1977,0.1977,0.1977,0.1977,0.1977,0.1977,0.1606,0.1483,0.1483,0.1359,0.1235,0.0988,0.0371,-0.0124,-0.0494,-0.0864,-0.1111,-0.1357,-0.1605,-0.1975,-0.2221,-0.2468,-0.2458,-0.2561,-0.2904,-0.3463,-0.3773,-0.388,-0.4124,-0.4351,-0.4589,-0.4688,-0.4895,-0.5116,-0.5301,-0.5242,-0.5332,-0.5535,-0.5944,-0.6388,-0.694,-0.7046,-0.7154,-0.7154,-0.7154,-0.7154,-0.7154,-0.7154,-0.7154,-0.7154,-0.7265,-0.749,-0.7823,-0.8266,-0.8595,-0.9037,-0.9368,-0.9926,-1.0292,-1.0608,-1.1056,-1.1479,-1.1833,-1.2139,-1.2447,-1.2864,-1.3175,-1.3456,-1.3674,-1.3813,-1.3933,-1.3928,-1.4047,-1.4172,-1.4291,-1.4411,-1.465,-1.5002,-1.5121,-1.5359,-1.5601,-1.5601,-1.5601,-1.5601,-1.5601,-1.5601,-1.5483,-1.5639,-1.5536,-1.5709,-1.5752,-1.5924,-1.6064,-1.6124,-1.6199,-1.6469,-1.6572,-1.6724,-1.6893,-1.7172,-1.7252,-1.7281,-1.762,-1.8076,-1.8131,-1.8329,-1.8514,-1.8822,-1.9086,-1.9456,-1.9939,-2.0287,-2.0566,0.2345,0.2099,0.1976,0.1977,0.1977,0.1977,0.1977,0.1977,0.1977,0.1977,0.1977,0.1977,0.1977,0.1853,0.1483,0.1112,0.0865,0.0494,0.0123,-0.0247,-0.0617,-0.0988,-0.1482,-0.1728,-0.1725,-0.1846,-0.2336,-0.2801,-0.3237,-0.3463,-0.3809,-0.4056,-0.4044,-0.4265,-0.4616,-0.4966,-0.5035,-0.5105,-0.5305,-0.5606,-0.6102,-0.6621,-0.7054,-0.7154,-0.7154,-0.7154,-0.7154,-0.7154,-0.7154,-0.7154,-0.7154,-0.7154,-0.716,-0.7176,-0.7304,-0.7639,-0.8282,-0.8608,-0.8863,-0.9314,-0.9842,-1.0092,-1.0568,-1.1,-1.1475,-1.191,-1.2337,-1.2731,-1.2967,-1.3186,-1.3324,-1.3449,-1.3569,-1.3569,-1.3564,-1.3688,-1.3933,-1.4172,-1.4296,-1.453,-1.4764,-1.5002,-1.5126,-1.525,-1.5131,-1.5126,-1.5126,-1.5126,-1.5142,-1.5481,-1.5648,-1.5849,-1.5951,-1.614,-1.6274,-1.6366,-1.6457,-1.6587,-1.6673,-1.6848,-1.6908,-1.709,-1.7147,-1.718,-1.7508,-1.7871,-1.7919,-1.8159,-1.8277,-1.8598,-1.8832,-1.9203,-1.9464,-1.9686,-2.0027,0.2714,0.2344,0.2099,0.1977,0.1977,0.1977,0.1977,0.1977,0.1977,0.1977,0.1977,0.1977,0.1977,0.1977,0.1977,0.1853,0.173,0.1606,0.1235,0.0741,0.0494,0.0247,-0.0247,-0.0741,-0.0987,-0.1111,-0.1727,-0.2464,-0.281,-0.2932,-0.3306,-0.3545,-0.3778,-0.4018,-0.4329,-0.4567,-0.5008,-0.518,-0.5163,-0.5468,-0.5961,-0.6449,-0.6636,-0.6837,-0.6945,-0.7163,-0.716,-0.7157,-0.716,-0.7171,-0.7163,-0.7157,-0.7171,-0.7263,-0.7304,-0.7398,-0.7578,-0.7879,-0.8314,-0.8904,-0.9305,-0.9547,-1.0044,-1.0597,-1.1075,-1.1688,-1.2124,-1.2307,-1.2595,-1.2719,-1.2844,-1.2844,-1.2964,-1.3084,-1.3204,-1.3444,-1.3684,-1.3808,-1.3933,-1.4052,-1.4286,-1.4406,-1.465,-1.4655,-1.4655,-1.4655,-1.4774,-1.4779,-1.4965,-1.5335,-1.5634,-1.5868,-1.6188,-1.6361,-1.6517,-1.6603,-1.6662,-1.6797,-1.685,-1.691,-1.6926,-1.7076,-1.7093,-1.7145,-1.7357,-1.7632,-1.7833,-1.7942,-1.8089,-1.8372,-1.8729,-1.8772,-1.8753,-1.9145,-1.9608,0.296,0.2466,0.2344,0.2223,0.1977,0.1977,0.1977,0.1977,0.1977,0.1977,0.1977,0.1977,0.1977,0.1977,0.1977,0.1977,0.1977,0.1977,0.1853,0.1606,0.1482,0.1359,0.0988,0.0494,0.0124,-0.037,-0.0741,-0.1111,-0.1851,-0.2467,-0.296,-0.3208,-0.333,-0.3565,-0.3903,-0.415,-0.4354,-0.478,-0.5206,-0.5633,-0.5938,-0.6009,-0.6189,-0.6471,-0.6691,-0.6776,-0.6847,-0.6935,-0.7086,-0.7121,-0.7255,-0.7296,-0.7347,-0.741,-0.744,-0.7434,-0.7514,-0.7741,-0.8123,-0.8481,-0.8787,-0.8987,-0.951,-1.0159,-1.0774,-1.1098,-1.1514,-1.1631,-1.1756,-1.1997,-1.2359,-1.2359,-1.2599,-1.2719,-1.284,-1.296,-1.32,-1.3324,-1.3444,-1.3688,-1.3808,-1.3933,-1.4182,-1.4451,-1.4565,-1.454,-1.4585,-1.4766,-1.5003,-1.5421,-1.5737,-1.6071,-1.6386,-1.6592,-1.6737,-1.685,-1.6834,-1.6915,-1.692,-1.6969,-1.698,-1.6996,-1.7001,-1.7001,-1.7076,-1.734,-1.757,-1.7817,-1.8063,-1.8339,-1.8488,-1.8668,-1.8857,-1.9199,-1.9657,0.3331,0.2714,0.259,0.2345,0.2099,0.1976,0.1977,0.1977,0.1977,0.1977,0.1977,0.1977,0.1977,0.1977,0.1977,0.1977,0.1977,0.1977,0.1977,0.1977,0.1977,0.1977,0.173,0.1359,0.0988,0.0494,0.0247,-0.0123,-0.0741,-0.1358,-0.2097,-0.2714,-0.2713,-0.2958,-0.333,-0.3693,-0.4036,-0.4485,-0.526,-0.5696,-0.5793,-0.5768,-0.5951,-0.6256,-0.6455,-0.6541,-0.6586,-0.6694,-0.686,-0.7013,-0.7153,-0.7188,-0.7248,-0.7415,-0.7559,-0.7573,-0.7576,-0.7726,-0.796,-0.831,-0.8346,-0.865,-0.9061,-0.9696,-1.0141,-1.0429,-1.0547,-1.0785,-1.1031,-1.139,-1.1752,-1.1877,-1.1997,-1.2113,-1.2354,-1.2475,-1.2599,-1.284,-1.3084,-1.3204,-1.3324,-1.3569,-1.3832,-1.4125,-1.436,-1.4316,-1.4495,-1.462,-1.4936,-1.5401,-1.571,-1.6048,-1.6227,-1.6397,-1.6481,-1.6721,-1.6742,-1.6877,-1.6877,-1.6882,-1.6877,-1.6877,-1.7001,-1.7001,-1.7001,-1.7087,-1.7357,-1.7703,-1.8033,-1.8204,-1.8406,-1.8732,-1.9012,-1.9328,-1.9571,0.3947,0.3331,0.2837,0.2466,0.2468,0.2099,0.1977,0.1977,0.1977,0.1977,0.1977,0.1977,0.1977,0.1977,0.1977,0.1977,0.1977,0.1977,0.1977,0.1977,0.1977,0.1977,0.1977,0.1853,0.173,0.1606,0.1235,0.0865,0.0494,0.0,-0.0987,-0.185,-0.1974,-0.222,-0.2714,-0.3207,-0.382,-0.4284,-0.5088,-0.542,-0.5512,-0.5594,-0.5779,-0.5998,-0.6338,-0.6448,-0.6555,-0.6531,-0.6539,-0.6681,-0.6922,-0.7064,-0.7118,-0.7412,-0.7562,-0.7581,-0.775,-0.79,-0.8015,-0.809,-0.8236,-0.843,-0.8711,-0.9061,-0.9335,-0.9339,-0.9579,-0.994,-1.0183,-1.0425,-1.0785,-1.091,-1.1152,-1.1394,-1.1631,-1.1872,-1.2113,-1.2359,-1.2599,-1.2724,-1.2987,-1.3152,-1.3341,-1.3779,-1.4115,-1.4072,-1.4411,-1.4537,-1.4852,-1.5174,-1.5568,-1.5843,-1.5898,-1.6058,-1.6063,-1.6229,-1.6359,-1.6488,-1.6494,-1.6494,-1.6629,-1.6753,-1.6877,-1.7001,-1.7001,-1.7007,-1.7136,-1.7394,-1.7653,-1.8033,-1.8296,-1.8431,-1.8822,-1.895,-1.9328,0.4441,0.4069,0.3576,0.3081,0.2466,0.2345,0.2222,0.1977,0.1977,0.1977,0.1977,0.1977,0.1977,0.1977,0.1977,0.1977,0.1977,0.1977,0.1977,0.1977,0.1977,0.1977,0.1977,0.1977,0.1977,0.1977,0.173,0.1606,0.1483,0.1112,0.0741,-0.0,-0.0864,-0.1727,-0.222,-0.2837,-0.3453,-0.3942,-0.4539,-0.4765,-0.5127,-0.4986,-0.5185,-0.5257,-0.5608,-0.581,-0.5886,-0.6113,-0.6382,-0.6542,-0.6677,-0.6829,-0.6988,-0.7289,-0.7427,-0.7554,-0.7728,-0.7867,-0.7869,-0.7947,-0.808,-0.8343,-0.8488,-0.861,-0.8732,-0.8976,-0.9095,-0.9214,-0.9335,-0.97,-0.9819,-1.0061,-1.0308,-1.0668,-1.0906,-1.1148,-1.1402,-1.1772,-1.2039,-1.2176,-1.2491,-1.2804,-1.3128,-1.3331,-1.3642,-1.3967,-1.4218,-1.4449,-1.4856,-1.5109,-1.5341,-1.5524,-1.5699,-1.5839,-1.5839,-1.5839,-1.5974,-1.5974,-1.6104,-1.6239,-1.6244,-1.6504,-1.6623,-1.6877,-1.7007,-1.7007,-1.7007,-1.7136,-1.7394,-1.7653,-1.7916,-1.805,-1.8314,-1.8699,-1.895,0.5054,0.4684,0.4315,0.3699,0.2837,0.2714,0.2468,0.2223,0.2099,0.2099,0.1977,0.1977,0.1977,0.1977,0.1977,0.1977,0.1977,0.1977,0.1977,0.1977,0.1977,0.1977,0.1977,0.1977,0.1977,0.1977,0.1977,0.1977,0.1853,0.1977,0.1606,0.0988,0.037,-0.037,-0.1357,-0.2344,-0.2959,-0.3452,-0.3698,-0.3946,-0.4315,-0.4432,-0.4544,-0.4735,-0.5093,-0.5318,-0.5402,-0.5636,-0.5774,-0.6045,-0.6312,-0.6463,-0.6745,-0.6898,-0.7266,-0.7385,-0.7508,-0.7752,-0.775,-0.7869,-0.7994,-0.8122,-0.8244,-0.8363,-0.8485,-0.8607,-0.8604,-0.8732,-0.8732,-0.8851,-0.9092,-0.9457,-0.9582,-0.9822,-1.0061,-1.0308,-1.0579,-1.0963,-1.1237,-1.1512,-1.1979,-1.2362,-1.2553,-1.2888,-1.3429,-1.376,-1.4122,-1.4454,-1.4733,-1.4957,-1.5144,-1.5308,-1.5448,-1.5583,-1.5578,-1.5578,-1.5453,-1.5583,-1.5588,-1.5849,-1.5984,-1.6265,-1.639,-1.6488,-1.6618,-1.6748,-1.6882,-1.7012,-1.7141,-1.7265,-1.7529,-1.7798,-1.8179,-1.8437,-1.8699,0.5669,0.5298,0.5056,0.4318,0.3577,0.3085,0.2837,0.2467,0.2467,0.2346,0.21,0.1977,0.1977,0.1977,0.1977,0.1977,0.1977,0.1977,0.1977,0.1977,0.1977,0.1977,0.1977,0.1977,0.1977,0.1977,0.1977,0.1977,0.1977,0.1977,0.1853,0.1853,0.1482,0.0864,-0.0123,-0.1357,-0.2344,-0.296,-0.3208,-0.3331,-0.3454,-0.3699,-0.3937,-0.4301,-0.4542,-0.4774,-0.4767,-0.4882,-0.5014,-0.5147,-0.5643,-0.578,-0.5912,-0.653,-0.6775,-0.69,-0.7266,-0.7385,-0.7385,-0.775,-0.7872,-0.7994,-0.7997,-0.7994,-0.7994,-0.7994,-0.8116,-0.8363,-0.8366,-0.8613,-0.8732,-0.8976,-0.8976,-0.9105,-0.9345,-0.9628,-0.9907,-1.0098,-1.0514,-1.0929,-1.1302,-1.1799,-1.2111,-1.243,-1.3161,-1.3576,-1.3974,-1.4323,-1.4586,-1.4763,-1.4796,-1.48,-1.4926,-1.4926,-1.4926,-1.4931,-1.4931,-1.5066,-1.524,-1.5556,-1.5848,-1.6024,-1.6115,-1.616,-1.629,-1.6603,-1.6686,-1.6758,-1.7012,-1.7136,-1.7271,-1.7535,-1.7916,-1.8173,-1.8437,0.665,0.6399,0.5792,0.53,0.4684,0.3944,0.3329,0.2837,0.259,0.2466,0.2345,0.2099,0.1977,0.1977,0.1977,0.1977,0.1977,0.1977,0.1977,0.1977,0.1977,0.1977,0.1977,0.1977,0.1977,0.1977,0.1977,0.1977,0.1977,0.1977,0.1977,0.1977,0.1977,0.1235,0.0123,-0.0864,-0.1481,-0.222,-0.2466,-0.259,-0.2837,-0.2959,-0.3206,-0.3453,-0.3825,-0.4071,-0.4071,-0.4193,-0.4315,-0.4439,-0.4808,-0.5054,-0.5302,-0.5916,-0.6162,-0.641,-0.6653,-0.7143,-0.7385,-0.775,-0.7872,-0.7872,-0.7872,-0.7872,-0.7872,-0.7872,-0.7994,-0.7997,-0.8119,-0.8241,-0.8238,-0.8491,-0.8619,-0.8637,-0.8906,-0.9103,-0.9408,-0.95,-0.9816,-1.0239,-1.0703,-1.1228,-1.1575,-1.182,-1.2397,-1.2959,-1.3345,-1.3752,-1.411,-1.4124,-1.4137,-1.4141,-1.4272,-1.4272,-1.4277,-1.4444,-1.4645,-1.4827,-1.5158,-1.55,-1.5657,-1.5795,-1.6102,-1.6215,-1.6272,-1.6465,-1.6576,-1.6797,-1.692,-1.7136,-1.7185,-1.7303,-1.7658,-1.7787,-1.805,0.7625,0.7258,0.665,0.6037,0.5421,0.4438,0.3699,0.3208,0.2837,0.2714,0.259,0.2469,0.2346,0.2223,0.2223,0.2099,0.1977,0.1977,0.1977,0.1977,0.1977,0.1977,0.1977,0.1977,0.1977,0.1977,0.1977,0.1977,0.1977,0.1977,0.1977,0.1977,0.1977,0.1606,0.0741,0.0123,-0.0494,-0.111,-0.1357,-0.1481,-0.1727,-0.2097,-0.2466,-0.2714,-0.3083,-0.3331,-0.3331,-0.3453,-0.3575,-0.3822,-0.3946,-0.4192,-0.4685,-0.5054,-0.5423,-0.5794,-0.6285,-0.6896,-0.7385,-0.7508,-0.775,-0.7869,-0.7872,-0.7872,-0.7872,-0.7872,-0.7872,-0.7872,-0.7875,-0.788,-0.8011,-0.8261,-0.8318,-0.8461,-0.8531,-0.8726,-0.8902,-0.9115,-0.9322,-0.9748,-1.0207,-1.0737,-1.1083,-1.1351,-1.1607,-1.215,-1.2561,-1.296,-1.3481,-1.3481,-1.3481,-1.3481,-1.3617,-1.3752,-1.3923,-1.4117,-1.4329,-1.4566,-1.4791,-1.5152,-1.5432,-1.5437,-1.5784,-1.6239,-1.6251,-1.629,-1.666,-1.6859,-1.6897,-1.7075,-1.7179,-1.7261,-1.7298,-1.7535,-1.7664,0.8477,0.7991,0.7627,0.6896,0.5916,0.5053,0.4195,0.3579,0.3208,0.3083,0.2961,0.2961,0.2715,0.259,0.2467,0.2345,0.2099,0.2099,0.21,0.1977,0.1977,0.1977,0.1977,0.1977,0.1977,0.1977,0.1977,0.1977,0.1977,0.1977,0.1977,0.1977,0.1977,0.1853,0.1483,0.1112,0.0494,0.0123,-0.037,-0.0494,-0.0617,-0.111,-0.1603,-0.1973,-0.2344,-0.259,-0.2591,-0.259,-0.259,-0.2837,-0.3083,-0.3576,-0.3821,-0.4192,-0.4684,-0.5298,-0.6035,-0.665,-0.7018,-0.7141,-0.7508,-0.775,-0.7872,-0.7872,-0.7872,-0.7875,-0.7886,-0.7902,-0.7915,-0.7913,-0.7915,-0.8113,-0.8185,-0.824,-0.8303,-0.8478,-0.8639,-0.8837,-0.9045,-0.9368,-0.9698,-1.0038,-1.0309,-1.0588,-1.0853,-1.0986,-1.1512,-1.1641,-1.2165,-1.2692,-1.2824,-1.282,-1.296,-1.3231,-1.3422,-1.3519,-1.3944,-1.4069,-1.4428,-1.464,-1.4914,-1.5096,-1.545,-1.5744,-1.604,-1.6225,-1.641,-1.6789,-1.6908,-1.7086,-1.7092,-1.7168,-1.719,-1.7276,-1.7529,0.9454,0.9211,0.8482,0.775,0.7261,0.6283,0.5298,0.4192,0.3822,0.3577,0.3331,0.3085,0.296,0.2837,0.2837,0.2591,0.2468,0.2345,0.2223,0.2099,0.21,0.1977,0.1977,0.1977,0.1977,0.1977,0.1977,0.1977,0.1977,0.1977,0.1977,0.1977,0.1977,0.1977,0.1977,0.173,0.1483,0.1235,0.0741,0.0618,0.0494,0.0,-0.0494,-0.0864,-0.1234,-0.1481,-0.1481,-0.1481,-0.1605,-0.2097,-0.2343,-0.2589,-0.2959,-0.333,-0.3947,-0.4684,-0.5421,-0.6162,-0.6405,-0.6775,-0.7148,-0.7518,-0.7518,-0.775,-0.775,-0.7896,-0.7924,-0.7967,-0.8,-0.8013,-0.806,-0.813,-0.8176,-0.822,-0.8288,-0.835,-0.8643,-0.8688,-0.889,-0.9045,-0.938,-0.9516,-0.9791,-0.9924,-1.0057,-1.0193,-1.0326,-1.0585,-1.0979,-1.1508,-1.1905,-1.1901,-1.2079,-1.2367,-1.2586,-1.2681,-1.3262,-1.3692,-1.3913,-1.4288,-1.4649,-1.4973,-1.514,-1.5519,-1.5838,-1.5976,-1.6244,-1.6526,-1.6858,-1.6964,-1.7091,-1.7013,-1.6968,-1.7185,-1.7276,1.0183,0.9943,0.9207,0.8601,0.7991,0.7138,0.6278,0.5419,0.4803,0.4315,0.4071,0.3701,0.3453,0.333,0.3208,0.2961,0.2714,0.2714,0.2591,0.2345,0.2223,0.2099,0.21,0.1977,0.1977,0.1977,0.1977,0.1977,0.1978,0.1977,0.1977,0.1977,0.1977,0.1978,0.1977,0.1977,0.1977,0.1853,0.1606,0.1359,0.1235,0.1112,0.0741,0.0371,0.0124,-0.0124,-0.0247,-0.0247,-0.0617,-0.0987,-0.111,-0.1727,-0.2097,-0.2713,-0.3453,-0.419,-0.4807,-0.5546,-0.5916,-0.6287,-0.6796,-0.7067,-0.7205,-0.7487,-0.7738,-0.7884,-0.8051,-0.8095,-0.8119,-0.8149,-0.8214,-0.8274,-0.8291,-0.8312,-0.8394,-0.8478,-0.8513,-0.8546,-0.8698,-0.8842,-0.8987,-0.912,-0.9256,-0.9395,-0.9525,-0.9658,-0.9791,-1.006,-1.019,-1.0452,-1.0721,-1.0721,-1.1052,-1.1379,-1.1607,-1.1998,-1.2436,-1.3006,-1.3247,-1.3629,-1.4173,-1.46,-1.4686,-1.5088,-1.5775,-1.5784,-1.5929,-1.6363,-1.6796,-1.6768,-1.6856,-1.6788,-1.6849,-1.6947,-1.7044,1.091,1.0304,0.9943,0.9332,0.848,0.7763,0.7406,0.6903,0.6064,0.5313,0.4937,0.4562,0.4313,0.3946,0.3699,0.3453,0.3207,0.3085,0.2837,0.259,0.259,0.2345,0.2222,0.2099,0.21,0.21,0.1978,0.1981,0.1982,0.1986,0.1989,0.1983,0.199,0.1996,0.1999,0.1998,0.2,0.2001,0.1996,0.1869,0.1856,0.1977,0.1977,0.1853,0.1359,0.0988,0.0988,0.0865,0.0741,0.0494,0.0123,-0.0617,-0.1233,-0.2097,-0.2959,-0.3582,-0.4203,-0.4833,-0.5339,-0.5724,-0.6256,-0.6659,-0.6937,-0.7243,-0.7514,-0.7859,-0.7891,-0.8217,-0.825,-0.8288,-0.8348,-0.8397,-0.8421,-0.8437,-0.8486,-0.8535,-0.8554,-0.8573,-0.8579,-0.872,-0.872,-0.8862,-0.8918,-0.9063,-0.9238,-0.9186,-0.9329,-0.9475,-0.9603,-0.9734,-0.9853,-0.9987,-1.0293,-1.0657,-1.094,-1.1331,-1.1741,-1.215,-1.2521,-1.2847,-1.3317,-1.3757,-1.4189,-1.4591,-1.5132,-1.5438,-1.5661,-1.6051,-1.6399,-1.6441,-1.6529,-1.6441,-1.6501,-1.6676,-1.6795,1.1152,1.1031,1.0183,0.9697,0.9473,0.9474,0.9016,0.814,0.7857,0.6788,0.544,0.5179,0.4931,0.4687,0.4315,0.4069,0.3699,0.3454,0.3208,0.296,0.2837,0.2714,0.2469,0.235,0.2225,0.21,0.1979,0.1993,0.2005,0.2011,0.2021,0.2039,0.2038,0.2034,0.2034,0.2035,0.2034,0.2031,0.2031,0.2013,0.1989,0.198,0.1977,0.1979,0.1733,0.1736,0.1611,0.1733,0.1607,0.1606,0.1483,0.0741,-0.0247,-0.1482,-0.2098,-0.2594,-0.3492,-0.4008,-0.4525,-0.5051,-0.5597,-0.6002,-0.6413,-0.6852,-0.7253,-0.7589,-0.7858,-0.8197,-0.8388,-0.8429,-0.8465,-0.8505,-0.8538,-0.8552,-0.8562,-0.8576,-0.859,-0.8592,-0.8592,-0.8595,-0.8595,-0.8644,-0.8706,-0.8745,-0.8919,-0.8955,-0.8996,-0.901,-0.9128,-0.9251,-0.9612,-0.9597,-0.9832,-1.0051,-1.0341,-1.0614,-1.1147,-1.1355,-1.1708,-1.2022,-1.2466,-1.2896,-1.3325,-1.39,-1.4466,-1.4755,-1.5039,-1.5452,-1.5807,-1.6018,-1.6115,-1.6006,-1.6206,-1.6262,-1.6488,1.1522,1.1402,1.0917,1.0598,1.0429,1.028,0.9847,0.94,0.8967,0.8031,0.6906,0.6241,0.571,0.5311,0.4931,0.4692,0.4321,0.4069,0.3699,0.3453,0.3214,0.296,0.2842,0.261,0.237,0.2247,0.2138,0.2027,0.2037,0.2039,0.205,0.2065,0.2067,0.2067,0.2067,0.2065,0.2067,0.2063,0.2067,0.2047,0.2015,0.2014,0.2015,0.2015,0.2015,0.2014,0.2016,0.2015,0.2016,0.2016,0.1893,0.1135,0.0252,-0.0631,-0.1386,-0.2019,-0.2663,-0.3312,-0.3702,-0.4234,-0.4917,-0.532,-0.5852,-0.6286,-0.6749,-0.7241,-0.7634,-0.7962,-0.8228,-0.8262,-0.853,-0.8562,-0.8565,-0.8573,-0.8576,-0.8584,-0.8619,-0.8649,-0.8666,-0.869,-0.8725,-0.8804,-0.8848,-0.8853,-0.8883,-0.8886,-0.8943,-0.8967,-0.8967,-0.9,-0.9235,-0.9345,-0.9598,-0.9757,-0.9885,-1.0137,-1.0373,-1.0712,-1.1028,-1.1459,-1.189,-1.2176,-1.2749,-1.3182,-1.3757,-1.4043,-1.447,-1.4897,-1.5186,-1.5416,-1.5496,-1.554,-1.5629,-1.5849,-1.5937,1.1776,1.178,1.1805,1.1527,1.1166,1.0603,1.0437,1.0287,0.9813,0.9297,0.8747,0.7511,0.6784,0.6222,0.5702,0.5331,0.5095,0.475,0.4482,0.4105,0.3859,0.3624,0.3261,0.2893,0.2652,0.2412,0.2172,0.2186,0.2069,0.2071,0.2071,0.2073,0.2076,0.2077,0.2075,0.2077,0.2084,0.2088,0.2089,0.2082,0.2073,0.2066,0.2059,0.206,0.2064,0.2065,0.2064,0.2063,0.2063,0.206,0.2054,0.1539,0.0897,0.0128,-0.0513,-0.1283,-0.1804,-0.2455,-0.3106,-0.3638,-0.4188,-0.4605,-0.5275,-0.5837,-0.6162,-0.6711,-0.7243,-0.7517,-0.7786,-0.8189,-0.8325,-0.8459,-0.8459,-0.8606,-0.8606,-0.8636,-0.8685,-0.8731,-0.8764,-0.8793,-0.8856,-0.8938,-0.897,-0.8976,-0.8984,-0.8981,-0.8992,-0.8997,-0.9022,-0.9082,-0.9239,-0.9239,-0.9383,-0.9561,-0.9595,-0.9775,-0.9994,-1.0149,-1.0455,-1.0887,-1.1175,-1.1459,-1.189,-1.2466,-1.2896,-1.3182,-1.3615,-1.4043,-1.4474,-1.4763,-1.485,-1.492,-1.5106,-1.5194,-1.5243,1.1776,1.1792,1.1939,1.1769,1.1456,1.1576,1.1596,1.1242,1.0706,1.0306,0.9945,0.9392,0.8405,0.7397,0.6762,0.6368,0.596,0.5593,0.5232,0.4986,0.4577,0.4206,0.3833,0.3323,0.308,0.2708,0.2331,0.2078,0.2097,0.2101,0.2112,0.2129,0.2133,0.2133,0.2134,0.2133,0.2127,0.2126,0.2127,0.2127,0.2115,0.2099,0.2068,0.2065,0.2065,0.2065,0.2064,0.2065,0.2064,0.2064,0.2069,0.1813,0.1555,0.1038,0.0389,-0.026,-0.0915,-0.1574,-0.2233,-0.2906,-0.3326,-0.3866,-0.4407,-0.4812,-0.5242,-0.5776,-0.6315,-0.6734,-0.7139,-0.7675,-0.7945,-0.821,-0.8213,-0.8523,-0.8677,-0.8769,-0.8842,-0.8878,-0.8908,-0.8924,-0.8951,-0.903,-0.9098,-0.9111,-0.9136,-0.9147,-0.9182,-0.9185,-0.9171,-0.9204,-0.9223,-0.9234,-0.9247,-0.9272,-0.9416,-0.9396,-0.9582,-0.9735,-0.9882,-1.0311,-1.0599,-1.0596,-1.1028,-1.1746,-1.2033,-1.2176,-1.2749,-1.3182,-1.3611,-1.4022,-1.4301,-1.4432,-1.4501,-1.4538,-1.4485]}]]